<?xml version="1.0" encoding="UTF-8" standalone="no" ?>
<gpx xmlns="http://www.topografix.com/GPX/1/1" xmlns:xsi="http://www.w3.org/2001/XMLSchema-instance" xsi:schemaLocation="http://www.topografix.com/GPX/1/1 http://www.topografix.com/GPX/1/1/gpx.xsd" version="1.1" creator="VisuGPX - https://www.visugpx.com">
  <metadata>
    <name>2019-05-14 13:57:49</name>
    <desc><![CDATA[

]]></desc>
  </metadata>
  <trk>
    <name><![CDATA[2019-05-14 13:57:49]]></name>
    <trkseg>
      <trkpt lat="39.23713" lon="-8.68522">
        <ele>155.39</ele>
        <time>2019-05-14T05:58:34Z</time>
      </trkpt>
      <trkpt lat="39.23713" lon="-8.68522">
        <ele>155.39</ele>
        <time>2019-05-14T05:58:35Z</time>
      </trkpt>
      <trkpt lat="39.23713" lon="-8.68531">
        <ele>154.91</ele>
        <time>2019-05-14T05:58:50Z</time>
      </trkpt>
      <trkpt lat="39.23714" lon="-8.6854">
        <ele>155.87</ele>
        <time>2019-05-14T05:59:04Z</time>
      </trkpt>
      <trkpt lat="39.2372" lon="-8.68545">
        <ele>154.91</ele>
        <time>2019-05-14T05:59:19Z</time>
      </trkpt>
      <trkpt lat="39.23732" lon="-8.68548">
        <ele>154.43</ele>
        <time>2019-05-14T05:59:33Z</time>
      </trkpt>
      <trkpt lat="39.23733" lon="-8.68549">
        <ele>154.91</ele>
        <time>2019-05-14T05:59:36Z</time>
      </trkpt>
      <trkpt lat="39.23736" lon="-8.68548">
        <ele>154.43</ele>
        <time>2019-05-14T05:59:52Z</time>
      </trkpt>
      <trkpt lat="39.23741" lon="-8.68545">
        <ele>153.95</ele>
        <time>2019-05-14T06:00:09Z</time>
      </trkpt>
      <trkpt lat="39.23747" lon="-8.68545">
        <ele>153.95</ele>
        <time>2019-05-14T06:00:22Z</time>
      </trkpt>
      <trkpt lat="39.23753" lon="-8.68542">
        <ele>153.95</ele>
        <time>2019-05-14T06:00:27Z</time>
      </trkpt>
      <trkpt lat="39.23771" lon="-8.68538">
        <ele>152.51</ele>
        <time>2019-05-14T06:00:44Z</time>
      </trkpt>
      <trkpt lat="39.23781" lon="-8.68532">
        <ele>152.03</ele>
        <time>2019-05-14T06:00:57Z</time>
      </trkpt>
      <trkpt lat="39.23784" lon="-8.6853">
        <ele>152.03</ele>
        <time>2019-05-14T06:01:02Z</time>
      </trkpt>
      <trkpt lat="39.238" lon="-8.68524">
        <ele>151.06</ele>
        <time>2019-05-14T06:01:17Z</time>
      </trkpt>
      <trkpt lat="39.23816" lon="-8.68519">
        <ele>150.58</ele>
        <time>2019-05-14T06:01:32Z</time>
      </trkpt>
      <trkpt lat="39.23827" lon="-8.6851">
        <ele>149.14</ele>
        <time>2019-05-14T06:01:44Z</time>
      </trkpt>
      <trkpt lat="39.23837" lon="-8.68495">
        <ele>149.14</ele>
        <time>2019-05-14T06:01:59Z</time>
      </trkpt>
      <trkpt lat="39.23847" lon="-8.68473">
        <ele>148.66</ele>
        <time>2019-05-14T06:02:16Z</time>
      </trkpt>
      <trkpt lat="39.23847" lon="-8.6847">
        <ele>148.66</ele>
        <time>2019-05-14T06:02:18Z</time>
      </trkpt>
      <trkpt lat="39.2385" lon="-8.68462">
        <ele>148.66</ele>
        <time>2019-05-14T06:02:24Z</time>
      </trkpt>
      <trkpt lat="39.23856" lon="-8.68449">
        <ele>148.18</ele>
        <time>2019-05-14T06:02:37Z</time>
      </trkpt>
      <trkpt lat="39.23866" lon="-8.68435">
        <ele>147.7</ele>
        <time>2019-05-14T06:02:51Z</time>
      </trkpt>
      <trkpt lat="39.23873" lon="-8.68426">
        <ele>147.22</ele>
        <time>2019-05-14T06:02:59Z</time>
      </trkpt>
      <trkpt lat="39.23878" lon="-8.68418">
        <ele>146.74</ele>
        <time>2019-05-14T06:03:06Z</time>
      </trkpt>
      <trkpt lat="39.23884" lon="-8.68413">
        <ele>146.26</ele>
        <time>2019-05-14T06:03:13Z</time>
      </trkpt>
      <trkpt lat="39.23896" lon="-8.68397">
        <ele>145.78</ele>
        <time>2019-05-14T06:03:27Z</time>
      </trkpt>
      <trkpt lat="39.239" lon="-8.68394">
        <ele>145.78</ele>
        <time>2019-05-14T06:03:31Z</time>
      </trkpt>
      <trkpt lat="39.23904" lon="-8.68392">
        <ele>145.3</ele>
        <time>2019-05-14T06:03:35Z</time>
      </trkpt>
      <trkpt lat="39.23918" lon="-8.68387">
        <ele>144.34</ele>
        <time>2019-05-14T06:03:50Z</time>
      </trkpt>
      <trkpt lat="39.23919" lon="-8.68386">
        <ele>143.85</ele>
        <time>2019-05-14T06:03:51Z</time>
      </trkpt>
      <trkpt lat="39.23935" lon="-8.68375">
        <ele>143.37</ele>
        <time>2019-05-14T06:04:05Z</time>
      </trkpt>
      <trkpt lat="39.23946" lon="-8.68358">
        <ele>142.41</ele>
        <time>2019-05-14T06:04:19Z</time>
      </trkpt>
      <trkpt lat="39.23957" lon="-8.68356">
        <ele>142.41</ele>
        <time>2019-05-14T06:04:31Z</time>
      </trkpt>
      <trkpt lat="39.23967" lon="-8.6835">
        <ele>142.89</ele>
        <time>2019-05-14T06:04:43Z</time>
      </trkpt>
      <trkpt lat="39.2397" lon="-8.68346">
        <ele>143.37</ele>
        <time>2019-05-14T06:04:47Z</time>
      </trkpt>
      <trkpt lat="39.23977" lon="-8.68341">
        <ele>143.37</ele>
        <time>2019-05-14T06:04:54Z</time>
      </trkpt>
      <trkpt lat="39.23989" lon="-8.68334">
        <ele>144.82</ele>
        <time>2019-05-14T06:05:06Z</time>
      </trkpt>
      <trkpt lat="39.24003" lon="-8.68331">
        <ele>146.26</ele>
        <time>2019-05-14T06:05:20Z</time>
      </trkpt>
      <trkpt lat="39.24003" lon="-8.68332">
        <ele>146.26</ele>
        <time>2019-05-14T06:05:21Z</time>
      </trkpt>
      <trkpt lat="39.24016" lon="-8.68336">
        <ele>147.22</ele>
        <time>2019-05-14T06:05:36Z</time>
      </trkpt>
      <trkpt lat="39.24027" lon="-8.68342">
        <ele>147.22</ele>
        <time>2019-05-14T06:05:53Z</time>
      </trkpt>
      <trkpt lat="39.24031" lon="-8.68342">
        <ele>147.7</ele>
        <time>2019-05-14T06:06:08Z</time>
      </trkpt>
      <trkpt lat="39.24038" lon="-8.68345">
        <ele>146.74</ele>
        <time>2019-05-14T06:06:31Z</time>
      </trkpt>
      <trkpt lat="39.24051" lon="-8.68339">
        <ele>147.22</ele>
        <time>2019-05-14T06:06:43Z</time>
      </trkpt>
      <trkpt lat="39.24057" lon="-8.68333">
        <ele>147.7</ele>
        <time>2019-05-14T06:06:48Z</time>
      </trkpt>
      <trkpt lat="39.2408" lon="-8.68331">
        <ele>147.22</ele>
        <time>2019-05-14T06:07:04Z</time>
      </trkpt>
      <trkpt lat="39.241" lon="-8.68327">
        <ele>146.74</ele>
        <time>2019-05-14T06:07:19Z</time>
      </trkpt>
      <trkpt lat="39.24117" lon="-8.68321">
        <ele>145.78</ele>
        <time>2019-05-14T06:07:34Z</time>
      </trkpt>
      <trkpt lat="39.24124" lon="-8.68317">
        <ele>144.34</ele>
        <time>2019-05-14T06:07:41Z</time>
      </trkpt>
      <trkpt lat="39.24135" lon="-8.68314">
        <ele>144.82</ele>
        <time>2019-05-14T06:07:49Z</time>
      </trkpt>
      <trkpt lat="39.24154" lon="-8.68303">
        <ele>143.37</ele>
        <time>2019-05-14T06:08:05Z</time>
      </trkpt>
      <trkpt lat="39.24167" lon="-8.68291">
        <ele>143.37</ele>
        <time>2019-05-14T06:08:19Z</time>
      </trkpt>
      <trkpt lat="39.24182" lon="-8.68275">
        <ele>142.89</ele>
        <time>2019-05-14T06:08:36Z</time>
      </trkpt>
      <trkpt lat="39.24195" lon="-8.6826">
        <ele>141.45</ele>
        <time>2019-05-14T06:08:50Z</time>
      </trkpt>
      <trkpt lat="39.242" lon="-8.68254">
        <ele>141.45</ele>
        <time>2019-05-14T06:08:56Z</time>
      </trkpt>
      <trkpt lat="39.24201" lon="-8.6825">
        <ele>140.97</ele>
        <time>2019-05-14T06:08:59Z</time>
      </trkpt>
      <trkpt lat="39.24203" lon="-8.68246">
        <ele>140.49</ele>
        <time>2019-05-14T06:09:02Z</time>
      </trkpt>
      <trkpt lat="39.24214" lon="-8.68228">
        <ele>139.53</ele>
        <time>2019-05-14T06:09:16Z</time>
      </trkpt>
      <trkpt lat="39.24224" lon="-8.6821">
        <ele>139.05</ele>
        <time>2019-05-14T06:09:31Z</time>
      </trkpt>
      <trkpt lat="39.24225" lon="-8.68209">
        <ele>138.57</ele>
        <time>2019-05-14T06:09:32Z</time>
      </trkpt>
      <trkpt lat="39.24229" lon="-8.68198">
        <ele>138.57</ele>
        <time>2019-05-14T06:09:47Z</time>
      </trkpt>
      <trkpt lat="39.24249" lon="-8.68201">
        <ele>137.61</ele>
        <time>2019-05-14T06:10:14Z</time>
      </trkpt>
      <trkpt lat="39.2425" lon="-8.68203">
        <ele>137.13</ele>
        <time>2019-05-14T06:10:37Z</time>
      </trkpt>
      <trkpt lat="39.24253" lon="-8.68193">
        <ele>137.13</ele>
        <time>2019-05-14T06:10:54Z</time>
      </trkpt>
      <trkpt lat="39.24261" lon="-8.68174">
        <ele>137.13</ele>
        <time>2019-05-14T06:11:10Z</time>
      </trkpt>
      <trkpt lat="39.24267" lon="-8.68149">
        <ele>137.61</ele>
        <time>2019-05-14T06:11:26Z</time>
      </trkpt>
      <trkpt lat="39.24269" lon="-8.68132">
        <ele>137.61</ele>
        <time>2019-05-14T06:11:39Z</time>
      </trkpt>
      <trkpt lat="39.24273" lon="-8.68112">
        <ele>138.57</ele>
        <time>2019-05-14T06:11:54Z</time>
      </trkpt>
      <trkpt lat="39.24275" lon="-8.68108">
        <ele>138.09</ele>
        <time>2019-05-14T06:11:57Z</time>
      </trkpt>
      <trkpt lat="39.24284" lon="-8.68109">
        <ele>137.61</ele>
        <time>2019-05-14T06:12:05Z</time>
      </trkpt>
      <trkpt lat="39.24294" lon="-8.6811">
        <ele>137.13</ele>
        <time>2019-05-14T06:12:20Z</time>
      </trkpt>
      <trkpt lat="39.24305" lon="-8.6811">
        <ele>136.64</ele>
        <time>2019-05-14T06:12:32Z</time>
      </trkpt>
      <trkpt lat="39.24314" lon="-8.68109">
        <ele>136.64</ele>
        <time>2019-05-14T06:12:40Z</time>
      </trkpt>
      <trkpt lat="39.24327" lon="-8.68109">
        <ele>136.16</ele>
        <time>2019-05-14T06:12:50Z</time>
      </trkpt>
      <trkpt lat="39.24347" lon="-8.68121">
        <ele>134.72</ele>
        <time>2019-05-14T06:13:06Z</time>
      </trkpt>
      <trkpt lat="39.2435" lon="-8.68123">
        <ele>135.2</ele>
        <time>2019-05-14T06:13:09Z</time>
      </trkpt>
      <trkpt lat="39.2436" lon="-8.6814">
        <ele>133.76</ele>
        <time>2019-05-14T06:13:23Z</time>
      </trkpt>
      <trkpt lat="39.24372" lon="-8.68158">
        <ele>132.32</ele>
        <time>2019-05-14T06:13:37Z</time>
      </trkpt>
      <trkpt lat="39.24379" lon="-8.68172">
        <ele>131.36</ele>
        <time>2019-05-14T06:13:48Z</time>
      </trkpt>
      <trkpt lat="39.24387" lon="-8.68188">
        <ele>129.92</ele>
        <time>2019-05-14T06:14:00Z</time>
      </trkpt>
      <trkpt lat="39.24398" lon="-8.68205">
        <ele>128.47</ele>
        <time>2019-05-14T06:14:13Z</time>
      </trkpt>
      <trkpt lat="39.24406" lon="-8.68218">
        <ele>126.07</ele>
        <time>2019-05-14T06:14:25Z</time>
      </trkpt>
      <trkpt lat="39.24414" lon="-8.68233">
        <ele>124.15</ele>
        <time>2019-05-14T06:14:38Z</time>
      </trkpt>
      <trkpt lat="39.24419" lon="-8.68244">
        <ele>122.71</ele>
        <time>2019-05-14T06:14:47Z</time>
      </trkpt>
      <trkpt lat="39.24426" lon="-8.68255">
        <ele>121.26</ele>
        <time>2019-05-14T06:14:55Z</time>
      </trkpt>
      <trkpt lat="39.24433" lon="-8.68263">
        <ele>120.78</ele>
        <time>2019-05-14T06:15:01Z</time>
      </trkpt>
      <trkpt lat="39.2444" lon="-8.68273">
        <ele>119.34</ele>
        <time>2019-05-14T06:15:08Z</time>
      </trkpt>
      <trkpt lat="39.24443" lon="-8.68278">
        <ele>118.86</ele>
        <time>2019-05-14T06:15:11Z</time>
      </trkpt>
      <trkpt lat="39.24447" lon="-8.68285">
        <ele>117.9</ele>
        <time>2019-05-14T06:15:16Z</time>
      </trkpt>
      <trkpt lat="39.24459" lon="-8.68308">
        <ele>115.5</ele>
        <time>2019-05-14T06:15:31Z</time>
      </trkpt>
      <trkpt lat="39.24471" lon="-8.68328">
        <ele>113.09</ele>
        <time>2019-05-14T06:15:46Z</time>
      </trkpt>
      <trkpt lat="39.24475" lon="-8.68339">
        <ele>112.13</ele>
        <time>2019-05-14T06:15:52Z</time>
      </trkpt>
      <trkpt lat="39.24476" lon="-8.68341">
        <ele>112.13</ele>
        <time>2019-05-14T06:15:54Z</time>
      </trkpt>
      <trkpt lat="39.24487" lon="-8.68363">
        <ele>109.73</ele>
        <time>2019-05-14T06:16:10Z</time>
      </trkpt>
      <trkpt lat="39.24497" lon="-8.68387">
        <ele>107.32</ele>
        <time>2019-05-14T06:16:25Z</time>
      </trkpt>
      <trkpt lat="39.24501" lon="-8.68396">
        <ele>106.84</ele>
        <time>2019-05-14T06:16:31Z</time>
      </trkpt>
      <trkpt lat="39.24507" lon="-8.68421">
        <ele>104.92</ele>
        <time>2019-05-14T06:16:46Z</time>
      </trkpt>
      <trkpt lat="39.24514" lon="-8.68438">
        <ele>103</ele>
        <time>2019-05-14T06:16:59Z</time>
      </trkpt>
      <trkpt lat="39.2452" lon="-8.68455">
        <ele>100.6</ele>
        <time>2019-05-14T06:17:12Z</time>
      </trkpt>
      <trkpt lat="39.24529" lon="-8.68475">
        <ele>98.67</ele>
        <time>2019-05-14T06:17:27Z</time>
      </trkpt>
      <trkpt lat="39.24533" lon="-8.68486">
        <ele>97.71</ele>
        <time>2019-05-14T06:17:34Z</time>
      </trkpt>
      <trkpt lat="39.24537" lon="-8.6849">
        <ele>97.23</ele>
        <time>2019-05-14T06:17:38Z</time>
      </trkpt>
      <trkpt lat="39.2455" lon="-8.68511">
        <ele>94.83</ele>
        <time>2019-05-14T06:17:54Z</time>
      </trkpt>
      <trkpt lat="39.24553" lon="-8.68516">
        <ele>93.87</ele>
        <time>2019-05-14T06:17:58Z</time>
      </trkpt>
      <trkpt lat="39.24562" lon="-8.68531">
        <ele>91.94</ele>
        <time>2019-05-14T06:18:10Z</time>
      </trkpt>
      <trkpt lat="39.24566" lon="-8.68538">
        <ele>91.46</ele>
        <time>2019-05-14T06:18:15Z</time>
      </trkpt>
      <trkpt lat="39.24578" lon="-8.68562">
        <ele>89.06</ele>
        <time>2019-05-14T06:18:31Z</time>
      </trkpt>
      <trkpt lat="39.24591" lon="-8.68581">
        <ele>87.14</ele>
        <time>2019-05-14T06:18:45Z</time>
      </trkpt>
      <trkpt lat="39.24597" lon="-8.68589">
        <ele>86.66</ele>
        <time>2019-05-14T06:18:51Z</time>
      </trkpt>
      <trkpt lat="39.24598" lon="-8.68592">
        <ele>86.66</ele>
        <time>2019-05-14T06:18:53Z</time>
      </trkpt>
      <trkpt lat="39.24611" lon="-8.68615">
        <ele>84.73</ele>
        <time>2019-05-14T06:19:10Z</time>
      </trkpt>
      <trkpt lat="39.24619" lon="-8.6863">
        <ele>83.77</ele>
        <time>2019-05-14T06:19:21Z</time>
      </trkpt>
      <trkpt lat="39.24629" lon="-8.68645">
        <ele>83.29</ele>
        <time>2019-05-14T06:19:34Z</time>
      </trkpt>
      <trkpt lat="39.2463" lon="-8.68647">
        <ele>83.29</ele>
        <time>2019-05-14T06:19:36Z</time>
      </trkpt>
      <trkpt lat="39.24642" lon="-8.68664">
        <ele>81.85</ele>
        <time>2019-05-14T06:19:50Z</time>
      </trkpt>
      <trkpt lat="39.24646" lon="-8.68662">
        <ele>81.85</ele>
        <time>2019-05-14T06:19:55Z</time>
      </trkpt>
      <trkpt lat="39.24648" lon="-8.6866">
        <ele>81.37</ele>
        <time>2019-05-14T06:19:57Z</time>
      </trkpt>
      <trkpt lat="39.24652" lon="-8.68659">
        <ele>81.37</ele>
        <time>2019-05-14T06:20:00Z</time>
      </trkpt>
      <trkpt lat="39.2466" lon="-8.68667">
        <ele>81.85</ele>
        <time>2019-05-14T06:20:13Z</time>
      </trkpt>
      <trkpt lat="39.24671" lon="-8.68671">
        <ele>81.37</ele>
        <time>2019-05-14T06:20:23Z</time>
      </trkpt>
      <trkpt lat="39.24686" lon="-8.68677">
        <ele>80.41</ele>
        <time>2019-05-14T06:20:35Z</time>
      </trkpt>
      <trkpt lat="39.2469" lon="-8.6868">
        <ele>80.41</ele>
        <time>2019-05-14T06:20:38Z</time>
      </trkpt>
      <trkpt lat="39.24687" lon="-8.68698">
        <ele>80.41</ele>
        <time>2019-05-14T06:20:48Z</time>
      </trkpt>
      <trkpt lat="39.24683" lon="-8.6871">
        <ele>80.41</ele>
        <time>2019-05-14T06:21:04Z</time>
      </trkpt>
      <trkpt lat="39.24683" lon="-8.68714">
        <ele>80.41</ele>
        <time>2019-05-14T06:21:09Z</time>
      </trkpt>
      <trkpt lat="39.2469" lon="-8.6872">
        <ele>80.41</ele>
        <time>2019-05-14T06:21:18Z</time>
      </trkpt>
      <trkpt lat="39.24698" lon="-8.68735">
        <ele>82.33</ele>
        <time>2019-05-14T06:21:31Z</time>
      </trkpt>
      <trkpt lat="39.24701" lon="-8.68739">
        <ele>81.85</ele>
        <time>2019-05-14T06:21:36Z</time>
      </trkpt>
      <trkpt lat="39.2471" lon="-8.68753">
        <ele>83.29</ele>
        <time>2019-05-14T06:21:48Z</time>
      </trkpt>
      <trkpt lat="39.24718" lon="-8.68766">
        <ele>83.77</ele>
        <time>2019-05-14T06:22:01Z</time>
      </trkpt>
      <trkpt lat="39.24719" lon="-8.68768">
        <ele>84.25</ele>
        <time>2019-05-14T06:22:03Z</time>
      </trkpt>
      <trkpt lat="39.24722" lon="-8.68775">
        <ele>84.25</ele>
        <time>2019-05-14T06:22:17Z</time>
      </trkpt>
      <trkpt lat="39.24728" lon="-8.68772">
        <ele>83.77</ele>
        <time>2019-05-14T06:22:46Z</time>
      </trkpt>
      <trkpt lat="39.24727" lon="-8.68772">
        <ele>82.81</ele>
        <time>2019-05-14T06:23:02Z</time>
      </trkpt>
      <trkpt lat="39.24738" lon="-8.68785">
        <ele>82.81</ele>
        <time>2019-05-14T06:23:15Z</time>
      </trkpt>
      <trkpt lat="39.24741" lon="-8.6879">
        <ele>83.29</ele>
        <time>2019-05-14T06:23:20Z</time>
      </trkpt>
      <trkpt lat="39.24745" lon="-8.68794">
        <ele>82.81</ele>
        <time>2019-05-14T06:23:24Z</time>
      </trkpt>
      <trkpt lat="39.24757" lon="-8.68802">
        <ele>83.29</ele>
        <time>2019-05-14T06:23:35Z</time>
      </trkpt>
      <trkpt lat="39.24773" lon="-8.68808">
        <ele>82.33</ele>
        <time>2019-05-14T06:23:50Z</time>
      </trkpt>
      <trkpt lat="39.24776" lon="-8.68808">
        <ele>81.85</ele>
        <time>2019-05-14T06:23:53Z</time>
      </trkpt>
      <trkpt lat="39.24794" lon="-8.68807">
        <ele>81.85</ele>
        <time>2019-05-14T06:24:08Z</time>
      </trkpt>
      <trkpt lat="39.24811" lon="-8.68802">
        <ele>81.37</ele>
        <time>2019-05-14T06:24:22Z</time>
      </trkpt>
      <trkpt lat="39.24831" lon="-8.68801">
        <ele>80.41</ele>
        <time>2019-05-14T06:24:37Z</time>
      </trkpt>
      <trkpt lat="39.24832" lon="-8.68801">
        <ele>79.45</ele>
        <time>2019-05-14T06:24:38Z</time>
      </trkpt>
      <trkpt lat="39.24836" lon="-8.68803">
        <ele>79.45</ele>
        <time>2019-05-14T06:24:42Z</time>
      </trkpt>
      <trkpt lat="39.24853" lon="-8.68797">
        <ele>79.45</ele>
        <time>2019-05-14T06:24:58Z</time>
      </trkpt>
      <trkpt lat="39.24862" lon="-8.68791">
        <ele>78.48</ele>
        <time>2019-05-14T06:25:08Z</time>
      </trkpt>
      <trkpt lat="39.24879" lon="-8.68782">
        <ele>78</ele>
        <time>2019-05-14T06:25:22Z</time>
      </trkpt>
      <trkpt lat="39.24892" lon="-8.68778">
        <ele>77.52</ele>
        <time>2019-05-14T06:25:32Z</time>
      </trkpt>
      <trkpt lat="39.24896" lon="-8.68768">
        <ele>77.52</ele>
        <time>2019-05-14T06:25:40Z</time>
      </trkpt>
      <trkpt lat="39.249" lon="-8.68763">
        <ele>77.52</ele>
        <time>2019-05-14T06:25:45Z</time>
      </trkpt>
      <trkpt lat="39.24914" lon="-8.68749">
        <ele>77.04</ele>
        <time>2019-05-14T06:26:00Z</time>
      </trkpt>
      <trkpt lat="39.24928" lon="-8.68736">
        <ele>76.08</ele>
        <time>2019-05-14T06:26:13Z</time>
      </trkpt>
      <trkpt lat="39.24929" lon="-8.68734">
        <ele>76.08</ele>
        <time>2019-05-14T06:26:15Z</time>
      </trkpt>
      <trkpt lat="39.24931" lon="-8.6873">
        <ele>75.6</ele>
        <time>2019-05-14T06:26:19Z</time>
      </trkpt>
      <trkpt lat="39.24939" lon="-8.68722">
        <ele>76.56</ele>
        <time>2019-05-14T06:26:26Z</time>
      </trkpt>
      <trkpt lat="39.24946" lon="-8.68709">
        <ele>75.6</ele>
        <time>2019-05-14T06:26:37Z</time>
      </trkpt>
      <trkpt lat="39.24955" lon="-8.6871">
        <ele>75.6</ele>
        <time>2019-05-14T06:26:52Z</time>
      </trkpt>
      <trkpt lat="39.24957" lon="-8.6871">
        <ele>75.6</ele>
        <time>2019-05-14T06:27:11Z</time>
      </trkpt>
      <trkpt lat="39.24959" lon="-8.68709">
        <ele>75.12</ele>
        <time>2019-05-14T06:27:12Z</time>
      </trkpt>
      <trkpt lat="39.24964" lon="-8.68705">
        <ele>75.12</ele>
        <time>2019-05-14T06:27:16Z</time>
      </trkpt>
      <trkpt lat="39.24967" lon="-8.68702">
        <ele>75.6</ele>
        <time>2019-05-14T06:27:19Z</time>
      </trkpt>
      <trkpt lat="39.24971" lon="-8.68694">
        <ele>75.12</ele>
        <time>2019-05-14T06:27:25Z</time>
      </trkpt>
      <trkpt lat="39.2498" lon="-8.68681">
        <ele>75.12</ele>
        <time>2019-05-14T06:27:35Z</time>
      </trkpt>
      <trkpt lat="39.2499" lon="-8.68664">
        <ele>75.12</ele>
        <time>2019-05-14T06:27:50Z</time>
      </trkpt>
      <trkpt lat="39.24993" lon="-8.68654">
        <ele>75.12</ele>
        <time>2019-05-14T06:27:57Z</time>
      </trkpt>
      <trkpt lat="39.24994" lon="-8.68644">
        <ele>75.6</ele>
        <time>2019-05-14T06:28:03Z</time>
      </trkpt>
      <trkpt lat="39.24999" lon="-8.68618">
        <ele>76.08</ele>
        <time>2019-05-14T06:28:20Z</time>
      </trkpt>
      <trkpt lat="39.25008" lon="-8.68603">
        <ele>76.56</ele>
        <time>2019-05-14T06:28:33Z</time>
      </trkpt>
      <trkpt lat="39.25012" lon="-8.68595">
        <ele>76.56</ele>
        <time>2019-05-14T06:28:39Z</time>
      </trkpt>
      <trkpt lat="39.25014" lon="-8.68592">
        <ele>76.56</ele>
        <time>2019-05-14T06:28:41Z</time>
      </trkpt>
      <trkpt lat="39.25021" lon="-8.68584">
        <ele>76.56</ele>
        <time>2019-05-14T06:28:49Z</time>
      </trkpt>
      <trkpt lat="39.25026" lon="-8.68576">
        <ele>76.56</ele>
        <time>2019-05-14T06:28:56Z</time>
      </trkpt>
      <trkpt lat="39.25033" lon="-8.68568">
        <ele>76.56</ele>
        <time>2019-05-14T06:29:03Z</time>
      </trkpt>
      <trkpt lat="39.25034" lon="-8.68554">
        <ele>76.56</ele>
        <time>2019-05-14T06:29:10Z</time>
      </trkpt>
      <trkpt lat="39.25036" lon="-8.68548">
        <ele>77.04</ele>
        <time>2019-05-14T06:29:14Z</time>
      </trkpt>
      <trkpt lat="39.25037" lon="-8.68533">
        <ele>77.52</ele>
        <time>2019-05-14T06:29:24Z</time>
      </trkpt>
      <trkpt lat="39.25043" lon="-8.68509">
        <ele>77.04</ele>
        <time>2019-05-14T06:29:40Z</time>
      </trkpt>
      <trkpt lat="39.25053" lon="-8.68493">
        <ele>77.52</ele>
        <time>2019-05-14T06:29:51Z</time>
      </trkpt>
      <trkpt lat="39.25057" lon="-8.68488">
        <ele>77.52</ele>
        <time>2019-05-14T06:29:56Z</time>
      </trkpt>
      <trkpt lat="39.25063" lon="-8.68481">
        <ele>77.04</ele>
        <time>2019-05-14T06:30:03Z</time>
      </trkpt>
      <trkpt lat="39.25063" lon="-8.68479">
        <ele>77.04</ele>
        <time>2019-05-14T06:30:04Z</time>
      </trkpt>
      <trkpt lat="39.25079" lon="-8.68466">
        <ele>76.56</ele>
        <time>2019-05-14T06:30:18Z</time>
      </trkpt>
      <trkpt lat="39.25094" lon="-8.68455">
        <ele>75.6</ele>
        <time>2019-05-14T06:30:32Z</time>
      </trkpt>
      <trkpt lat="39.25109" lon="-8.68442">
        <ele>75.12</ele>
        <time>2019-05-14T06:30:47Z</time>
      </trkpt>
      <trkpt lat="39.25128" lon="-8.6843">
        <ele>74.16</ele>
        <time>2019-05-14T06:31:03Z</time>
      </trkpt>
      <trkpt lat="39.25145" lon="-8.68419">
        <ele>73.68</ele>
        <time>2019-05-14T06:31:20Z</time>
      </trkpt>
      <trkpt lat="39.25155" lon="-8.68413">
        <ele>73.2</ele>
        <time>2019-05-14T06:31:32Z</time>
      </trkpt>
      <trkpt lat="39.25169" lon="-8.68403">
        <ele>72.72</ele>
        <time>2019-05-14T06:31:45Z</time>
      </trkpt>
      <trkpt lat="39.25185" lon="-8.68391">
        <ele>71.27</ele>
        <time>2019-05-14T06:31:59Z</time>
      </trkpt>
      <trkpt lat="39.25199" lon="-8.6838">
        <ele>71.27</ele>
        <time>2019-05-14T06:32:12Z</time>
      </trkpt>
      <trkpt lat="39.25213" lon="-8.68372">
        <ele>70.79</ele>
        <time>2019-05-14T06:32:23Z</time>
      </trkpt>
      <trkpt lat="39.25228" lon="-8.6836">
        <ele>69.35</ele>
        <time>2019-05-14T06:32:38Z</time>
      </trkpt>
      <trkpt lat="39.25231" lon="-8.68358">
        <ele>70.31</ele>
        <time>2019-05-14T06:32:41Z</time>
      </trkpt>
      <trkpt lat="39.25243" lon="-8.68352">
        <ele>70.31</ele>
        <time>2019-05-14T06:32:57Z</time>
      </trkpt>
      <trkpt lat="39.25255" lon="-8.68344">
        <ele>69.35</ele>
        <time>2019-05-14T06:33:10Z</time>
      </trkpt>
      <trkpt lat="39.2527" lon="-8.68332">
        <ele>69.83</ele>
        <time>2019-05-14T06:33:25Z</time>
      </trkpt>
      <trkpt lat="39.25285" lon="-8.68323">
        <ele>69.83</ele>
        <time>2019-05-14T06:33:39Z</time>
      </trkpt>
      <trkpt lat="39.25304" lon="-8.68311">
        <ele>69.83</ele>
        <time>2019-05-14T06:33:54Z</time>
      </trkpt>
      <trkpt lat="39.25316" lon="-8.6831">
        <ele>69.83</ele>
        <time>2019-05-14T06:34:04Z</time>
      </trkpt>
      <trkpt lat="39.25329" lon="-8.683">
        <ele>69.35</ele>
        <time>2019-05-14T06:34:17Z</time>
      </trkpt>
      <trkpt lat="39.25349" lon="-8.68284">
        <ele>69.83</ele>
        <time>2019-05-14T06:34:34Z</time>
      </trkpt>
      <trkpt lat="39.25365" lon="-8.68273">
        <ele>70.31</ele>
        <time>2019-05-14T06:34:49Z</time>
      </trkpt>
      <trkpt lat="39.25382" lon="-8.68261">
        <ele>70.79</ele>
        <time>2019-05-14T06:35:04Z</time>
      </trkpt>
      <trkpt lat="39.25398" lon="-8.68251">
        <ele>71.27</ele>
        <time>2019-05-14T06:35:19Z</time>
      </trkpt>
      <trkpt lat="39.25416" lon="-8.68239">
        <ele>72.72</ele>
        <time>2019-05-14T06:35:35Z</time>
      </trkpt>
      <trkpt lat="39.25432" lon="-8.68229">
        <ele>72.72</ele>
        <time>2019-05-14T06:35:50Z</time>
      </trkpt>
      <trkpt lat="39.25448" lon="-8.68219">
        <ele>73.2</ele>
        <time>2019-05-14T06:36:06Z</time>
      </trkpt>
      <trkpt lat="39.25463" lon="-8.68215">
        <ele>73.68</ele>
        <time>2019-05-14T06:36:22Z</time>
      </trkpt>
      <trkpt lat="39.25465" lon="-8.68213">
        <ele>74.16</ele>
        <time>2019-05-14T06:36:28Z</time>
      </trkpt>
      <trkpt lat="39.2547" lon="-8.68209">
        <ele>74.64</ele>
        <time>2019-05-14T06:36:34Z</time>
      </trkpt>
      <trkpt lat="39.25482" lon="-8.68202">
        <ele>75.12</ele>
        <time>2019-05-14T06:36:46Z</time>
      </trkpt>
      <trkpt lat="39.25507" lon="-8.68189">
        <ele>74.16</ele>
        <time>2019-05-14T06:37:02Z</time>
      </trkpt>
      <trkpt lat="39.25515" lon="-8.68186">
        <ele>74.64</ele>
        <time>2019-05-14T06:37:08Z</time>
      </trkpt>
      <trkpt lat="39.25531" lon="-8.68176">
        <ele>73.68</ele>
        <time>2019-05-14T06:37:24Z</time>
      </trkpt>
      <trkpt lat="39.2555" lon="-8.68161">
        <ele>72.72</ele>
        <time>2019-05-14T06:37:39Z</time>
      </trkpt>
      <trkpt lat="39.2557" lon="-8.68143">
        <ele>72.24</ele>
        <time>2019-05-14T06:37:55Z</time>
      </trkpt>
      <trkpt lat="39.25573" lon="-8.68142">
        <ele>71.76</ele>
        <time>2019-05-14T06:37:57Z</time>
      </trkpt>
      <trkpt lat="39.25587" lon="-8.68127">
        <ele>71.76</ele>
        <time>2019-05-14T06:38:12Z</time>
      </trkpt>
      <trkpt lat="39.25592" lon="-8.68124">
        <ele>71.27</ele>
        <time>2019-05-14T06:38:18Z</time>
      </trkpt>
      <trkpt lat="39.25594" lon="-8.68125">
        <ele>70.79</ele>
        <time>2019-05-14T06:38:20Z</time>
      </trkpt>
      <trkpt lat="39.25603" lon="-8.68124">
        <ele>71.76</ele>
        <time>2019-05-14T06:38:27Z</time>
      </trkpt>
      <trkpt lat="39.2561" lon="-8.68118">
        <ele>71.27</ele>
        <time>2019-05-14T06:38:35Z</time>
      </trkpt>
      <trkpt lat="39.25633" lon="-8.68116">
        <ele>71.27</ele>
        <time>2019-05-14T06:38:53Z</time>
      </trkpt>
      <trkpt lat="39.25654" lon="-8.68122">
        <ele>71.27</ele>
        <time>2019-05-14T06:39:11Z</time>
      </trkpt>
      <trkpt lat="39.25673" lon="-8.68128">
        <ele>71.27</ele>
        <time>2019-05-14T06:39:28Z</time>
      </trkpt>
      <trkpt lat="39.25692" lon="-8.68134">
        <ele>71.27</ele>
        <time>2019-05-14T06:39:44Z</time>
      </trkpt>
      <trkpt lat="39.2571" lon="-8.68138">
        <ele>71.27</ele>
        <time>2019-05-14T06:40:00Z</time>
      </trkpt>
      <trkpt lat="39.25733" lon="-8.68141">
        <ele>71.76</ele>
        <time>2019-05-14T06:40:18Z</time>
      </trkpt>
      <trkpt lat="39.25751" lon="-8.68143">
        <ele>72.24</ele>
        <time>2019-05-14T06:40:32Z</time>
      </trkpt>
      <trkpt lat="39.25767" lon="-8.68145">
        <ele>72.72</ele>
        <time>2019-05-14T06:40:46Z</time>
      </trkpt>
      <trkpt lat="39.25774" lon="-8.68156">
        <ele>72.24</ele>
        <time>2019-05-14T06:40:54Z</time>
      </trkpt>
      <trkpt lat="39.25778" lon="-8.68167">
        <ele>72.24</ele>
        <time>2019-05-14T06:41:01Z</time>
      </trkpt>
      <trkpt lat="39.25783" lon="-8.68173">
        <ele>73.2</ele>
        <time>2019-05-14T06:41:14Z</time>
      </trkpt>
      <trkpt lat="39.25783" lon="-8.68181">
        <ele>72.72</ele>
        <time>2019-05-14T06:41:28Z</time>
      </trkpt>
      <trkpt lat="39.25784" lon="-8.68182">
        <ele>72.24</ele>
        <time>2019-05-14T06:41:38Z</time>
      </trkpt>
      <trkpt lat="39.25784" lon="-8.6819">
        <ele>72.24</ele>
        <time>2019-05-14T06:41:48Z</time>
      </trkpt>
      <trkpt lat="39.25784" lon="-8.68191">
        <ele>72.24</ele>
        <time>2019-05-14T06:41:49Z</time>
      </trkpt>
      <trkpt lat="39.25777" lon="-8.68214">
        <ele>71.27</ele>
        <time>2019-05-14T06:42:05Z</time>
      </trkpt>
      <trkpt lat="39.25774" lon="-8.68233">
        <ele>70.31</ele>
        <time>2019-05-14T06:42:19Z</time>
      </trkpt>
      <trkpt lat="39.25768" lon="-8.68239">
        <ele>69.83</ele>
        <time>2019-05-14T06:42:25Z</time>
      </trkpt>
      <trkpt lat="39.25759" lon="-8.68252">
        <ele>69.83</ele>
        <time>2019-05-14T06:42:39Z</time>
      </trkpt>
      <trkpt lat="39.25753" lon="-8.68263">
        <ele>68.87</ele>
        <time>2019-05-14T06:42:55Z</time>
      </trkpt>
      <trkpt lat="39.25743" lon="-8.68282">
        <ele>68.39</ele>
        <time>2019-05-14T06:43:11Z</time>
      </trkpt>
      <trkpt lat="39.25742" lon="-8.68286">
        <ele>67.91</ele>
        <time>2019-05-14T06:43:15Z</time>
      </trkpt>
      <trkpt lat="39.25736" lon="-8.68304">
        <ele>67.43</ele>
        <time>2019-05-14T06:43:29Z</time>
      </trkpt>
      <trkpt lat="39.25736" lon="-8.68331">
        <ele>67.91</ele>
        <time>2019-05-14T06:43:45Z</time>
      </trkpt>
      <trkpt lat="39.25742" lon="-8.68354">
        <ele>67.43</ele>
        <time>2019-05-14T06:44:00Z</time>
      </trkpt>
      <trkpt lat="39.25748" lon="-8.68369">
        <ele>67.91</ele>
        <time>2019-05-14T06:44:11Z</time>
      </trkpt>
      <trkpt lat="39.25757" lon="-8.68388">
        <ele>67.43</ele>
        <time>2019-05-14T06:44:26Z</time>
      </trkpt>
      <trkpt lat="39.25765" lon="-8.68406">
        <ele>67.91</ele>
        <time>2019-05-14T06:44:40Z</time>
      </trkpt>
      <trkpt lat="39.25775" lon="-8.68426">
        <ele>67.91</ele>
        <time>2019-05-14T06:44:56Z</time>
      </trkpt>
      <trkpt lat="39.25781" lon="-8.68437">
        <ele>67.91</ele>
        <time>2019-05-14T06:45:05Z</time>
      </trkpt>
      <trkpt lat="39.25792" lon="-8.6846">
        <ele>69.35</ele>
        <time>2019-05-14T06:45:22Z</time>
      </trkpt>
      <trkpt lat="39.25795" lon="-8.68464">
        <ele>69.35</ele>
        <time>2019-05-14T06:45:25Z</time>
      </trkpt>
      <trkpt lat="39.25805" lon="-8.68486">
        <ele>69.35</ele>
        <time>2019-05-14T06:45:41Z</time>
      </trkpt>
      <trkpt lat="39.25809" lon="-8.68496">
        <ele>69.83</ele>
        <time>2019-05-14T06:45:49Z</time>
      </trkpt>
      <trkpt lat="39.25812" lon="-8.68502">
        <ele>69.83</ele>
        <time>2019-05-14T06:45:54Z</time>
      </trkpt>
      <trkpt lat="39.2582" lon="-8.68518">
        <ele>70.79</ele>
        <time>2019-05-14T06:46:06Z</time>
      </trkpt>
      <trkpt lat="39.25829" lon="-8.68537">
        <ele>70.79</ele>
        <time>2019-05-14T06:46:20Z</time>
      </trkpt>
      <trkpt lat="39.25836" lon="-8.68557">
        <ele>71.27</ele>
        <time>2019-05-14T06:46:36Z</time>
      </trkpt>
      <trkpt lat="39.25842" lon="-8.68572">
        <ele>71.76</ele>
        <time>2019-05-14T06:46:47Z</time>
      </trkpt>
      <trkpt lat="39.2585" lon="-8.68593">
        <ele>71.76</ele>
        <time>2019-05-14T06:47:02Z</time>
      </trkpt>
      <trkpt lat="39.25864" lon="-8.68611">
        <ele>72.72</ele>
        <time>2019-05-14T06:47:16Z</time>
      </trkpt>
      <trkpt lat="39.2587" lon="-8.68629">
        <ele>73.2</ele>
        <time>2019-05-14T06:47:30Z</time>
      </trkpt>
      <trkpt lat="39.25871" lon="-8.6863">
        <ele>72.72</ele>
        <time>2019-05-14T06:47:31Z</time>
      </trkpt>
      <trkpt lat="39.25872" lon="-8.68634">
        <ele>72.72</ele>
        <time>2019-05-14T06:47:34Z</time>
      </trkpt>
      <trkpt lat="39.25874" lon="-8.68638">
        <ele>73.2</ele>
        <time>2019-05-14T06:47:37Z</time>
      </trkpt>
      <trkpt lat="39.25875" lon="-8.6864">
        <ele>72.72</ele>
        <time>2019-05-14T06:47:39Z</time>
      </trkpt>
      <trkpt lat="39.25878" lon="-8.68643">
        <ele>72.72</ele>
        <time>2019-05-14T06:47:42Z</time>
      </trkpt>
      <trkpt lat="39.25879" lon="-8.68647">
        <ele>73.2</ele>
        <time>2019-05-14T06:47:45Z</time>
      </trkpt>
      <trkpt lat="39.2588" lon="-8.68649">
        <ele>73.2</ele>
        <time>2019-05-14T06:47:47Z</time>
      </trkpt>
      <trkpt lat="39.25881" lon="-8.68652">
        <ele>73.2</ele>
        <time>2019-05-14T06:47:49Z</time>
      </trkpt>
      <trkpt lat="39.25886" lon="-8.68674">
        <ele>73.2</ele>
        <time>2019-05-14T06:48:03Z</time>
      </trkpt>
      <trkpt lat="39.25886" lon="-8.68676">
        <ele>73.2</ele>
        <time>2019-05-14T06:48:04Z</time>
      </trkpt>
      <trkpt lat="39.25887" lon="-8.68679">
        <ele>73.2</ele>
        <time>2019-05-14T06:48:06Z</time>
      </trkpt>
      <trkpt lat="39.25888" lon="-8.68691">
        <ele>73.68</ele>
        <time>2019-05-14T06:48:19Z</time>
      </trkpt>
      <trkpt lat="39.25887" lon="-8.68703">
        <ele>73.68</ele>
        <time>2019-05-14T06:48:31Z</time>
      </trkpt>
      <trkpt lat="39.25889" lon="-8.68705">
        <ele>73.2</ele>
        <time>2019-05-14T06:48:33Z</time>
      </trkpt>
      <trkpt lat="39.25905" lon="-8.68714">
        <ele>74.16</ele>
        <time>2019-05-14T06:48:46Z</time>
      </trkpt>
      <trkpt lat="39.25907" lon="-8.68716">
        <ele>73.68</ele>
        <time>2019-05-14T06:48:48Z</time>
      </trkpt>
      <trkpt lat="39.25912" lon="-8.68717">
        <ele>73.68</ele>
        <time>2019-05-14T06:49:04Z</time>
      </trkpt>
      <trkpt lat="39.25913" lon="-8.68719">
        <ele>73.68</ele>
        <time>2019-05-14T06:49:23Z</time>
      </trkpt>
      <trkpt lat="39.25921" lon="-8.68721">
        <ele>73.2</ele>
        <time>2019-05-14T06:49:44Z</time>
      </trkpt>
      <trkpt lat="39.25936" lon="-8.68731">
        <ele>72.72</ele>
        <time>2019-05-14T06:49:58Z</time>
      </trkpt>
      <trkpt lat="39.25947" lon="-8.68744">
        <ele>72.72</ele>
        <time>2019-05-14T06:50:10Z</time>
      </trkpt>
      <trkpt lat="39.2595" lon="-8.68746">
        <ele>72.72</ele>
        <time>2019-05-14T06:50:13Z</time>
      </trkpt>
      <trkpt lat="39.25959" lon="-8.68764">
        <ele>72.72</ele>
        <time>2019-05-14T06:50:28Z</time>
      </trkpt>
      <trkpt lat="39.25964" lon="-8.68778">
        <ele>72.24</ele>
        <time>2019-05-14T06:50:40Z</time>
      </trkpt>
      <trkpt lat="39.25967" lon="-8.68783">
        <ele>72.24</ele>
        <time>2019-05-14T06:50:44Z</time>
      </trkpt>
      <trkpt lat="39.25969" lon="-8.68785">
        <ele>71.76</ele>
        <time>2019-05-14T06:50:46Z</time>
      </trkpt>
      <trkpt lat="39.25978" lon="-8.68799">
        <ele>72.24</ele>
        <time>2019-05-14T06:50:59Z</time>
      </trkpt>
      <trkpt lat="39.25984" lon="-8.68817">
        <ele>72.24</ele>
        <time>2019-05-14T06:51:13Z</time>
      </trkpt>
      <trkpt lat="39.25999" lon="-8.68834">
        <ele>73.2</ele>
        <time>2019-05-14T06:51:26Z</time>
      </trkpt>
      <trkpt lat="39.26003" lon="-8.68838">
        <ele>71.76</ele>
        <time>2019-05-14T06:51:29Z</time>
      </trkpt>
      <trkpt lat="39.26006" lon="-8.68848">
        <ele>71.27</ele>
        <time>2019-05-14T06:51:39Z</time>
      </trkpt>
      <trkpt lat="39.26006" lon="-8.68852">
        <ele>72.24</ele>
        <time>2019-05-14T06:51:43Z</time>
      </trkpt>
      <trkpt lat="39.26008" lon="-8.68869">
        <ele>71.76</ele>
        <time>2019-05-14T06:51:55Z</time>
      </trkpt>
      <trkpt lat="39.26012" lon="-8.68888">
        <ele>72.24</ele>
        <time>2019-05-14T06:52:07Z</time>
      </trkpt>
      <trkpt lat="39.26011" lon="-8.68892">
        <ele>71.76</ele>
        <time>2019-05-14T06:52:09Z</time>
      </trkpt>
      <trkpt lat="39.26012" lon="-8.68906">
        <ele>72.24</ele>
        <time>2019-05-14T06:52:18Z</time>
      </trkpt>
      <trkpt lat="39.26016" lon="-8.68925">
        <ele>72.72</ele>
        <time>2019-05-14T06:52:33Z</time>
      </trkpt>
      <trkpt lat="39.26016" lon="-8.68926">
        <ele>72.72</ele>
        <time>2019-05-14T06:52:34Z</time>
      </trkpt>
      <trkpt lat="39.26017" lon="-8.6894">
        <ele>72.72</ele>
        <time>2019-05-14T06:52:43Z</time>
      </trkpt>
      <trkpt lat="39.26023" lon="-8.68965">
        <ele>73.2</ele>
        <time>2019-05-14T06:52:58Z</time>
      </trkpt>
      <trkpt lat="39.26031" lon="-8.68982">
        <ele>73.2</ele>
        <time>2019-05-14T06:53:12Z</time>
      </trkpt>
      <trkpt lat="39.26043" lon="-8.69001">
        <ele>73.68</ele>
        <time>2019-05-14T06:53:28Z</time>
      </trkpt>
      <trkpt lat="39.26046" lon="-8.69006">
        <ele>74.16</ele>
        <time>2019-05-14T06:53:32Z</time>
      </trkpt>
      <trkpt lat="39.2606" lon="-8.6902">
        <ele>73.68</ele>
        <time>2019-05-14T06:53:47Z</time>
      </trkpt>
      <trkpt lat="39.26074" lon="-8.69034">
        <ele>74.64</ele>
        <time>2019-05-14T06:54:03Z</time>
      </trkpt>
      <trkpt lat="39.26088" lon="-8.69047">
        <ele>75.6</ele>
        <time>2019-05-14T06:54:18Z</time>
      </trkpt>
      <trkpt lat="39.26098" lon="-8.69056">
        <ele>75.6</ele>
        <time>2019-05-14T06:54:31Z</time>
      </trkpt>
      <trkpt lat="39.26113" lon="-8.69069">
        <ele>75.6</ele>
        <time>2019-05-14T06:54:47Z</time>
      </trkpt>
      <trkpt lat="39.26127" lon="-8.6908">
        <ele>74.64</ele>
        <time>2019-05-14T06:54:59Z</time>
      </trkpt>
      <trkpt lat="39.2614" lon="-8.6909">
        <ele>74.64</ele>
        <time>2019-05-14T06:55:13Z</time>
      </trkpt>
      <trkpt lat="39.26151" lon="-8.69097">
        <ele>74.16</ele>
        <time>2019-05-14T06:55:23Z</time>
      </trkpt>
      <trkpt lat="39.26158" lon="-8.691">
        <ele>74.16</ele>
        <time>2019-05-14T06:55:28Z</time>
      </trkpt>
      <trkpt lat="39.26169" lon="-8.69111">
        <ele>73.68</ele>
        <time>2019-05-14T06:55:41Z</time>
      </trkpt>
      <trkpt lat="39.26183" lon="-8.69123">
        <ele>73.68</ele>
        <time>2019-05-14T06:55:56Z</time>
      </trkpt>
      <trkpt lat="39.26204" lon="-8.69141">
        <ele>72.72</ele>
        <time>2019-05-14T06:56:14Z</time>
      </trkpt>
      <trkpt lat="39.26216" lon="-8.69155">
        <ele>72.72</ele>
        <time>2019-05-14T06:56:29Z</time>
      </trkpt>
      <trkpt lat="39.26229" lon="-8.69169">
        <ele>72.24</ele>
        <time>2019-05-14T06:56:44Z</time>
      </trkpt>
      <trkpt lat="39.26241" lon="-8.69183">
        <ele>72.72</ele>
        <time>2019-05-14T06:56:58Z</time>
      </trkpt>
      <trkpt lat="39.26247" lon="-8.69201">
        <ele>72.24</ele>
        <time>2019-05-14T06:57:11Z</time>
      </trkpt>
      <trkpt lat="39.26249" lon="-8.69203">
        <ele>71.76</ele>
        <time>2019-05-14T06:57:13Z</time>
      </trkpt>
      <trkpt lat="39.26255" lon="-8.69215">
        <ele>71.76</ele>
        <time>2019-05-14T06:57:22Z</time>
      </trkpt>
      <trkpt lat="39.26257" lon="-8.69222">
        <ele>72.72</ele>
        <time>2019-05-14T06:57:27Z</time>
      </trkpt>
      <trkpt lat="39.26266" lon="-8.69244">
        <ele>72.24</ele>
        <time>2019-05-14T06:57:44Z</time>
      </trkpt>
      <trkpt lat="39.26273" lon="-8.69268">
        <ele>72.24</ele>
        <time>2019-05-14T06:58:02Z</time>
      </trkpt>
      <trkpt lat="39.26273" lon="-8.6927">
        <ele>67.91</ele>
        <time>2019-05-14T06:58:07Z</time>
      </trkpt>
      <trkpt lat="39.26274" lon="-8.6927">
        <ele>71.76</ele>
        <time>2019-05-14T06:58:08Z</time>
      </trkpt>
      <trkpt lat="39.26275" lon="-8.69271">
        <ele>71.76</ele>
        <time>2019-05-14T06:58:32Z</time>
      </trkpt>
      <trkpt lat="39.26276" lon="-8.69269">
        <ele>70.79</ele>
        <time>2019-05-14T06:58:50Z</time>
      </trkpt>
      <trkpt lat="39.26277" lon="-8.6927">
        <ele>70.79</ele>
        <time>2019-05-14T06:59:02Z</time>
      </trkpt>
      <trkpt lat="39.26278" lon="-8.69268">
        <ele>70.79</ele>
        <time>2019-05-14T06:59:39Z</time>
      </trkpt>
      <trkpt lat="39.26277" lon="-8.6927">
        <ele>71.27</ele>
        <time>2019-05-14T07:00:19Z</time>
      </trkpt>
      <trkpt lat="39.26276" lon="-8.69271">
        <ele>70.31</ele>
        <time>2019-05-14T07:00:51Z</time>
      </trkpt>
      <trkpt lat="39.26276" lon="-8.69269">
        <ele>70.79</ele>
        <time>2019-05-14T07:01:29Z</time>
      </trkpt>
      <trkpt lat="39.26276" lon="-8.6927">
        <ele>70.79</ele>
        <time>2019-05-14T07:02:09Z</time>
      </trkpt>
      <trkpt lat="39.26276" lon="-8.69272">
        <ele>70.79</ele>
        <time>2019-05-14T07:02:52Z</time>
      </trkpt>
      <trkpt lat="39.26277" lon="-8.69273">
        <ele>70.79</ele>
        <time>2019-05-14T07:03:26Z</time>
      </trkpt>
      <trkpt lat="39.26277" lon="-8.69271">
        <ele>70.79</ele>
        <time>2019-05-14T07:04:02Z</time>
      </trkpt>
      <trkpt lat="39.26276" lon="-8.6927">
        <ele>70.79</ele>
        <time>2019-05-14T07:04:39Z</time>
      </trkpt>
      <trkpt lat="39.26275" lon="-8.69272">
        <ele>70.31</ele>
        <time>2019-05-14T07:05:25Z</time>
      </trkpt>
      <trkpt lat="39.26277" lon="-8.69272">
        <ele>70.79</ele>
        <time>2019-05-14T07:05:53Z</time>
      </trkpt>
      <trkpt lat="39.26277" lon="-8.69271">
        <ele>70.31</ele>
        <time>2019-05-14T07:06:33Z</time>
      </trkpt>
      <trkpt lat="39.26275" lon="-8.69272">
        <ele>70.31</ele>
        <time>2019-05-14T07:07:08Z</time>
      </trkpt>
      <trkpt lat="39.26275" lon="-8.69273">
        <ele>70.31</ele>
        <time>2019-05-14T07:07:36Z</time>
      </trkpt>
      <trkpt lat="39.26277" lon="-8.69273">
        <ele>70.31</ele>
        <time>2019-05-14T07:08:12Z</time>
      </trkpt>
      <trkpt lat="39.26278" lon="-8.6927">
        <ele>70.79</ele>
        <time>2019-05-14T07:08:35Z</time>
      </trkpt>
      <trkpt lat="39.26278" lon="-8.69269">
        <ele>70.31</ele>
        <time>2019-05-14T07:09:06Z</time>
      </trkpt>
      <trkpt lat="39.26277" lon="-8.6927">
        <ele>70.31</ele>
        <time>2019-05-14T07:09:26Z</time>
      </trkpt>
      <trkpt lat="39.26275" lon="-8.69271">
        <ele>70.79</ele>
        <time>2019-05-14T07:09:57Z</time>
      </trkpt>
      <trkpt lat="39.26277" lon="-8.69269">
        <ele>70.31</ele>
        <time>2019-05-14T07:10:34Z</time>
      </trkpt>
      <trkpt lat="39.26278" lon="-8.69268">
        <ele>70.31</ele>
        <time>2019-05-14T07:10:57Z</time>
      </trkpt>
      <trkpt lat="39.26277" lon="-8.69269">
        <ele>71.76</ele>
        <time>2019-05-14T07:11:19Z</time>
      </trkpt>
      <trkpt lat="39.26278" lon="-8.69269">
        <ele>71.76</ele>
        <time>2019-05-14T07:11:36Z</time>
      </trkpt>
      <trkpt lat="39.26277" lon="-8.69273">
        <ele>71.27</ele>
        <time>2019-05-14T07:11:53Z</time>
      </trkpt>
      <trkpt lat="39.26277" lon="-8.69274">
        <ele>71.76</ele>
        <time>2019-05-14T07:12:15Z</time>
      </trkpt>
      <trkpt lat="39.26282" lon="-8.69279">
        <ele>70.79</ele>
        <time>2019-05-14T07:12:39Z</time>
      </trkpt>
      <trkpt lat="39.26284" lon="-8.69286">
        <ele>71.27</ele>
        <time>2019-05-14T07:12:44Z</time>
      </trkpt>
      <trkpt lat="39.26289" lon="-8.69297">
        <ele>70.79</ele>
        <time>2019-05-14T07:12:53Z</time>
      </trkpt>
      <trkpt lat="39.26297" lon="-8.69317">
        <ele>71.27</ele>
        <time>2019-05-14T07:13:07Z</time>
      </trkpt>
      <trkpt lat="39.26305" lon="-8.69339">
        <ele>71.27</ele>
        <time>2019-05-14T07:13:22Z</time>
      </trkpt>
      <trkpt lat="39.26313" lon="-8.69361">
        <ele>71.27</ele>
        <time>2019-05-14T07:13:37Z</time>
      </trkpt>
      <trkpt lat="39.26323" lon="-8.69387">
        <ele>71.76</ele>
        <time>2019-05-14T07:13:56Z</time>
      </trkpt>
      <trkpt lat="39.26332" lon="-8.69408">
        <ele>72.24</ele>
        <time>2019-05-14T07:14:11Z</time>
      </trkpt>
      <trkpt lat="39.26341" lon="-8.69428">
        <ele>72.24</ele>
        <time>2019-05-14T07:14:26Z</time>
      </trkpt>
      <trkpt lat="39.26351" lon="-8.69446">
        <ele>72.24</ele>
        <time>2019-05-14T07:14:40Z</time>
      </trkpt>
      <trkpt lat="39.2636" lon="-8.69465">
        <ele>72.72</ele>
        <time>2019-05-14T07:14:55Z</time>
      </trkpt>
      <trkpt lat="39.26372" lon="-8.69481">
        <ele>72.72</ele>
        <time>2019-05-14T07:15:10Z</time>
      </trkpt>
      <trkpt lat="39.26376" lon="-8.69487">
        <ele>73.2</ele>
        <time>2019-05-14T07:15:19Z</time>
      </trkpt>
      <trkpt lat="39.26379" lon="-8.69492">
        <ele>73.2</ele>
        <time>2019-05-14T07:15:24Z</time>
      </trkpt>
      <trkpt lat="39.26391" lon="-8.69504">
        <ele>72.72</ele>
        <time>2019-05-14T07:15:37Z</time>
      </trkpt>
      <trkpt lat="39.26396" lon="-8.69513">
        <ele>73.2</ele>
        <time>2019-05-14T07:15:46Z</time>
      </trkpt>
      <trkpt lat="39.26394" lon="-8.69515">
        <ele>73.68</ele>
        <time>2019-05-14T07:15:48Z</time>
      </trkpt>
      <trkpt lat="39.26408" lon="-8.69525">
        <ele>73.68</ele>
        <time>2019-05-14T07:16:01Z</time>
      </trkpt>
      <trkpt lat="39.26422" lon="-8.69536">
        <ele>73.68</ele>
        <time>2019-05-14T07:16:15Z</time>
      </trkpt>
      <trkpt lat="39.26433" lon="-8.69544">
        <ele>74.16</ele>
        <time>2019-05-14T07:16:24Z</time>
      </trkpt>
      <trkpt lat="39.26439" lon="-8.69551">
        <ele>73.68</ele>
        <time>2019-05-14T07:16:30Z</time>
      </trkpt>
      <trkpt lat="39.26448" lon="-8.69559">
        <ele>73.68</ele>
        <time>2019-05-14T07:16:39Z</time>
      </trkpt>
      <trkpt lat="39.26457" lon="-8.69571">
        <ele>73.2</ele>
        <time>2019-05-14T07:16:50Z</time>
      </trkpt>
      <trkpt lat="39.2646" lon="-8.69589">
        <ele>73.2</ele>
        <time>2019-05-14T07:17:05Z</time>
      </trkpt>
      <trkpt lat="39.26457" lon="-8.69593">
        <ele>73.2</ele>
        <time>2019-05-14T07:17:18Z</time>
      </trkpt>
      <trkpt lat="39.26458" lon="-8.69597">
        <ele>72.72</ele>
        <time>2019-05-14T07:17:31Z</time>
      </trkpt>
      <trkpt lat="39.26462" lon="-8.69605">
        <ele>73.2</ele>
        <time>2019-05-14T07:17:39Z</time>
      </trkpt>
      <trkpt lat="39.26475" lon="-8.69609">
        <ele>72.72</ele>
        <time>2019-05-14T07:17:52Z</time>
      </trkpt>
      <trkpt lat="39.26485" lon="-8.69611">
        <ele>72.72</ele>
        <time>2019-05-14T07:18:01Z</time>
      </trkpt>
      <trkpt lat="39.26502" lon="-8.69614">
        <ele>73.2</ele>
        <time>2019-05-14T07:18:15Z</time>
      </trkpt>
      <trkpt lat="39.26519" lon="-8.69618">
        <ele>73.2</ele>
        <time>2019-05-14T07:18:27Z</time>
      </trkpt>
      <trkpt lat="39.26522" lon="-8.69619">
        <ele>73.2</ele>
        <time>2019-05-14T07:18:29Z</time>
      </trkpt>
      <trkpt lat="39.26541" lon="-8.69619">
        <ele>73.2</ele>
        <time>2019-05-14T07:18:44Z</time>
      </trkpt>
      <trkpt lat="39.26553" lon="-8.69621">
        <ele>72.72</ele>
        <time>2019-05-14T07:18:55Z</time>
      </trkpt>
      <trkpt lat="39.26572" lon="-8.69623">
        <ele>72.72</ele>
        <time>2019-05-14T07:19:10Z</time>
      </trkpt>
      <trkpt lat="39.26594" lon="-8.6963">
        <ele>72.24</ele>
        <time>2019-05-14T07:19:27Z</time>
      </trkpt>
      <trkpt lat="39.26605" lon="-8.69632">
        <ele>72.72</ele>
        <time>2019-05-14T07:19:36Z</time>
      </trkpt>
      <trkpt lat="39.2662" lon="-8.69634">
        <ele>72.72</ele>
        <time>2019-05-14T07:19:48Z</time>
      </trkpt>
      <trkpt lat="39.26634" lon="-8.69635">
        <ele>72.72</ele>
        <time>2019-05-14T07:20:01Z</time>
      </trkpt>
      <trkpt lat="39.2665" lon="-8.6964">
        <ele>72.24</ele>
        <time>2019-05-14T07:20:14Z</time>
      </trkpt>
      <trkpt lat="39.26666" lon="-8.69643">
        <ele>71.76</ele>
        <time>2019-05-14T07:20:27Z</time>
      </trkpt>
      <trkpt lat="39.2668" lon="-8.69645">
        <ele>72.24</ele>
        <time>2019-05-14T07:20:40Z</time>
      </trkpt>
      <trkpt lat="39.26686" lon="-8.69646">
        <ele>72.24</ele>
        <time>2019-05-14T07:20:45Z</time>
      </trkpt>
      <trkpt lat="39.26704" lon="-8.69651">
        <ele>72.24</ele>
        <time>2019-05-14T07:20:59Z</time>
      </trkpt>
      <trkpt lat="39.26723" lon="-8.69655">
        <ele>71.27</ele>
        <time>2019-05-14T07:21:15Z</time>
      </trkpt>
      <trkpt lat="39.26742" lon="-8.69657">
        <ele>72.24</ele>
        <time>2019-05-14T07:21:30Z</time>
      </trkpt>
      <trkpt lat="39.26765" lon="-8.69661">
        <ele>71.76</ele>
        <time>2019-05-14T07:21:48Z</time>
      </trkpt>
      <trkpt lat="39.26772" lon="-8.69662">
        <ele>72.24</ele>
        <time>2019-05-14T07:21:53Z</time>
      </trkpt>
      <trkpt lat="39.26791" lon="-8.69665">
        <ele>72.24</ele>
        <time>2019-05-14T07:22:09Z</time>
      </trkpt>
      <trkpt lat="39.26807" lon="-8.69668">
        <ele>72.72</ele>
        <time>2019-05-14T07:22:23Z</time>
      </trkpt>
      <trkpt lat="39.26822" lon="-8.69672">
        <ele>72.72</ele>
        <time>2019-05-14T07:22:38Z</time>
      </trkpt>
      <trkpt lat="39.26824" lon="-8.69673">
        <ele>73.2</ele>
        <time>2019-05-14T07:22:58Z</time>
      </trkpt>
      <trkpt lat="39.26826" lon="-8.69674">
        <ele>72.72</ele>
        <time>2019-05-14T07:23:20Z</time>
      </trkpt>
      <trkpt lat="39.26836" lon="-8.69674">
        <ele>73.2</ele>
        <time>2019-05-14T07:23:35Z</time>
      </trkpt>
      <trkpt lat="39.26847" lon="-8.69676">
        <ele>73.2</ele>
        <time>2019-05-14T07:23:47Z</time>
      </trkpt>
      <trkpt lat="39.26849" lon="-8.69676">
        <ele>73.2</ele>
        <time>2019-05-14T07:23:49Z</time>
      </trkpt>
      <trkpt lat="39.2687" lon="-8.69678">
        <ele>73.2</ele>
        <time>2019-05-14T07:24:05Z</time>
      </trkpt>
      <trkpt lat="39.26884" lon="-8.69678">
        <ele>73.2</ele>
        <time>2019-05-14T07:24:17Z</time>
      </trkpt>
      <trkpt lat="39.26902" lon="-8.69682">
        <ele>73.68</ele>
        <time>2019-05-14T07:24:32Z</time>
      </trkpt>
      <trkpt lat="39.26903" lon="-8.69682">
        <ele>73.68</ele>
        <time>2019-05-14T07:24:33Z</time>
      </trkpt>
      <trkpt lat="39.26908" lon="-8.69682">
        <ele>73.68</ele>
        <time>2019-05-14T07:24:37Z</time>
      </trkpt>
      <trkpt lat="39.26924" lon="-8.69685">
        <ele>73.2</ele>
        <time>2019-05-14T07:24:50Z</time>
      </trkpt>
      <trkpt lat="39.26937" lon="-8.6969">
        <ele>73.2</ele>
        <time>2019-05-14T07:25:03Z</time>
      </trkpt>
      <trkpt lat="39.26944" lon="-8.69692">
        <ele>73.2</ele>
        <time>2019-05-14T07:25:09Z</time>
      </trkpt>
      <trkpt lat="39.26956" lon="-8.69696">
        <ele>72.24</ele>
        <time>2019-05-14T07:25:18Z</time>
      </trkpt>
      <trkpt lat="39.26958" lon="-8.69699">
        <ele>72.72</ele>
        <time>2019-05-14T07:25:21Z</time>
      </trkpt>
      <trkpt lat="39.26962" lon="-8.69703">
        <ele>72.24</ele>
        <time>2019-05-14T07:25:26Z</time>
      </trkpt>
      <trkpt lat="39.26972" lon="-8.69719">
        <ele>70.79</ele>
        <time>2019-05-14T07:25:40Z</time>
      </trkpt>
      <trkpt lat="39.26981" lon="-8.69731">
        <ele>71.27</ele>
        <time>2019-05-14T07:25:51Z</time>
      </trkpt>
      <trkpt lat="39.26983" lon="-8.69733">
        <ele>71.27</ele>
        <time>2019-05-14T07:25:53Z</time>
      </trkpt>
      <trkpt lat="39.26997" lon="-8.69745">
        <ele>71.27</ele>
        <time>2019-05-14T07:26:06Z</time>
      </trkpt>
      <trkpt lat="39.27001" lon="-8.69737">
        <ele>71.27</ele>
        <time>2019-05-14T07:26:13Z</time>
      </trkpt>
      <trkpt lat="39.27017" lon="-8.6974">
        <ele>71.76</ele>
        <time>2019-05-14T07:26:28Z</time>
      </trkpt>
      <trkpt lat="39.27037" lon="-8.6974">
        <ele>71.76</ele>
        <time>2019-05-14T07:26:44Z</time>
      </trkpt>
      <trkpt lat="39.27052" lon="-8.69742">
        <ele>71.76</ele>
        <time>2019-05-14T07:26:55Z</time>
      </trkpt>
      <trkpt lat="39.27062" lon="-8.69742">
        <ele>71.76</ele>
        <time>2019-05-14T07:27:09Z</time>
      </trkpt>
      <trkpt lat="39.27062" lon="-8.69741">
        <ele>71.76</ele>
        <time>2019-05-14T07:27:11Z</time>
      </trkpt>
      <trkpt lat="39.27064" lon="-8.69741">
        <ele>71.76</ele>
        <time>2019-05-14T07:27:13Z</time>
      </trkpt>
      <trkpt lat="39.27077" lon="-8.69742">
        <ele>71.76</ele>
        <time>2019-05-14T07:27:26Z</time>
      </trkpt>
      <trkpt lat="39.27081" lon="-8.69742">
        <ele>71.76</ele>
        <time>2019-05-14T07:27:39Z</time>
      </trkpt>
      <trkpt lat="39.2709" lon="-8.69742">
        <ele>71.27</ele>
        <time>2019-05-14T07:27:54Z</time>
      </trkpt>
      <trkpt lat="39.2711" lon="-8.69748">
        <ele>71.27</ele>
        <time>2019-05-14T07:28:12Z</time>
      </trkpt>
      <trkpt lat="39.27127" lon="-8.69753">
        <ele>70.31</ele>
        <time>2019-05-14T07:28:26Z</time>
      </trkpt>
      <trkpt lat="39.27148" lon="-8.69761">
        <ele>69.35</ele>
        <time>2019-05-14T07:28:43Z</time>
      </trkpt>
      <trkpt lat="39.27149" lon="-8.69762">
        <ele>68.87</ele>
        <time>2019-05-14T07:28:45Z</time>
      </trkpt>
      <trkpt lat="39.27168" lon="-8.69773">
        <ele>68.87</ele>
        <time>2019-05-14T07:29:01Z</time>
      </trkpt>
      <trkpt lat="39.27174" lon="-8.69777">
        <ele>68.39</ele>
        <time>2019-05-14T07:29:06Z</time>
      </trkpt>
      <trkpt lat="39.2719" lon="-8.69784">
        <ele>68.39</ele>
        <time>2019-05-14T07:29:19Z</time>
      </trkpt>
      <trkpt lat="39.27209" lon="-8.69792">
        <ele>68.39</ele>
        <time>2019-05-14T07:29:34Z</time>
      </trkpt>
      <trkpt lat="39.27221" lon="-8.69801">
        <ele>68.39</ele>
        <time>2019-05-14T07:29:47Z</time>
      </trkpt>
      <trkpt lat="39.27232" lon="-8.69809">
        <ele>68.39</ele>
        <time>2019-05-14T07:30:00Z</time>
      </trkpt>
      <trkpt lat="39.27244" lon="-8.69817">
        <ele>67.91</ele>
        <time>2019-05-14T07:30:11Z</time>
      </trkpt>
      <trkpt lat="39.27265" lon="-8.69832">
        <ele>67.91</ele>
        <time>2019-05-14T07:30:29Z</time>
      </trkpt>
      <trkpt lat="39.27271" lon="-8.69836">
        <ele>67.43</ele>
        <time>2019-05-14T07:30:35Z</time>
      </trkpt>
      <trkpt lat="39.27279" lon="-8.69838">
        <ele>67.91</ele>
        <time>2019-05-14T07:30:41Z</time>
      </trkpt>
      <trkpt lat="39.27297" lon="-8.69845">
        <ele>67.43</ele>
        <time>2019-05-14T07:30:56Z</time>
      </trkpt>
      <trkpt lat="39.27307" lon="-8.69839">
        <ele>67.43</ele>
        <time>2019-05-14T07:31:05Z</time>
      </trkpt>
      <trkpt lat="39.27321" lon="-8.69849">
        <ele>67.91</ele>
        <time>2019-05-14T07:31:19Z</time>
      </trkpt>
      <trkpt lat="39.27331" lon="-8.69854">
        <ele>67.91</ele>
        <time>2019-05-14T07:31:27Z</time>
      </trkpt>
      <trkpt lat="39.27335" lon="-8.69854">
        <ele>67.91</ele>
        <time>2019-05-14T07:31:34Z</time>
      </trkpt>
      <trkpt lat="39.27358" lon="-8.69863">
        <ele>67.91</ele>
        <time>2019-05-14T07:31:54Z</time>
      </trkpt>
      <trkpt lat="39.27371" lon="-8.6987">
        <ele>66.95</ele>
        <time>2019-05-14T07:32:07Z</time>
      </trkpt>
      <trkpt lat="39.27394" lon="-8.69875">
        <ele>67.91</ele>
        <time>2019-05-14T07:32:24Z</time>
      </trkpt>
      <trkpt lat="39.2741" lon="-8.6988">
        <ele>68.39</ele>
        <time>2019-05-14T07:32:38Z</time>
      </trkpt>
      <trkpt lat="39.27423" lon="-8.69884">
        <ele>67.91</ele>
        <time>2019-05-14T07:32:48Z</time>
      </trkpt>
      <trkpt lat="39.27444" lon="-8.69891">
        <ele>68.87</ele>
        <time>2019-05-14T07:33:06Z</time>
      </trkpt>
      <trkpt lat="39.27461" lon="-8.69896">
        <ele>68.87</ele>
        <time>2019-05-14T07:33:21Z</time>
      </trkpt>
      <trkpt lat="39.27482" lon="-8.69903">
        <ele>68.87</ele>
        <time>2019-05-14T07:33:38Z</time>
      </trkpt>
      <trkpt lat="39.27502" lon="-8.69911">
        <ele>69.35</ele>
        <time>2019-05-14T07:33:55Z</time>
      </trkpt>
      <trkpt lat="39.27524" lon="-8.69919">
        <ele>69.83</ele>
        <time>2019-05-14T07:34:13Z</time>
      </trkpt>
      <trkpt lat="39.27533" lon="-8.69921">
        <ele>69.83</ele>
        <time>2019-05-14T07:34:21Z</time>
      </trkpt>
      <trkpt lat="39.27541" lon="-8.69924">
        <ele>69.35</ele>
        <time>2019-05-14T07:34:29Z</time>
      </trkpt>
      <trkpt lat="39.27558" lon="-8.69923">
        <ele>69.83</ele>
        <time>2019-05-14T07:34:45Z</time>
      </trkpt>
      <trkpt lat="39.27569" lon="-8.69919">
        <ele>69.83</ele>
        <time>2019-05-14T07:34:54Z</time>
      </trkpt>
      <trkpt lat="39.27586" lon="-8.69917">
        <ele>70.31</ele>
        <time>2019-05-14T07:35:08Z</time>
      </trkpt>
      <trkpt lat="39.27593" lon="-8.69914">
        <ele>70.79</ele>
        <time>2019-05-14T07:35:20Z</time>
      </trkpt>
      <trkpt lat="39.27603" lon="-8.69912">
        <ele>70.31</ele>
        <time>2019-05-14T07:35:28Z</time>
      </trkpt>
      <trkpt lat="39.27607" lon="-8.69913">
        <ele>70.79</ele>
        <time>2019-05-14T07:35:32Z</time>
      </trkpt>
      <trkpt lat="39.27611" lon="-8.69913">
        <ele>70.79</ele>
        <time>2019-05-14T07:35:35Z</time>
      </trkpt>
      <trkpt lat="39.27629" lon="-8.69908">
        <ele>70.79</ele>
        <time>2019-05-14T07:35:49Z</time>
      </trkpt>
      <trkpt lat="39.27636" lon="-8.69905">
        <ele>70.79</ele>
        <time>2019-05-14T07:35:56Z</time>
      </trkpt>
      <trkpt lat="39.27654" lon="-8.69898">
        <ele>71.27</ele>
        <time>2019-05-14T07:36:09Z</time>
      </trkpt>
      <trkpt lat="39.27671" lon="-8.69891">
        <ele>71.76</ele>
        <time>2019-05-14T07:36:23Z</time>
      </trkpt>
      <trkpt lat="39.27686" lon="-8.69884">
        <ele>72.24</ele>
        <time>2019-05-14T07:36:35Z</time>
      </trkpt>
      <trkpt lat="39.27698" lon="-8.69879">
        <ele>73.2</ele>
        <time>2019-05-14T07:36:45Z</time>
      </trkpt>
      <trkpt lat="39.27716" lon="-8.69873">
        <ele>73.2</ele>
        <time>2019-05-14T07:37:00Z</time>
      </trkpt>
      <trkpt lat="39.27722" lon="-8.69872">
        <ele>74.16</ele>
        <time>2019-05-14T07:37:05Z</time>
      </trkpt>
      <trkpt lat="39.27724" lon="-8.69871">
        <ele>74.16</ele>
        <time>2019-05-14T07:37:07Z</time>
      </trkpt>
      <trkpt lat="39.27726" lon="-8.6987">
        <ele>74.16</ele>
        <time>2019-05-14T07:37:09Z</time>
      </trkpt>
      <trkpt lat="39.2774" lon="-8.69868">
        <ele>74.16</ele>
        <time>2019-05-14T07:37:21Z</time>
      </trkpt>
      <trkpt lat="39.2776" lon="-8.69861">
        <ele>74.16</ele>
        <time>2019-05-14T07:37:37Z</time>
      </trkpt>
      <trkpt lat="39.27771" lon="-8.69859">
        <ele>73.2</ele>
        <time>2019-05-14T07:37:52Z</time>
      </trkpt>
      <trkpt lat="39.27789" lon="-8.69856">
        <ele>72.24</ele>
        <time>2019-05-14T07:38:06Z</time>
      </trkpt>
      <trkpt lat="39.27807" lon="-8.69854">
        <ele>71.76</ele>
        <time>2019-05-14T07:38:21Z</time>
      </trkpt>
      <trkpt lat="39.27824" lon="-8.69854">
        <ele>70.79</ele>
        <time>2019-05-14T07:38:37Z</time>
      </trkpt>
      <trkpt lat="39.2784" lon="-8.69853">
        <ele>71.27</ele>
        <time>2019-05-14T07:38:53Z</time>
      </trkpt>
      <trkpt lat="39.27859" lon="-8.69852">
        <ele>69.83</ele>
        <time>2019-05-14T07:39:10Z</time>
      </trkpt>
      <trkpt lat="39.27879" lon="-8.69852">
        <ele>69.35</ele>
        <time>2019-05-14T07:39:26Z</time>
      </trkpt>
      <trkpt lat="39.27901" lon="-8.69851">
        <ele>68.87</ele>
        <time>2019-05-14T07:39:43Z</time>
      </trkpt>
      <trkpt lat="39.27922" lon="-8.69851">
        <ele>68.39</ele>
        <time>2019-05-14T07:39:58Z</time>
      </trkpt>
      <trkpt lat="39.27938" lon="-8.69849">
        <ele>68.39</ele>
        <time>2019-05-14T07:40:12Z</time>
      </trkpt>
      <trkpt lat="39.27958" lon="-8.69844">
        <ele>68.39</ele>
        <time>2019-05-14T07:40:27Z</time>
      </trkpt>
      <trkpt lat="39.27976" lon="-8.69841">
        <ele>68.39</ele>
        <time>2019-05-14T07:40:42Z</time>
      </trkpt>
      <trkpt lat="39.27977" lon="-8.69841">
        <ele>68.39</ele>
        <time>2019-05-14T07:40:43Z</time>
      </trkpt>
      <trkpt lat="39.2798" lon="-8.69841">
        <ele>68.87</ele>
        <time>2019-05-14T07:40:48Z</time>
      </trkpt>
      <trkpt lat="39.28" lon="-8.69836">
        <ele>67.91</ele>
        <time>2019-05-14T07:41:04Z</time>
      </trkpt>
      <trkpt lat="39.28014" lon="-8.69836">
        <ele>67.43</ele>
        <time>2019-05-14T07:41:16Z</time>
      </trkpt>
      <trkpt lat="39.28023" lon="-8.69836">
        <ele>66.95</ele>
        <time>2019-05-14T07:41:23Z</time>
      </trkpt>
      <trkpt lat="39.28045" lon="-8.69833">
        <ele>66.95</ele>
        <time>2019-05-14T07:41:42Z</time>
      </trkpt>
      <trkpt lat="39.28066" lon="-8.6983">
        <ele>66.47</ele>
        <time>2019-05-14T07:41:59Z</time>
      </trkpt>
      <trkpt lat="39.28075" lon="-8.69827">
        <ele>65.99</ele>
        <time>2019-05-14T07:42:06Z</time>
      </trkpt>
      <trkpt lat="39.28087" lon="-8.69824">
        <ele>66.47</ele>
        <time>2019-05-14T07:42:16Z</time>
      </trkpt>
      <trkpt lat="39.28088" lon="-8.69821">
        <ele>66.47</ele>
        <time>2019-05-14T07:42:18Z</time>
      </trkpt>
      <trkpt lat="39.28093" lon="-8.69819">
        <ele>66.47</ele>
        <time>2019-05-14T07:42:22Z</time>
      </trkpt>
      <trkpt lat="39.28105" lon="-8.69816">
        <ele>66.95</ele>
        <time>2019-05-14T07:42:31Z</time>
      </trkpt>
      <trkpt lat="39.28122" lon="-8.69811">
        <ele>65.99</ele>
        <time>2019-05-14T07:42:46Z</time>
      </trkpt>
      <trkpt lat="39.28141" lon="-8.69805">
        <ele>65.99</ele>
        <time>2019-05-14T07:43:01Z</time>
      </trkpt>
      <trkpt lat="39.28164" lon="-8.69803">
        <ele>65.51</ele>
        <time>2019-05-14T07:43:18Z</time>
      </trkpt>
      <trkpt lat="39.28171" lon="-8.69803">
        <ele>65.51</ele>
        <time>2019-05-14T07:43:24Z</time>
      </trkpt>
      <trkpt lat="39.28176" lon="-8.69803">
        <ele>65.99</ele>
        <time>2019-05-14T07:43:30Z</time>
      </trkpt>
      <trkpt lat="39.28193" lon="-8.6981">
        <ele>65.51</ele>
        <time>2019-05-14T07:43:45Z</time>
      </trkpt>
      <trkpt lat="39.28214" lon="-8.69814">
        <ele>65.99</ele>
        <time>2019-05-14T07:44:02Z</time>
      </trkpt>
      <trkpt lat="39.28234" lon="-8.69818">
        <ele>65.51</ele>
        <time>2019-05-14T07:44:17Z</time>
      </trkpt>
      <trkpt lat="39.28256" lon="-8.69821">
        <ele>65.03</ele>
        <time>2019-05-14T07:44:34Z</time>
      </trkpt>
      <trkpt lat="39.28276" lon="-8.69824">
        <ele>64.55</ele>
        <time>2019-05-14T07:44:50Z</time>
      </trkpt>
      <trkpt lat="39.2829" lon="-8.69823">
        <ele>64.07</ele>
        <time>2019-05-14T07:45:04Z</time>
      </trkpt>
      <trkpt lat="39.2831" lon="-8.69818">
        <ele>63.58</ele>
        <time>2019-05-14T07:45:20Z</time>
      </trkpt>
      <trkpt lat="39.28335" lon="-8.6981">
        <ele>62.14</ele>
        <time>2019-05-14T07:45:39Z</time>
      </trkpt>
      <trkpt lat="39.28354" lon="-8.69804">
        <ele>60.7</ele>
        <time>2019-05-14T07:45:54Z</time>
      </trkpt>
      <trkpt lat="39.28373" lon="-8.69799">
        <ele>60.7</ele>
        <time>2019-05-14T07:46:10Z</time>
      </trkpt>
      <trkpt lat="39.28387" lon="-8.698">
        <ele>59.74</ele>
        <time>2019-05-14T07:46:21Z</time>
      </trkpt>
      <trkpt lat="39.28401" lon="-8.69808">
        <ele>58.3</ele>
        <time>2019-05-14T07:46:35Z</time>
      </trkpt>
      <trkpt lat="39.28415" lon="-8.69826">
        <ele>56.37</ele>
        <time>2019-05-14T07:46:51Z</time>
      </trkpt>
      <trkpt lat="39.28426" lon="-8.69842">
        <ele>54.45</ele>
        <time>2019-05-14T07:47:06Z</time>
      </trkpt>
      <trkpt lat="39.28427" lon="-8.69843">
        <ele>53.97</ele>
        <time>2019-05-14T07:47:16Z</time>
      </trkpt>
      <trkpt lat="39.28433" lon="-8.6985">
        <ele>53.49</ele>
        <time>2019-05-14T07:47:30Z</time>
      </trkpt>
      <trkpt lat="39.28435" lon="-8.69855">
        <ele>53.01</ele>
        <time>2019-05-14T07:47:37Z</time>
      </trkpt>
      <trkpt lat="39.28437" lon="-8.69858">
        <ele>53.01</ele>
        <time>2019-05-14T07:47:39Z</time>
      </trkpt>
      <trkpt lat="39.28448" lon="-8.69882">
        <ele>50.13</ele>
        <time>2019-05-14T07:47:56Z</time>
      </trkpt>
      <trkpt lat="39.28456" lon="-8.69895">
        <ele>48.2</ele>
        <time>2019-05-14T07:48:07Z</time>
      </trkpt>
      <trkpt lat="39.28468" lon="-8.69909">
        <ele>46.76</ele>
        <time>2019-05-14T07:48:20Z</time>
      </trkpt>
      <trkpt lat="39.2847" lon="-8.69911">
        <ele>45.8</ele>
        <time>2019-05-14T07:48:22Z</time>
      </trkpt>
      <trkpt lat="39.28474" lon="-8.69914">
        <ele>45.32</ele>
        <time>2019-05-14T07:48:26Z</time>
      </trkpt>
      <trkpt lat="39.28494" lon="-8.69924">
        <ele>41.95</ele>
        <time>2019-05-14T07:48:41Z</time>
      </trkpt>
      <trkpt lat="39.28503" lon="-8.69926">
        <ele>40.99</ele>
        <time>2019-05-14T07:48:48Z</time>
      </trkpt>
      <trkpt lat="39.28521" lon="-8.69928">
        <ele>38.59</ele>
        <time>2019-05-14T07:49:01Z</time>
      </trkpt>
      <trkpt lat="39.28532" lon="-8.69928">
        <ele>37.15</ele>
        <time>2019-05-14T07:49:11Z</time>
      </trkpt>
      <trkpt lat="39.28548" lon="-8.69925">
        <ele>35.23</ele>
        <time>2019-05-14T07:49:26Z</time>
      </trkpt>
      <trkpt lat="39.28573" lon="-8.69922">
        <ele>32.34</ele>
        <time>2019-05-14T07:49:42Z</time>
      </trkpt>
      <trkpt lat="39.28585" lon="-8.69921">
        <ele>30.9</ele>
        <time>2019-05-14T07:49:51Z</time>
      </trkpt>
      <trkpt lat="39.28597" lon="-8.69917">
        <ele>29.94</ele>
        <time>2019-05-14T07:50:02Z</time>
      </trkpt>
      <trkpt lat="39.28615" lon="-8.69909">
        <ele>28.02</ele>
        <time>2019-05-14T07:50:17Z</time>
      </trkpt>
      <trkpt lat="39.28632" lon="-8.69906">
        <ele>27.53</ele>
        <time>2019-05-14T07:50:32Z</time>
      </trkpt>
      <trkpt lat="39.28644" lon="-8.69898">
        <ele>27.53</ele>
        <time>2019-05-14T07:50:43Z</time>
      </trkpt>
      <trkpt lat="39.28661" lon="-8.69901">
        <ele>27.05</ele>
        <time>2019-05-14T07:50:58Z</time>
      </trkpt>
      <trkpt lat="39.28669" lon="-8.699">
        <ele>27.05</ele>
        <time>2019-05-14T07:51:05Z</time>
      </trkpt>
      <trkpt lat="39.2869" lon="-8.69894">
        <ele>27.05</ele>
        <time>2019-05-14T07:51:21Z</time>
      </trkpt>
      <trkpt lat="39.28695" lon="-8.69894">
        <ele>26.09</ele>
        <time>2019-05-14T07:51:27Z</time>
      </trkpt>
      <trkpt lat="39.28715" lon="-8.69896">
        <ele>27.05</ele>
        <time>2019-05-14T07:51:43Z</time>
      </trkpt>
      <trkpt lat="39.2872" lon="-8.69901">
        <ele>27.05</ele>
        <time>2019-05-14T07:51:54Z</time>
      </trkpt>
      <trkpt lat="39.28727" lon="-8.69912">
        <ele>27.05</ele>
        <time>2019-05-14T07:52:12Z</time>
      </trkpt>
      <trkpt lat="39.28738" lon="-8.69926">
        <ele>27.53</ele>
        <time>2019-05-14T07:52:24Z</time>
      </trkpt>
      <trkpt lat="39.28751" lon="-8.69943">
        <ele>28.02</ele>
        <time>2019-05-14T07:52:39Z</time>
      </trkpt>
      <trkpt lat="39.28763" lon="-8.69958">
        <ele>28.02</ele>
        <time>2019-05-14T07:52:52Z</time>
      </trkpt>
      <trkpt lat="39.28776" lon="-8.69975">
        <ele>28.5</ele>
        <time>2019-05-14T07:53:07Z</time>
      </trkpt>
      <trkpt lat="39.28783" lon="-8.69986">
        <ele>28.98</ele>
        <time>2019-05-14T07:53:17Z</time>
      </trkpt>
      <trkpt lat="39.28787" lon="-8.6999">
        <ele>28.5</ele>
        <time>2019-05-14T07:53:21Z</time>
      </trkpt>
      <trkpt lat="39.28798" lon="-8.70002">
        <ele>28.98</ele>
        <time>2019-05-14T07:53:35Z</time>
      </trkpt>
      <trkpt lat="39.28812" lon="-8.70018">
        <ele>29.46</ele>
        <time>2019-05-14T07:53:50Z</time>
      </trkpt>
      <trkpt lat="39.28825" lon="-8.70034">
        <ele>28.98</ele>
        <time>2019-05-14T07:54:03Z</time>
      </trkpt>
      <trkpt lat="39.28831" lon="-8.70042">
        <ele>29.46</ele>
        <time>2019-05-14T07:54:10Z</time>
      </trkpt>
      <trkpt lat="39.28846" lon="-8.70065">
        <ele>28.98</ele>
        <time>2019-05-14T07:54:28Z</time>
      </trkpt>
      <trkpt lat="39.28851" lon="-8.70075">
        <ele>29.46</ele>
        <time>2019-05-14T07:54:35Z</time>
      </trkpt>
      <trkpt lat="39.28863" lon="-8.70096">
        <ele>29.46</ele>
        <time>2019-05-14T07:54:51Z</time>
      </trkpt>
      <trkpt lat="39.28875" lon="-8.70115">
        <ele>28.98</ele>
        <time>2019-05-14T07:55:06Z</time>
      </trkpt>
      <trkpt lat="39.2888" lon="-8.70127">
        <ele>28.98</ele>
        <time>2019-05-14T07:55:14Z</time>
      </trkpt>
      <trkpt lat="39.28887" lon="-8.70146">
        <ele>28.5</ele>
        <time>2019-05-14T07:55:28Z</time>
      </trkpt>
      <trkpt lat="39.28892" lon="-8.70162">
        <ele>28.02</ele>
        <time>2019-05-14T07:55:41Z</time>
      </trkpt>
      <trkpt lat="39.28895" lon="-8.70169">
        <ele>28.02</ele>
        <time>2019-05-14T07:55:46Z</time>
      </trkpt>
      <trkpt lat="39.289" lon="-8.70189">
        <ele>27.53</ele>
        <time>2019-05-14T07:55:59Z</time>
      </trkpt>
      <trkpt lat="39.28902" lon="-8.70197">
        <ele>27.05</ele>
        <time>2019-05-14T07:56:04Z</time>
      </trkpt>
      <trkpt lat="39.28911" lon="-8.7022">
        <ele>26.57</ele>
        <time>2019-05-14T07:56:18Z</time>
      </trkpt>
      <trkpt lat="39.28918" lon="-8.70242">
        <ele>27.05</ele>
        <time>2019-05-14T07:56:33Z</time>
      </trkpt>
      <trkpt lat="39.28936" lon="-8.70269">
        <ele>26.09</ele>
        <time>2019-05-14T07:56:51Z</time>
      </trkpt>
      <trkpt lat="39.2894" lon="-8.70272">
        <ele>26.09</ele>
        <time>2019-05-14T07:56:54Z</time>
      </trkpt>
      <trkpt lat="39.28958" lon="-8.70284">
        <ele>26.57</ele>
        <time>2019-05-14T07:57:09Z</time>
      </trkpt>
      <trkpt lat="39.28959" lon="-8.70285">
        <ele>26.57</ele>
        <time>2019-05-14T07:57:10Z</time>
      </trkpt>
      <trkpt lat="39.28967" lon="-8.70288">
        <ele>25.61</ele>
        <time>2019-05-14T07:57:16Z</time>
      </trkpt>
      <trkpt lat="39.28981" lon="-8.70294">
        <ele>26.09</ele>
        <time>2019-05-14T07:57:27Z</time>
      </trkpt>
      <trkpt lat="39.28984" lon="-8.70295">
        <ele>26.09</ele>
        <time>2019-05-14T07:57:29Z</time>
      </trkpt>
      <trkpt lat="39.29" lon="-8.703">
        <ele>26.09</ele>
        <time>2019-05-14T07:57:42Z</time>
      </trkpt>
      <trkpt lat="39.2902" lon="-8.70297">
        <ele>26.09</ele>
        <time>2019-05-14T07:57:57Z</time>
      </trkpt>
      <trkpt lat="39.29038" lon="-8.70291">
        <ele>26.09</ele>
        <time>2019-05-14T07:58:12Z</time>
      </trkpt>
      <trkpt lat="39.29055" lon="-8.70283">
        <ele>26.09</ele>
        <time>2019-05-14T07:58:26Z</time>
      </trkpt>
      <trkpt lat="39.29072" lon="-8.70271">
        <ele>26.57</ele>
        <time>2019-05-14T07:58:41Z</time>
      </trkpt>
      <trkpt lat="39.29076" lon="-8.70268">
        <ele>27.05</ele>
        <time>2019-05-14T07:58:45Z</time>
      </trkpt>
      <trkpt lat="39.29082" lon="-8.70266">
        <ele>27.05</ele>
        <time>2019-05-14T07:58:50Z</time>
      </trkpt>
      <trkpt lat="39.29098" lon="-8.70262">
        <ele>27.53</ele>
        <time>2019-05-14T07:59:02Z</time>
      </trkpt>
      <trkpt lat="39.29113" lon="-8.70259">
        <ele>28.02</ele>
        <time>2019-05-14T07:59:14Z</time>
      </trkpt>
      <trkpt lat="39.29126" lon="-8.70253">
        <ele>28.98</ele>
        <time>2019-05-14T07:59:28Z</time>
      </trkpt>
      <trkpt lat="39.29138" lon="-8.70262">
        <ele>29.46</ele>
        <time>2019-05-14T07:59:42Z</time>
      </trkpt>
      <trkpt lat="39.29151" lon="-8.70274">
        <ele>28.5</ele>
        <time>2019-05-14T07:59:57Z</time>
      </trkpt>
      <trkpt lat="39.29156" lon="-8.7028">
        <ele>28.5</ele>
        <time>2019-05-14T08:00:06Z</time>
      </trkpt>
      <trkpt lat="39.2916" lon="-8.70281">
        <ele>28.5</ele>
        <time>2019-05-14T08:00:09Z</time>
      </trkpt>
      <trkpt lat="39.29163" lon="-8.70285">
        <ele>28.02</ele>
        <time>2019-05-14T08:00:13Z</time>
      </trkpt>
      <trkpt lat="39.29174" lon="-8.70304">
        <ele>27.53</ele>
        <time>2019-05-14T08:00:30Z</time>
      </trkpt>
      <trkpt lat="39.29176" lon="-8.70307">
        <ele>27.05</ele>
        <time>2019-05-14T08:00:33Z</time>
      </trkpt>
      <trkpt lat="39.29185" lon="-8.70324">
        <ele>27.05</ele>
        <time>2019-05-14T08:00:45Z</time>
      </trkpt>
      <trkpt lat="39.29195" lon="-8.70343">
        <ele>27.05</ele>
        <time>2019-05-14T08:00:58Z</time>
      </trkpt>
      <trkpt lat="39.29196" lon="-8.70346">
        <ele>26.57</ele>
        <time>2019-05-14T08:01:00Z</time>
      </trkpt>
      <trkpt lat="39.29205" lon="-8.70368">
        <ele>26.57</ele>
        <time>2019-05-14T08:01:15Z</time>
      </trkpt>
      <trkpt lat="39.29211" lon="-8.70386">
        <ele>26.57</ele>
        <time>2019-05-14T08:01:28Z</time>
      </trkpt>
      <trkpt lat="39.2922" lon="-8.70406">
        <ele>26.09</ele>
        <time>2019-05-14T08:01:41Z</time>
      </trkpt>
      <trkpt lat="39.29229" lon="-8.70425">
        <ele>26.57</ele>
        <time>2019-05-14T08:01:53Z</time>
      </trkpt>
      <trkpt lat="39.2923" lon="-8.70428">
        <ele>26.09</ele>
        <time>2019-05-14T08:01:55Z</time>
      </trkpt>
      <trkpt lat="39.29239" lon="-8.7045">
        <ele>26.09</ele>
        <time>2019-05-14T08:02:10Z</time>
      </trkpt>
      <trkpt lat="39.29246" lon="-8.7047">
        <ele>26.57</ele>
        <time>2019-05-14T08:02:24Z</time>
      </trkpt>
      <trkpt lat="39.29256" lon="-8.70491">
        <ele>26.57</ele>
        <time>2019-05-14T08:02:39Z</time>
      </trkpt>
      <trkpt lat="39.29267" lon="-8.7051">
        <ele>27.53</ele>
        <time>2019-05-14T08:02:54Z</time>
      </trkpt>
      <trkpt lat="39.29282" lon="-8.70526">
        <ele>26.57</ele>
        <time>2019-05-14T08:03:09Z</time>
      </trkpt>
      <trkpt lat="39.29295" lon="-8.70542">
        <ele>26.57</ele>
        <time>2019-05-14T08:03:24Z</time>
      </trkpt>
      <trkpt lat="39.29305" lon="-8.70555">
        <ele>27.53</ele>
        <time>2019-05-14T08:03:36Z</time>
      </trkpt>
      <trkpt lat="39.29319" lon="-8.70571">
        <ele>27.05</ele>
        <time>2019-05-14T08:03:50Z</time>
      </trkpt>
      <trkpt lat="39.29333" lon="-8.70586">
        <ele>28.02</ele>
        <time>2019-05-14T08:04:04Z</time>
      </trkpt>
      <trkpt lat="39.29349" lon="-8.70602">
        <ele>27.53</ele>
        <time>2019-05-14T08:04:18Z</time>
      </trkpt>
      <trkpt lat="39.29366" lon="-8.70621">
        <ele>27.05</ele>
        <time>2019-05-14T08:04:34Z</time>
      </trkpt>
      <trkpt lat="39.29385" lon="-8.70624">
        <ele>28.02</ele>
        <time>2019-05-14T08:04:49Z</time>
      </trkpt>
      <trkpt lat="39.29407" lon="-8.70631">
        <ele>26.57</ele>
        <time>2019-05-14T08:05:05Z</time>
      </trkpt>
      <trkpt lat="39.29423" lon="-8.70639">
        <ele>27.05</ele>
        <time>2019-05-14T08:05:18Z</time>
      </trkpt>
      <trkpt lat="39.29435" lon="-8.70646">
        <ele>27.05</ele>
        <time>2019-05-14T08:05:29Z</time>
      </trkpt>
      <trkpt lat="39.29439" lon="-8.70649">
        <ele>27.53</ele>
        <time>2019-05-14T08:05:33Z</time>
      </trkpt>
      <trkpt lat="39.29455" lon="-8.70659">
        <ele>28.5</ele>
        <time>2019-05-14T08:05:49Z</time>
      </trkpt>
      <trkpt lat="39.29456" lon="-8.70658">
        <ele>28.5</ele>
        <time>2019-05-14T08:06:05Z</time>
      </trkpt>
      <trkpt lat="39.2946" lon="-8.70666">
        <ele>29.46</ele>
        <time>2019-05-14T08:06:17Z</time>
      </trkpt>
      <trkpt lat="39.29463" lon="-8.7067">
        <ele>29.94</ele>
        <time>2019-05-14T08:06:21Z</time>
      </trkpt>
      <trkpt lat="39.29474" lon="-8.70688">
        <ele>31.86</ele>
        <time>2019-05-14T08:06:37Z</time>
      </trkpt>
      <trkpt lat="39.29484" lon="-8.70702">
        <ele>33.3</ele>
        <time>2019-05-14T08:06:52Z</time>
      </trkpt>
      <trkpt lat="39.29499" lon="-8.70704">
        <ele>34.74</ele>
        <time>2019-05-14T08:07:08Z</time>
      </trkpt>
      <trkpt lat="39.29502" lon="-8.707">
        <ele>35.23</ele>
        <time>2019-05-14T08:07:18Z</time>
      </trkpt>
      <trkpt lat="39.29513" lon="-8.70684">
        <ele>36.67</ele>
        <time>2019-05-14T08:07:33Z</time>
      </trkpt>
      <trkpt lat="39.29513" lon="-8.70683">
        <ele>36.67</ele>
        <time>2019-05-14T08:07:46Z</time>
      </trkpt>
      <trkpt lat="39.29513" lon="-8.70684">
        <ele>37.15</ele>
        <time>2019-05-14T08:07:47Z</time>
      </trkpt>
      <trkpt lat="39.29511" lon="-8.70686">
        <ele>36.19</ele>
        <time>2019-05-14T08:07:49Z</time>
      </trkpt>
      <trkpt lat="39.29505" lon="-8.70697">
        <ele>35.23</ele>
        <time>2019-05-14T08:07:58Z</time>
      </trkpt>
      <trkpt lat="39.29503" lon="-8.70711">
        <ele>36.67</ele>
        <time>2019-05-14T08:08:11Z</time>
      </trkpt>
      <trkpt lat="39.29514" lon="-8.70724">
        <ele>39.07</ele>
        <time>2019-05-14T08:08:26Z</time>
      </trkpt>
      <trkpt lat="39.29523" lon="-8.70719">
        <ele>40.03</ele>
        <time>2019-05-14T08:08:41Z</time>
      </trkpt>
      <trkpt lat="39.29525" lon="-8.70718">
        <ele>40.51</ele>
        <time>2019-05-14T08:08:52Z</time>
      </trkpt>
      <trkpt lat="39.29528" lon="-8.70719">
        <ele>40.51</ele>
        <time>2019-05-14T08:08:57Z</time>
      </trkpt>
      <trkpt lat="39.29541" lon="-8.70717">
        <ele>40.03</ele>
        <time>2019-05-14T08:09:08Z</time>
      </trkpt>
      <trkpt lat="39.29545" lon="-8.70714">
        <ele>40.51</ele>
        <time>2019-05-14T08:09:13Z</time>
      </trkpt>
      <trkpt lat="39.29552" lon="-8.70699">
        <ele>39.55</ele>
        <time>2019-05-14T08:09:29Z</time>
      </trkpt>
      <trkpt lat="39.29552" lon="-8.70697">
        <ele>39.07</ele>
        <time>2019-05-14T08:09:30Z</time>
      </trkpt>
      <trkpt lat="39.29549" lon="-8.70687">
        <ele>38.59</ele>
        <time>2019-05-14T08:09:34Z</time>
      </trkpt>
      <trkpt lat="39.29548" lon="-8.70684">
        <ele>38.11</ele>
        <time>2019-05-14T08:09:36Z</time>
      </trkpt>
      <trkpt lat="39.29536" lon="-8.70664">
        <ele>35.23</ele>
        <time>2019-05-14T08:09:52Z</time>
      </trkpt>
      <trkpt lat="39.29542" lon="-8.70656">
        <ele>34.74</ele>
        <time>2019-05-14T08:10:00Z</time>
      </trkpt>
      <trkpt lat="39.29553" lon="-8.7065">
        <ele>33.78</ele>
        <time>2019-05-14T08:10:11Z</time>
      </trkpt>
      <trkpt lat="39.29557" lon="-8.70644">
        <ele>33.78</ele>
        <time>2019-05-14T08:10:19Z</time>
      </trkpt>
      <trkpt lat="39.29577" lon="-8.70635">
        <ele>34.74</ele>
        <time>2019-05-14T08:10:36Z</time>
      </trkpt>
      <trkpt lat="39.29595" lon="-8.70637">
        <ele>35.23</ele>
        <time>2019-05-14T08:10:50Z</time>
      </trkpt>
      <trkpt lat="39.29606" lon="-8.70639">
        <ele>35.71</ele>
        <time>2019-05-14T08:11:04Z</time>
      </trkpt>
      <trkpt lat="39.29616" lon="-8.70636">
        <ele>35.23</ele>
        <time>2019-05-14T08:11:14Z</time>
      </trkpt>
      <trkpt lat="39.29631" lon="-8.70631">
        <ele>36.19</ele>
        <time>2019-05-14T08:11:27Z</time>
      </trkpt>
      <trkpt lat="39.2965" lon="-8.7063">
        <ele>36.19</ele>
        <time>2019-05-14T08:11:42Z</time>
      </trkpt>
      <trkpt lat="39.29668" lon="-8.70623">
        <ele>36.67</ele>
        <time>2019-05-14T08:11:57Z</time>
      </trkpt>
      <trkpt lat="39.29675" lon="-8.70621">
        <ele>36.19</ele>
        <time>2019-05-14T08:12:03Z</time>
      </trkpt>
      <trkpt lat="39.29689" lon="-8.70617">
        <ele>36.67</ele>
        <time>2019-05-14T08:12:15Z</time>
      </trkpt>
      <trkpt lat="39.29694" lon="-8.70616">
        <ele>36.67</ele>
        <time>2019-05-14T08:12:19Z</time>
      </trkpt>
      <trkpt lat="39.29709" lon="-8.70612">
        <ele>37.15</ele>
        <time>2019-05-14T08:12:32Z</time>
      </trkpt>
      <trkpt lat="39.29713" lon="-8.70609">
        <ele>37.63</ele>
        <time>2019-05-14T08:12:37Z</time>
      </trkpt>
      <trkpt lat="39.29732" lon="-8.70602">
        <ele>37.63</ele>
        <time>2019-05-14T08:12:54Z</time>
      </trkpt>
      <trkpt lat="39.29746" lon="-8.706">
        <ele>38.59</ele>
        <time>2019-05-14T08:13:09Z</time>
      </trkpt>
      <trkpt lat="39.29762" lon="-8.70594">
        <ele>38.11</ele>
        <time>2019-05-14T08:13:22Z</time>
      </trkpt>
      <trkpt lat="39.29782" lon="-8.70597">
        <ele>38.11</ele>
        <time>2019-05-14T08:13:39Z</time>
      </trkpt>
      <trkpt lat="39.29797" lon="-8.70597">
        <ele>39.07</ele>
        <time>2019-05-14T08:13:56Z</time>
      </trkpt>
      <trkpt lat="39.29808" lon="-8.706">
        <ele>39.55</ele>
        <time>2019-05-14T08:14:13Z</time>
      </trkpt>
      <trkpt lat="39.29819" lon="-8.70602">
        <ele>39.55</ele>
        <time>2019-05-14T08:14:25Z</time>
      </trkpt>
      <trkpt lat="39.2983" lon="-8.70608">
        <ele>39.55</ele>
        <time>2019-05-14T08:14:35Z</time>
      </trkpt>
      <trkpt lat="39.29847" lon="-8.70615">
        <ele>40.51</ele>
        <time>2019-05-14T08:14:51Z</time>
      </trkpt>
      <trkpt lat="39.29864" lon="-8.70617">
        <ele>40.99</ele>
        <time>2019-05-14T08:15:05Z</time>
      </trkpt>
      <trkpt lat="39.29879" lon="-8.7062">
        <ele>41.47</ele>
        <time>2019-05-14T08:15:17Z</time>
      </trkpt>
      <trkpt lat="39.29882" lon="-8.7062">
        <ele>41.47</ele>
        <time>2019-05-14T08:15:19Z</time>
      </trkpt>
      <trkpt lat="39.29899" lon="-8.70621">
        <ele>42.44</ele>
        <time>2019-05-14T08:15:32Z</time>
      </trkpt>
      <trkpt lat="39.29901" lon="-8.70622">
        <ele>42.44</ele>
        <time>2019-05-14T08:15:34Z</time>
      </trkpt>
      <trkpt lat="39.29912" lon="-8.70621">
        <ele>42.44</ele>
        <time>2019-05-14T08:15:47Z</time>
      </trkpt>
      <trkpt lat="39.29913" lon="-8.70621">
        <ele>41.95</ele>
        <time>2019-05-14T08:15:50Z</time>
      </trkpt>
      <trkpt lat="39.29932" lon="-8.70626">
        <ele>43.4</ele>
        <time>2019-05-14T08:16:08Z</time>
      </trkpt>
      <trkpt lat="39.29947" lon="-8.70625">
        <ele>43.4</ele>
        <time>2019-05-14T08:16:22Z</time>
      </trkpt>
      <trkpt lat="39.29964" lon="-8.70624">
        <ele>43.88</ele>
        <time>2019-05-14T08:16:36Z</time>
      </trkpt>
      <trkpt lat="39.29986" lon="-8.70622">
        <ele>43.88</ele>
        <time>2019-05-14T08:16:52Z</time>
      </trkpt>
      <trkpt lat="39.30001" lon="-8.70619">
        <ele>43.88</ele>
        <time>2019-05-14T08:17:05Z</time>
      </trkpt>
      <trkpt lat="39.3002" lon="-8.70617">
        <ele>43.88</ele>
        <time>2019-05-14T08:17:21Z</time>
      </trkpt>
      <trkpt lat="39.30023" lon="-8.70618">
        <ele>43.88</ele>
        <time>2019-05-14T08:17:26Z</time>
      </trkpt>
      <trkpt lat="39.3003" lon="-8.7062">
        <ele>44.36</ele>
        <time>2019-05-14T08:17:39Z</time>
      </trkpt>
      <trkpt lat="39.30027" lon="-8.70616">
        <ele>43.88</ele>
        <time>2019-05-14T08:17:54Z</time>
      </trkpt>
      <trkpt lat="39.30029" lon="-8.70615">
        <ele>44.36</ele>
        <time>2019-05-14T08:18:17Z</time>
      </trkpt>
      <trkpt lat="39.30026" lon="-8.70616">
        <ele>44.36</ele>
        <time>2019-05-14T08:18:41Z</time>
      </trkpt>
      <trkpt lat="39.30028" lon="-8.70615">
        <ele>44.84</ele>
        <time>2019-05-14T08:19:09Z</time>
      </trkpt>
      <trkpt lat="39.30023" lon="-8.70612">
        <ele>44.36</ele>
        <time>2019-05-14T08:19:28Z</time>
      </trkpt>
      <trkpt lat="39.30019" lon="-8.70617">
        <ele>44.36</ele>
        <time>2019-05-14T08:19:49Z</time>
      </trkpt>
      <trkpt lat="39.30019" lon="-8.70614">
        <ele>44.84</ele>
        <time>2019-05-14T08:20:08Z</time>
      </trkpt>
      <trkpt lat="39.30021" lon="-8.70617">
        <ele>44.84</ele>
        <time>2019-05-14T08:20:31Z</time>
      </trkpt>
      <trkpt lat="39.30023" lon="-8.70616">
        <ele>43.88</ele>
        <time>2019-05-14T08:20:59Z</time>
      </trkpt>
      <trkpt lat="39.30022" lon="-8.70614">
        <ele>44.84</ele>
        <time>2019-05-14T08:21:26Z</time>
      </trkpt>
      <trkpt lat="39.30023" lon="-8.70616">
        <ele>44.84</ele>
        <time>2019-05-14T08:21:53Z</time>
      </trkpt>
      <trkpt lat="39.30024" lon="-8.70618">
        <ele>45.32</ele>
        <time>2019-05-14T08:22:15Z</time>
      </trkpt>
      <trkpt lat="39.30024" lon="-8.70616">
        <ele>44.36</ele>
        <time>2019-05-14T08:22:39Z</time>
      </trkpt>
      <trkpt lat="39.30024" lon="-8.70616">
        <ele>44.84</ele>
        <time>2019-05-14T08:22:55Z</time>
      </trkpt>
      <trkpt lat="39.30024" lon="-8.70618">
        <ele>44.84</ele>
        <time>2019-05-14T08:23:18Z</time>
      </trkpt>
      <trkpt lat="39.30023" lon="-8.70616">
        <ele>44.36</ele>
        <time>2019-05-14T08:23:32Z</time>
      </trkpt>
      <trkpt lat="39.30029" lon="-8.70616">
        <ele>44.36</ele>
        <time>2019-05-14T08:23:50Z</time>
      </trkpt>
      <trkpt lat="39.30029" lon="-8.70617">
        <ele>45.32</ele>
        <time>2019-05-14T08:23:51Z</time>
      </trkpt>
      <trkpt lat="39.30032" lon="-8.7062">
        <ele>44.84</ele>
        <time>2019-05-14T08:23:55Z</time>
      </trkpt>
      <trkpt lat="39.30035" lon="-8.7062">
        <ele>44.36</ele>
        <time>2019-05-14T08:23:57Z</time>
      </trkpt>
      <trkpt lat="39.30052" lon="-8.70623">
        <ele>44.84</ele>
        <time>2019-05-14T08:24:12Z</time>
      </trkpt>
      <trkpt lat="39.30067" lon="-8.70636">
        <ele>45.32</ele>
        <time>2019-05-14T08:24:28Z</time>
      </trkpt>
      <trkpt lat="39.30082" lon="-8.70647">
        <ele>45.32</ele>
        <time>2019-05-14T08:24:42Z</time>
      </trkpt>
      <trkpt lat="39.30103" lon="-8.70658">
        <ele>44.84</ele>
        <time>2019-05-14T08:25:00Z</time>
      </trkpt>
      <trkpt lat="39.30124" lon="-8.70658">
        <ele>43.4</ele>
        <time>2019-05-14T08:25:15Z</time>
      </trkpt>
      <trkpt lat="39.30141" lon="-8.70653">
        <ele>42.44</ele>
        <time>2019-05-14T08:25:30Z</time>
      </trkpt>
      <trkpt lat="39.30146" lon="-8.70654">
        <ele>41.95</ele>
        <time>2019-05-14T08:25:40Z</time>
      </trkpt>
      <trkpt lat="39.30168" lon="-8.70658">
        <ele>40.03</ele>
        <time>2019-05-14T08:25:58Z</time>
      </trkpt>
      <trkpt lat="39.30182" lon="-8.70665">
        <ele>39.07</ele>
        <time>2019-05-14T08:26:10Z</time>
      </trkpt>
      <trkpt lat="39.30199" lon="-8.70677">
        <ele>38.11</ele>
        <time>2019-05-14T08:26:25Z</time>
      </trkpt>
      <trkpt lat="39.3022" lon="-8.70685">
        <ele>38.11</ele>
        <time>2019-05-14T08:26:42Z</time>
      </trkpt>
      <trkpt lat="39.30238" lon="-8.70692">
        <ele>38.59</ele>
        <time>2019-05-14T08:26:59Z</time>
      </trkpt>
      <trkpt lat="39.30241" lon="-8.70693">
        <ele>39.55</ele>
        <time>2019-05-14T08:27:02Z</time>
      </trkpt>
      <trkpt lat="39.3026" lon="-8.70699">
        <ele>40.99</ele>
        <time>2019-05-14T08:27:18Z</time>
      </trkpt>
      <trkpt lat="39.30275" lon="-8.70704">
        <ele>42.92</ele>
        <time>2019-05-14T08:27:32Z</time>
      </trkpt>
      <trkpt lat="39.3028" lon="-8.70707">
        <ele>43.4</ele>
        <time>2019-05-14T08:27:45Z</time>
      </trkpt>
      <trkpt lat="39.30298" lon="-8.70706">
        <ele>44.36</ele>
        <time>2019-05-14T08:28:00Z</time>
      </trkpt>
      <trkpt lat="39.30305" lon="-8.70704">
        <ele>44.36</ele>
        <time>2019-05-14T08:28:06Z</time>
      </trkpt>
      <trkpt lat="39.30314" lon="-8.70702">
        <ele>44.36</ele>
        <time>2019-05-14T08:28:14Z</time>
      </trkpt>
      <trkpt lat="39.3032" lon="-8.70702">
        <ele>44.36</ele>
        <time>2019-05-14T08:28:18Z</time>
      </trkpt>
      <trkpt lat="39.30328" lon="-8.70701">
        <ele>44.36</ele>
        <time>2019-05-14T08:28:24Z</time>
      </trkpt>
      <trkpt lat="39.30332" lon="-8.70699">
        <ele>44.84</ele>
        <time>2019-05-14T08:28:28Z</time>
      </trkpt>
      <trkpt lat="39.30335" lon="-8.70699">
        <ele>44.84</ele>
        <time>2019-05-14T08:28:31Z</time>
      </trkpt>
      <trkpt lat="39.30343" lon="-8.70697">
        <ele>45.32</ele>
        <time>2019-05-14T08:28:37Z</time>
      </trkpt>
      <trkpt lat="39.30353" lon="-8.70693">
        <ele>46.28</ele>
        <time>2019-05-14T08:28:46Z</time>
      </trkpt>
      <trkpt lat="39.30358" lon="-8.70692">
        <ele>46.28</ele>
        <time>2019-05-14T08:28:50Z</time>
      </trkpt>
      <trkpt lat="39.30377" lon="-8.70687">
        <ele>47.24</ele>
        <time>2019-05-14T08:29:06Z</time>
      </trkpt>
      <trkpt lat="39.3039" lon="-8.70688">
        <ele>47.72</ele>
        <time>2019-05-14T08:29:17Z</time>
      </trkpt>
      <trkpt lat="39.30409" lon="-8.70698">
        <ele>49.16</ele>
        <time>2019-05-14T08:29:34Z</time>
      </trkpt>
      <trkpt lat="39.30422" lon="-8.70707">
        <ele>50.61</ele>
        <time>2019-05-14T08:29:46Z</time>
      </trkpt>
      <trkpt lat="39.30437" lon="-8.7072">
        <ele>51.57</ele>
        <time>2019-05-14T08:30:02Z</time>
      </trkpt>
      <trkpt lat="39.30454" lon="-8.70731">
        <ele>51.57</ele>
        <time>2019-05-14T08:30:18Z</time>
      </trkpt>
      <trkpt lat="39.30467" lon="-8.70738">
        <ele>52.05</ele>
        <time>2019-05-14T08:30:30Z</time>
      </trkpt>
      <trkpt lat="39.30488" lon="-8.70747">
        <ele>53.01</ele>
        <time>2019-05-14T08:30:49Z</time>
      </trkpt>
      <trkpt lat="39.30509" lon="-8.70759">
        <ele>53.01</ele>
        <time>2019-05-14T08:31:07Z</time>
      </trkpt>
      <trkpt lat="39.30526" lon="-8.70771">
        <ele>54.45</ele>
        <time>2019-05-14T08:31:24Z</time>
      </trkpt>
      <trkpt lat="39.30542" lon="-8.70785">
        <ele>55.41</ele>
        <time>2019-05-14T08:31:40Z</time>
      </trkpt>
      <trkpt lat="39.30558" lon="-8.708">
        <ele>55.89</ele>
        <time>2019-05-14T08:31:57Z</time>
      </trkpt>
      <trkpt lat="39.30573" lon="-8.70815">
        <ele>55.41</ele>
        <time>2019-05-14T08:32:13Z</time>
      </trkpt>
      <trkpt lat="39.30581" lon="-8.70818">
        <ele>56.37</ele>
        <time>2019-05-14T08:32:19Z</time>
      </trkpt>
      <trkpt lat="39.30594" lon="-8.70836">
        <ele>56.37</ele>
        <time>2019-05-14T08:32:36Z</time>
      </trkpt>
      <trkpt lat="39.30606" lon="-8.70852">
        <ele>57.34</ele>
        <time>2019-05-14T08:32:51Z</time>
      </trkpt>
      <trkpt lat="39.30612" lon="-8.70864">
        <ele>57.82</ele>
        <time>2019-05-14T08:33:00Z</time>
      </trkpt>
      <trkpt lat="39.30626" lon="-8.70888">
        <ele>57.82</ele>
        <time>2019-05-14T08:33:19Z</time>
      </trkpt>
      <trkpt lat="39.30639" lon="-8.7091">
        <ele>57.82</ele>
        <time>2019-05-14T08:33:35Z</time>
      </trkpt>
      <trkpt lat="39.30644" lon="-8.70919">
        <ele>56.86</ele>
        <time>2019-05-14T08:33:47Z</time>
      </trkpt>
      <trkpt lat="39.30657" lon="-8.70941">
        <ele>55.89</ele>
        <time>2019-05-14T08:34:05Z</time>
      </trkpt>
      <trkpt lat="39.30666" lon="-8.70953">
        <ele>54.45</ele>
        <time>2019-05-14T08:34:17Z</time>
      </trkpt>
      <trkpt lat="39.30672" lon="-8.70957">
        <ele>53.97</ele>
        <time>2019-05-14T08:34:22Z</time>
      </trkpt>
      <trkpt lat="39.30682" lon="-8.70957">
        <ele>53.49</ele>
        <time>2019-05-14T08:34:31Z</time>
      </trkpt>
      <trkpt lat="39.30695" lon="-8.70938">
        <ele>53.97</ele>
        <time>2019-05-14T08:34:48Z</time>
      </trkpt>
      <trkpt lat="39.30702" lon="-8.7092">
        <ele>53.97</ele>
        <time>2019-05-14T08:35:00Z</time>
      </trkpt>
      <trkpt lat="39.30707" lon="-8.70916">
        <ele>53.49</ele>
        <time>2019-05-14T08:35:06Z</time>
      </trkpt>
      <trkpt lat="39.30728" lon="-8.70912">
        <ele>52.53</ele>
        <time>2019-05-14T08:35:23Z</time>
      </trkpt>
      <trkpt lat="39.30734" lon="-8.70912">
        <ele>52.53</ele>
        <time>2019-05-14T08:35:27Z</time>
      </trkpt>
      <trkpt lat="39.30752" lon="-8.70913">
        <ele>51.09</ele>
        <time>2019-05-14T08:35:40Z</time>
      </trkpt>
      <trkpt lat="39.30771" lon="-8.70913">
        <ele>49.16</ele>
        <time>2019-05-14T08:35:55Z</time>
      </trkpt>
      <trkpt lat="39.30786" lon="-8.70908">
        <ele>47.72</ele>
        <time>2019-05-14T08:36:08Z</time>
      </trkpt>
      <trkpt lat="39.30789" lon="-8.70908">
        <ele>47.24</ele>
        <time>2019-05-14T08:36:10Z</time>
      </trkpt>
      <trkpt lat="39.30806" lon="-8.70912">
        <ele>45.32</ele>
        <time>2019-05-14T08:36:22Z</time>
      </trkpt>
      <trkpt lat="39.30821" lon="-8.70916">
        <ele>43.88</ele>
        <time>2019-05-14T08:36:35Z</time>
      </trkpt>
      <trkpt lat="39.30832" lon="-8.70916">
        <ele>43.88</ele>
        <time>2019-05-14T08:36:49Z</time>
      </trkpt>
      <trkpt lat="39.30846" lon="-8.70919">
        <ele>42.92</ele>
        <time>2019-05-14T08:37:01Z</time>
      </trkpt>
      <trkpt lat="39.30848" lon="-8.7092">
        <ele>42.44</ele>
        <time>2019-05-14T08:37:03Z</time>
      </trkpt>
      <trkpt lat="39.30864" lon="-8.70925">
        <ele>42.44</ele>
        <time>2019-05-14T08:37:16Z</time>
      </trkpt>
      <trkpt lat="39.30875" lon="-8.70928">
        <ele>41.95</ele>
        <time>2019-05-14T08:37:28Z</time>
      </trkpt>
      <trkpt lat="39.30891" lon="-8.70935">
        <ele>42.44</ele>
        <time>2019-05-14T08:37:42Z</time>
      </trkpt>
      <trkpt lat="39.30911" lon="-8.70942">
        <ele>43.4</ele>
        <time>2019-05-14T08:37:58Z</time>
      </trkpt>
      <trkpt lat="39.30925" lon="-8.70947">
        <ele>44.36</ele>
        <time>2019-05-14T08:38:09Z</time>
      </trkpt>
      <trkpt lat="39.30929" lon="-8.70948">
        <ele>44.36</ele>
        <time>2019-05-14T08:38:13Z</time>
      </trkpt>
      <trkpt lat="39.30948" lon="-8.70951">
        <ele>45.32</ele>
        <time>2019-05-14T08:38:29Z</time>
      </trkpt>
      <trkpt lat="39.30965" lon="-8.70956">
        <ele>45.8</ele>
        <time>2019-05-14T08:38:43Z</time>
      </trkpt>
      <trkpt lat="39.30971" lon="-8.70961">
        <ele>46.28</ele>
        <time>2019-05-14T08:38:50Z</time>
      </trkpt>
      <trkpt lat="39.30989" lon="-8.70974">
        <ele>46.28</ele>
        <time>2019-05-14T08:39:07Z</time>
      </trkpt>
      <trkpt lat="39.30999" lon="-8.70979">
        <ele>46.76</ele>
        <time>2019-05-14T08:39:22Z</time>
      </trkpt>
      <trkpt lat="39.31" lon="-8.70981">
        <ele>46.76</ele>
        <time>2019-05-14T08:39:36Z</time>
      </trkpt>
      <trkpt lat="39.31003" lon="-8.70989">
        <ele>47.24</ele>
        <time>2019-05-14T08:39:55Z</time>
      </trkpt>
      <trkpt lat="39.31011" lon="-8.70997">
        <ele>47.24</ele>
        <time>2019-05-14T08:40:07Z</time>
      </trkpt>
      <trkpt lat="39.31025" lon="-8.71016">
        <ele>47.24</ele>
        <time>2019-05-14T08:40:23Z</time>
      </trkpt>
      <trkpt lat="39.31027" lon="-8.71019">
        <ele>47.72</ele>
        <time>2019-05-14T08:40:25Z</time>
      </trkpt>
      <trkpt lat="39.31033" lon="-8.71042">
        <ele>49.16</ele>
        <time>2019-05-14T08:40:42Z</time>
      </trkpt>
      <trkpt lat="39.31032" lon="-8.71059">
        <ele>49.16</ele>
        <time>2019-05-14T08:40:57Z</time>
      </trkpt>
      <trkpt lat="39.3103" lon="-8.71069">
        <ele>49.16</ele>
        <time>2019-05-14T08:41:05Z</time>
      </trkpt>
      <trkpt lat="39.31028" lon="-8.71091">
        <ele>50.13</ele>
        <time>2019-05-14T08:41:19Z</time>
      </trkpt>
      <trkpt lat="39.31027" lon="-8.71111">
        <ele>50.61</ele>
        <time>2019-05-14T08:41:31Z</time>
      </trkpt>
      <trkpt lat="39.31027" lon="-8.71139">
        <ele>51.09</ele>
        <time>2019-05-14T08:41:46Z</time>
      </trkpt>
      <trkpt lat="39.31031" lon="-8.71158">
        <ele>51.57</ele>
        <time>2019-05-14T08:41:59Z</time>
      </trkpt>
      <trkpt lat="39.31037" lon="-8.71165">
        <ele>51.09</ele>
        <time>2019-05-14T08:42:04Z</time>
      </trkpt>
      <trkpt lat="39.31061" lon="-8.71183">
        <ele>50.61</ele>
        <time>2019-05-14T08:42:21Z</time>
      </trkpt>
      <trkpt lat="39.31079" lon="-8.71197">
        <ele>49.65</ele>
        <time>2019-05-14T08:42:38Z</time>
      </trkpt>
      <trkpt lat="39.31085" lon="-8.712">
        <ele>49.65</ele>
        <time>2019-05-14T08:42:43Z</time>
      </trkpt>
      <trkpt lat="39.31105" lon="-8.71217">
        <ele>48.2</ele>
        <time>2019-05-14T08:43:02Z</time>
      </trkpt>
      <trkpt lat="39.31113" lon="-8.71237">
        <ele>48.68</ele>
        <time>2019-05-14T08:43:19Z</time>
      </trkpt>
      <trkpt lat="39.31122" lon="-8.71257">
        <ele>46.28</ele>
        <time>2019-05-14T08:43:33Z</time>
      </trkpt>
      <trkpt lat="39.31131" lon="-8.7126">
        <ele>46.28</ele>
        <time>2019-05-14T08:43:41Z</time>
      </trkpt>
      <trkpt lat="39.31136" lon="-8.71256">
        <ele>46.28</ele>
        <time>2019-05-14T08:43:46Z</time>
      </trkpt>
      <trkpt lat="39.31156" lon="-8.71256">
        <ele>44.36</ele>
        <time>2019-05-14T08:44:00Z</time>
      </trkpt>
      <trkpt lat="39.31168" lon="-8.71261">
        <ele>43.4</ele>
        <time>2019-05-14T08:44:06Z</time>
      </trkpt>
      <trkpt lat="39.31173" lon="-8.71264">
        <ele>42.92</ele>
        <time>2019-05-14T08:44:09Z</time>
      </trkpt>
      <trkpt lat="39.31179" lon="-8.71271">
        <ele>41.95</ele>
        <time>2019-05-14T08:44:16Z</time>
      </trkpt>
      <trkpt lat="39.31184" lon="-8.71276">
        <ele>41.95</ele>
        <time>2019-05-14T08:44:21Z</time>
      </trkpt>
      <trkpt lat="39.31203" lon="-8.71291">
        <ele>40.51</ele>
        <time>2019-05-14T08:44:38Z</time>
      </trkpt>
      <trkpt lat="39.31204" lon="-8.71292">
        <ele>40.51</ele>
        <time>2019-05-14T08:44:39Z</time>
      </trkpt>
      <trkpt lat="39.31217" lon="-8.71303">
        <ele>40.99</ele>
        <time>2019-05-14T08:44:53Z</time>
      </trkpt>
      <trkpt lat="39.31236" lon="-8.71321">
        <ele>42.92</ele>
        <time>2019-05-14T08:45:10Z</time>
      </trkpt>
      <trkpt lat="39.31249" lon="-8.71338">
        <ele>43.4</ele>
        <time>2019-05-14T08:45:25Z</time>
      </trkpt>
      <trkpt lat="39.31262" lon="-8.71352">
        <ele>43.88</ele>
        <time>2019-05-14T08:45:39Z</time>
      </trkpt>
      <trkpt lat="39.31278" lon="-8.71368">
        <ele>44.36</ele>
        <time>2019-05-14T08:45:54Z</time>
      </trkpt>
      <trkpt lat="39.31294" lon="-8.71381">
        <ele>44.36</ele>
        <time>2019-05-14T08:46:09Z</time>
      </trkpt>
      <trkpt lat="39.31297" lon="-8.71384">
        <ele>44.36</ele>
        <time>2019-05-14T08:46:12Z</time>
      </trkpt>
      <trkpt lat="39.31314" lon="-8.71397">
        <ele>44.36</ele>
        <time>2019-05-14T08:46:28Z</time>
      </trkpt>
      <trkpt lat="39.3133" lon="-8.71415">
        <ele>45.32</ele>
        <time>2019-05-14T08:46:44Z</time>
      </trkpt>
      <trkpt lat="39.31343" lon="-8.71428">
        <ele>45.8</ele>
        <time>2019-05-14T08:46:56Z</time>
      </trkpt>
      <trkpt lat="39.31359" lon="-8.71444">
        <ele>46.28</ele>
        <time>2019-05-14T08:47:12Z</time>
      </trkpt>
      <trkpt lat="39.31376" lon="-8.71462">
        <ele>46.76</ele>
        <time>2019-05-14T08:47:29Z</time>
      </trkpt>
      <trkpt lat="39.31391" lon="-8.71485">
        <ele>46.76</ele>
        <time>2019-05-14T08:47:46Z</time>
      </trkpt>
      <trkpt lat="39.31395" lon="-8.7149">
        <ele>47.24</ele>
        <time>2019-05-14T08:47:51Z</time>
      </trkpt>
      <trkpt lat="39.31411" lon="-8.71507">
        <ele>47.24</ele>
        <time>2019-05-14T08:48:06Z</time>
      </trkpt>
      <trkpt lat="39.31426" lon="-8.71521">
        <ele>47.24</ele>
        <time>2019-05-14T08:48:21Z</time>
      </trkpt>
      <trkpt lat="39.31441" lon="-8.71526">
        <ele>45.8</ele>
        <time>2019-05-14T08:48:37Z</time>
      </trkpt>
      <trkpt lat="39.31454" lon="-8.71523">
        <ele>44.36</ele>
        <time>2019-05-14T08:48:51Z</time>
      </trkpt>
      <trkpt lat="39.3146" lon="-8.71522">
        <ele>43.88</ele>
        <time>2019-05-14T08:49:03Z</time>
      </trkpt>
      <trkpt lat="39.31469" lon="-8.71521">
        <ele>42.92</ele>
        <time>2019-05-14T08:49:17Z</time>
      </trkpt>
      <trkpt lat="39.31469" lon="-8.71521">
        <ele>42.92</ele>
        <time>2019-05-14T08:49:57Z</time>
      </trkpt>
      <trkpt lat="39.31476" lon="-8.71515">
        <ele>41.47</ele>
        <time>2019-05-14T08:50:11Z</time>
      </trkpt>
      <trkpt lat="39.31477" lon="-8.71515">
        <ele>42.44</ele>
        <time>2019-05-14T08:50:12Z</time>
      </trkpt>
      <trkpt lat="39.31497" lon="-8.71513">
        <ele>40.51</ele>
        <time>2019-05-14T08:50:28Z</time>
      </trkpt>
      <trkpt lat="39.31515" lon="-8.71509">
        <ele>40.51</ele>
        <time>2019-05-14T08:50:44Z</time>
      </trkpt>
      <trkpt lat="39.31528" lon="-8.71496">
        <ele>39.55</ele>
        <time>2019-05-14T08:50:58Z</time>
      </trkpt>
      <trkpt lat="39.31541" lon="-8.7147">
        <ele>39.07</ele>
        <time>2019-05-14T08:51:16Z</time>
      </trkpt>
      <trkpt lat="39.31554" lon="-8.71449">
        <ele>39.07</ele>
        <time>2019-05-14T08:51:33Z</time>
      </trkpt>
      <trkpt lat="39.31575" lon="-8.71445">
        <ele>39.55</ele>
        <time>2019-05-14T08:51:50Z</time>
      </trkpt>
      <trkpt lat="39.31595" lon="-8.71446">
        <ele>40.03</ele>
        <time>2019-05-14T08:52:06Z</time>
      </trkpt>
      <trkpt lat="39.31617" lon="-8.7145">
        <ele>41.47</ele>
        <time>2019-05-14T08:52:25Z</time>
      </trkpt>
      <trkpt lat="39.31636" lon="-8.71456">
        <ele>41.95</ele>
        <time>2019-05-14T08:52:42Z</time>
      </trkpt>
      <trkpt lat="39.31651" lon="-8.71465">
        <ele>43.4</ele>
        <time>2019-05-14T08:52:56Z</time>
      </trkpt>
      <trkpt lat="39.31669" lon="-8.71476">
        <ele>43.88</ele>
        <time>2019-05-14T08:53:11Z</time>
      </trkpt>
      <trkpt lat="39.31688" lon="-8.71487">
        <ele>43.88</ele>
        <time>2019-05-14T08:53:27Z</time>
      </trkpt>
      <trkpt lat="39.31706" lon="-8.71495">
        <ele>43.88</ele>
        <time>2019-05-14T08:53:44Z</time>
      </trkpt>
      <trkpt lat="39.31722" lon="-8.71503">
        <ele>43.88</ele>
        <time>2019-05-14T08:53:57Z</time>
      </trkpt>
      <trkpt lat="39.31739" lon="-8.71511">
        <ele>44.36</ele>
        <time>2019-05-14T08:54:11Z</time>
      </trkpt>
      <trkpt lat="39.31758" lon="-8.71518">
        <ele>44.36</ele>
        <time>2019-05-14T08:54:27Z</time>
      </trkpt>
      <trkpt lat="39.31778" lon="-8.71523">
        <ele>44.36</ele>
        <time>2019-05-14T08:54:42Z</time>
      </trkpt>
      <trkpt lat="39.31798" lon="-8.71529">
        <ele>45.32</ele>
        <time>2019-05-14T08:54:58Z</time>
      </trkpt>
      <trkpt lat="39.31819" lon="-8.71533">
        <ele>46.76</ele>
        <time>2019-05-14T08:55:16Z</time>
      </trkpt>
      <trkpt lat="39.31827" lon="-8.71535">
        <ele>47.24</ele>
        <time>2019-05-14T08:55:23Z</time>
      </trkpt>
      <trkpt lat="39.31837" lon="-8.71532">
        <ele>47.24</ele>
        <time>2019-05-14T08:55:38Z</time>
      </trkpt>
      <trkpt lat="39.31838" lon="-8.71533">
        <ele>47.72</ele>
        <time>2019-05-14T08:55:53Z</time>
      </trkpt>
      <trkpt lat="39.31837" lon="-8.71529">
        <ele>47.24</ele>
        <time>2019-05-14T08:56:09Z</time>
      </trkpt>
      <trkpt lat="39.31836" lon="-8.7153">
        <ele>47.72</ele>
        <time>2019-05-14T08:56:40Z</time>
      </trkpt>
      <trkpt lat="39.31836" lon="-8.71529">
        <ele>47.72</ele>
        <time>2019-05-14T08:57:05Z</time>
      </trkpt>
      <trkpt lat="39.31836" lon="-8.71525">
        <ele>47.72</ele>
        <time>2019-05-14T08:57:29Z</time>
      </trkpt>
      <trkpt lat="39.31835" lon="-8.71525">
        <ele>47.72</ele>
        <time>2019-05-14T08:57:48Z</time>
      </trkpt>
      <trkpt lat="39.31852" lon="-8.71528">
        <ele>47.72</ele>
        <time>2019-05-14T08:58:04Z</time>
      </trkpt>
      <trkpt lat="39.31876" lon="-8.71528">
        <ele>46.76</ele>
        <time>2019-05-14T08:58:22Z</time>
      </trkpt>
      <trkpt lat="39.31897" lon="-8.71524">
        <ele>46.28</ele>
        <time>2019-05-14T08:58:38Z</time>
      </trkpt>
      <trkpt lat="39.31917" lon="-8.71524">
        <ele>45.32</ele>
        <time>2019-05-14T08:58:53Z</time>
      </trkpt>
      <trkpt lat="39.31938" lon="-8.71536">
        <ele>45.8</ele>
        <time>2019-05-14T08:59:13Z</time>
      </trkpt>
      <trkpt lat="39.31958" lon="-8.71547">
        <ele>46.76</ele>
        <time>2019-05-14T08:59:30Z</time>
      </trkpt>
      <trkpt lat="39.31973" lon="-8.71563">
        <ele>45.8</ele>
        <time>2019-05-14T08:59:44Z</time>
      </trkpt>
      <trkpt lat="39.31976" lon="-8.71565">
        <ele>45.8</ele>
        <time>2019-05-14T08:59:47Z</time>
      </trkpt>
      <trkpt lat="39.31989" lon="-8.71572">
        <ele>45.32</ele>
        <time>2019-05-14T08:59:59Z</time>
      </trkpt>
      <trkpt lat="39.3201" lon="-8.71587">
        <ele>45.32</ele>
        <time>2019-05-14T09:00:17Z</time>
      </trkpt>
      <trkpt lat="39.3203" lon="-8.71601">
        <ele>45.32</ele>
        <time>2019-05-14T09:00:34Z</time>
      </trkpt>
      <trkpt lat="39.32048" lon="-8.71616">
        <ele>44.84</ele>
        <time>2019-05-14T09:00:50Z</time>
      </trkpt>
      <trkpt lat="39.32067" lon="-8.71636">
        <ele>45.8</ele>
        <time>2019-05-14T09:01:09Z</time>
      </trkpt>
      <trkpt lat="39.3208" lon="-8.71648">
        <ele>46.76</ele>
        <time>2019-05-14T09:01:22Z</time>
      </trkpt>
      <trkpt lat="39.32097" lon="-8.71664">
        <ele>48.2</ele>
        <time>2019-05-14T09:01:38Z</time>
      </trkpt>
      <trkpt lat="39.3211" lon="-8.71676">
        <ele>48.2</ele>
        <time>2019-05-14T09:01:52Z</time>
      </trkpt>
      <trkpt lat="39.32126" lon="-8.71686">
        <ele>49.16</ele>
        <time>2019-05-14T09:02:05Z</time>
      </trkpt>
      <trkpt lat="39.32142" lon="-8.71694">
        <ele>50.13</ele>
        <time>2019-05-14T09:02:19Z</time>
      </trkpt>
      <trkpt lat="39.32164" lon="-8.71697">
        <ele>51.57</ele>
        <time>2019-05-14T09:02:37Z</time>
      </trkpt>
      <trkpt lat="39.32183" lon="-8.71697">
        <ele>52.53</ele>
        <time>2019-05-14T09:02:54Z</time>
      </trkpt>
      <trkpt lat="39.32196" lon="-8.71696">
        <ele>53.49</ele>
        <time>2019-05-14T09:03:06Z</time>
      </trkpt>
      <trkpt lat="39.32209" lon="-8.71696">
        <ele>53.97</ele>
        <time>2019-05-14T09:03:19Z</time>
      </trkpt>
      <trkpt lat="39.32228" lon="-8.71695">
        <ele>55.41</ele>
        <time>2019-05-14T09:03:35Z</time>
      </trkpt>
      <trkpt lat="39.32248" lon="-8.71693">
        <ele>55.89</ele>
        <time>2019-05-14T09:03:52Z</time>
      </trkpt>
      <trkpt lat="39.32267" lon="-8.71695">
        <ele>54.45</ele>
        <time>2019-05-14T09:04:07Z</time>
      </trkpt>
      <trkpt lat="39.32286" lon="-8.71705">
        <ele>53.49</ele>
        <time>2019-05-14T09:04:23Z</time>
      </trkpt>
      <trkpt lat="39.32303" lon="-8.71722">
        <ele>52.53</ele>
        <time>2019-05-14T09:04:40Z</time>
      </trkpt>
      <trkpt lat="39.32313" lon="-8.71738">
        <ele>51.09</ele>
        <time>2019-05-14T09:04:53Z</time>
      </trkpt>
      <trkpt lat="39.32322" lon="-8.71752">
        <ele>49.65</ele>
        <time>2019-05-14T09:05:04Z</time>
      </trkpt>
      <trkpt lat="39.32336" lon="-8.71775">
        <ele>48.68</ele>
        <time>2019-05-14T09:05:21Z</time>
      </trkpt>
      <trkpt lat="39.32349" lon="-8.71789">
        <ele>49.65</ele>
        <time>2019-05-14T09:05:36Z</time>
      </trkpt>
      <trkpt lat="39.32365" lon="-8.71796">
        <ele>51.57</ele>
        <time>2019-05-14T09:05:52Z</time>
      </trkpt>
      <trkpt lat="39.32383" lon="-8.7179">
        <ele>53.49</ele>
        <time>2019-05-14T09:06:07Z</time>
      </trkpt>
      <trkpt lat="39.32401" lon="-8.71791">
        <ele>53.97</ele>
        <time>2019-05-14T09:06:23Z</time>
      </trkpt>
      <trkpt lat="39.32423" lon="-8.71796">
        <ele>53.97</ele>
        <time>2019-05-14T09:06:41Z</time>
      </trkpt>
      <trkpt lat="39.32442" lon="-8.71803">
        <ele>53.97</ele>
        <time>2019-05-14T09:06:56Z</time>
      </trkpt>
      <trkpt lat="39.32464" lon="-8.7181">
        <ele>53.49</ele>
        <time>2019-05-14T09:07:13Z</time>
      </trkpt>
      <trkpt lat="39.32485" lon="-8.71818">
        <ele>53.01</ele>
        <time>2019-05-14T09:07:30Z</time>
      </trkpt>
      <trkpt lat="39.32503" lon="-8.71823">
        <ele>53.49</ele>
        <time>2019-05-14T09:07:45Z</time>
      </trkpt>
      <trkpt lat="39.32521" lon="-8.71829">
        <ele>53.97</ele>
        <time>2019-05-14T09:08:00Z</time>
      </trkpt>
      <trkpt lat="39.32539" lon="-8.71837">
        <ele>55.89</ele>
        <time>2019-05-14T09:08:16Z</time>
      </trkpt>
      <trkpt lat="39.32547" lon="-8.71844">
        <ele>57.34</ele>
        <time>2019-05-14T09:08:24Z</time>
      </trkpt>
      <trkpt lat="39.3256" lon="-8.71864">
        <ele>57.82</ele>
        <time>2019-05-14T09:08:41Z</time>
      </trkpt>
      <trkpt lat="39.3257" lon="-8.71881">
        <ele>59.26</ele>
        <time>2019-05-14T09:08:55Z</time>
      </trkpt>
      <trkpt lat="39.32581" lon="-8.71899">
        <ele>59.74</ele>
        <time>2019-05-14T09:09:09Z</time>
      </trkpt>
      <trkpt lat="39.3259" lon="-8.71906">
        <ele>60.7</ele>
        <time>2019-05-14T09:09:23Z</time>
      </trkpt>
      <trkpt lat="39.32591" lon="-8.71907">
        <ele>60.22</ele>
        <time>2019-05-14T09:09:40Z</time>
      </trkpt>
      <trkpt lat="39.32594" lon="-8.71909">
        <ele>60.7</ele>
        <time>2019-05-14T09:09:54Z</time>
      </trkpt>
      <trkpt lat="39.32596" lon="-8.71911">
        <ele>60.22</ele>
        <time>2019-05-14T09:10:08Z</time>
      </trkpt>
      <trkpt lat="39.32607" lon="-8.71922">
        <ele>61.18</ele>
        <time>2019-05-14T09:10:22Z</time>
      </trkpt>
      <trkpt lat="39.32622" lon="-8.7193">
        <ele>61.18</ele>
        <time>2019-05-14T09:10:35Z</time>
      </trkpt>
      <trkpt lat="39.3264" lon="-8.71935">
        <ele>62.14</ele>
        <time>2019-05-14T09:10:50Z</time>
      </trkpt>
      <trkpt lat="39.32657" lon="-8.71944">
        <ele>64.07</ele>
        <time>2019-05-14T09:11:07Z</time>
      </trkpt>
      <trkpt lat="39.32672" lon="-8.71953">
        <ele>65.99</ele>
        <time>2019-05-14T09:11:23Z</time>
      </trkpt>
      <trkpt lat="39.32674" lon="-8.71955">
        <ele>66.47</ele>
        <time>2019-05-14T09:11:25Z</time>
      </trkpt>
      <trkpt lat="39.32676" lon="-8.71962">
        <ele>66.47</ele>
        <time>2019-05-14T09:11:29Z</time>
      </trkpt>
      <trkpt lat="39.32687" lon="-8.7198">
        <ele>66.47</ele>
        <time>2019-05-14T09:11:44Z</time>
      </trkpt>
      <trkpt lat="39.32689" lon="-8.71983">
        <ele>66.95</ele>
        <time>2019-05-14T09:11:47Z</time>
      </trkpt>
      <trkpt lat="39.32692" lon="-8.71988">
        <ele>66.47</ele>
        <time>2019-05-14T09:11:51Z</time>
      </trkpt>
      <trkpt lat="39.32704" lon="-8.72005">
        <ele>67.43</ele>
        <time>2019-05-14T09:12:06Z</time>
      </trkpt>
      <trkpt lat="39.32715" lon="-8.72027">
        <ele>67.91</ele>
        <time>2019-05-14T09:12:21Z</time>
      </trkpt>
      <trkpt lat="39.32723" lon="-8.72041">
        <ele>68.39</ele>
        <time>2019-05-14T09:12:32Z</time>
      </trkpt>
      <trkpt lat="39.32734" lon="-8.72057">
        <ele>68.87</ele>
        <time>2019-05-14T09:12:46Z</time>
      </trkpt>
      <trkpt lat="39.32747" lon="-8.72071">
        <ele>68.87</ele>
        <time>2019-05-14T09:13:00Z</time>
      </trkpt>
      <trkpt lat="39.32758" lon="-8.72076">
        <ele>68.39</ele>
        <time>2019-05-14T09:13:09Z</time>
      </trkpt>
      <trkpt lat="39.32776" lon="-8.72086">
        <ele>69.35</ele>
        <time>2019-05-14T09:13:24Z</time>
      </trkpt>
      <trkpt lat="39.32793" lon="-8.72091">
        <ele>71.27</ele>
        <time>2019-05-14T09:13:40Z</time>
      </trkpt>
      <trkpt lat="39.32809" lon="-8.72087">
        <ele>73.68</ele>
        <time>2019-05-14T09:13:55Z</time>
      </trkpt>
      <trkpt lat="39.32826" lon="-8.72078">
        <ele>74.64</ele>
        <time>2019-05-14T09:14:10Z</time>
      </trkpt>
      <trkpt lat="39.32843" lon="-8.72071">
        <ele>75.12</ele>
        <time>2019-05-14T09:14:25Z</time>
      </trkpt>
      <trkpt lat="39.32851" lon="-8.72069">
        <ele>75.6</ele>
        <time>2019-05-14T09:14:31Z</time>
      </trkpt>
      <trkpt lat="39.32869" lon="-8.72074">
        <ele>77.04</ele>
        <time>2019-05-14T09:14:50Z</time>
      </trkpt>
      <trkpt lat="39.32885" lon="-8.72084">
        <ele>78</ele>
        <time>2019-05-14T09:15:05Z</time>
      </trkpt>
      <trkpt lat="39.329" lon="-8.72095">
        <ele>78.48</ele>
        <time>2019-05-14T09:15:20Z</time>
      </trkpt>
      <trkpt lat="39.32915" lon="-8.72104">
        <ele>81.37</ele>
        <time>2019-05-14T09:15:35Z</time>
      </trkpt>
      <trkpt lat="39.32932" lon="-8.72117">
        <ele>81.85</ele>
        <time>2019-05-14T09:15:51Z</time>
      </trkpt>
      <trkpt lat="39.32951" lon="-8.72125">
        <ele>82.33</ele>
        <time>2019-05-14T09:16:07Z</time>
      </trkpt>
      <trkpt lat="39.32959" lon="-8.72124">
        <ele>82.33</ele>
        <time>2019-05-14T09:16:14Z</time>
      </trkpt>
      <trkpt lat="39.32978" lon="-8.72118">
        <ele>82.81</ele>
        <time>2019-05-14T09:16:29Z</time>
      </trkpt>
      <trkpt lat="39.32998" lon="-8.72107">
        <ele>84.25</ele>
        <time>2019-05-14T09:16:47Z</time>
      </trkpt>
      <trkpt lat="39.33002" lon="-8.72103">
        <ele>84.73</ele>
        <time>2019-05-14T09:16:52Z</time>
      </trkpt>
      <trkpt lat="39.33015" lon="-8.72091">
        <ele>86.18</ele>
        <time>2019-05-14T09:17:06Z</time>
      </trkpt>
      <trkpt lat="39.33022" lon="-8.72083">
        <ele>87.14</ele>
        <time>2019-05-14T09:17:15Z</time>
      </trkpt>
      <trkpt lat="39.33027" lon="-8.72081">
        <ele>87.62</ele>
        <time>2019-05-14T09:17:31Z</time>
      </trkpt>
      <trkpt lat="39.33027" lon="-8.72083">
        <ele>87.14</ele>
        <time>2019-05-14T09:17:57Z</time>
      </trkpt>
      <trkpt lat="39.33026" lon="-8.72083">
        <ele>87.14</ele>
        <time>2019-05-14T09:18:13Z</time>
      </trkpt>
      <trkpt lat="39.33026" lon="-8.72082">
        <ele>87.62</ele>
        <time>2019-05-14T09:18:42Z</time>
      </trkpt>
      <trkpt lat="39.33037" lon="-8.72077">
        <ele>87.62</ele>
        <time>2019-05-14T09:18:56Z</time>
      </trkpt>
      <trkpt lat="39.33054" lon="-8.72067">
        <ele>89.54</ele>
        <time>2019-05-14T09:19:12Z</time>
      </trkpt>
      <trkpt lat="39.33067" lon="-8.72063">
        <ele>90.98</ele>
        <time>2019-05-14T09:19:25Z</time>
      </trkpt>
      <trkpt lat="39.33083" lon="-8.72058">
        <ele>92.9</ele>
        <time>2019-05-14T09:19:40Z</time>
      </trkpt>
      <trkpt lat="39.33092" lon="-8.72056">
        <ele>94.35</ele>
        <time>2019-05-14T09:19:49Z</time>
      </trkpt>
      <trkpt lat="39.33109" lon="-8.72053">
        <ele>96.75</ele>
        <time>2019-05-14T09:20:06Z</time>
      </trkpt>
      <trkpt lat="39.33124" lon="-8.72048">
        <ele>99.15</ele>
        <time>2019-05-14T09:20:23Z</time>
      </trkpt>
      <trkpt lat="39.33138" lon="-8.72043">
        <ele>101.56</ele>
        <time>2019-05-14T09:20:40Z</time>
      </trkpt>
      <trkpt lat="39.33146" lon="-8.72041">
        <ele>102.52</ele>
        <time>2019-05-14T09:20:59Z</time>
      </trkpt>
      <trkpt lat="39.33162" lon="-8.72039">
        <ele>105.4</ele>
        <time>2019-05-14T09:21:15Z</time>
      </trkpt>
      <trkpt lat="39.33176" lon="-8.72041">
        <ele>106.84</ele>
        <time>2019-05-14T09:21:29Z</time>
      </trkpt>
      <trkpt lat="39.33195" lon="-8.7204">
        <ele>107.81</ele>
        <time>2019-05-14T09:21:46Z</time>
      </trkpt>
      <trkpt lat="39.33204" lon="-8.72037">
        <ele>108.29</ele>
        <time>2019-05-14T09:21:54Z</time>
      </trkpt>
      <trkpt lat="39.33216" lon="-8.72023">
        <ele>110.21</ele>
        <time>2019-05-14T09:22:10Z</time>
      </trkpt>
      <trkpt lat="39.33225" lon="-8.72011">
        <ele>112.61</ele>
        <time>2019-05-14T09:22:23Z</time>
      </trkpt>
      <trkpt lat="39.33239" lon="-8.71996">
        <ele>115.5</ele>
        <time>2019-05-14T09:22:41Z</time>
      </trkpt>
      <trkpt lat="39.33249" lon="-8.71984">
        <ele>117.42</ele>
        <time>2019-05-14T09:22:54Z</time>
      </trkpt>
      <trkpt lat="39.3326" lon="-8.71969">
        <ele>119.34</ele>
        <time>2019-05-14T09:23:09Z</time>
      </trkpt>
      <trkpt lat="39.33269" lon="-8.7196">
        <ele>120.3</ele>
        <time>2019-05-14T09:23:20Z</time>
      </trkpt>
      <trkpt lat="39.33275" lon="-8.71959">
        <ele>120.78</ele>
        <time>2019-05-14T09:23:34Z</time>
      </trkpt>
      <trkpt lat="39.33284" lon="-8.71957">
        <ele>121.26</ele>
        <time>2019-05-14T09:23:48Z</time>
      </trkpt>
      <trkpt lat="39.33302" lon="-8.71963">
        <ele>121.26</ele>
        <time>2019-05-14T09:24:04Z</time>
      </trkpt>
      <trkpt lat="39.33319" lon="-8.71967">
        <ele>121.74</ele>
        <time>2019-05-14T09:24:19Z</time>
      </trkpt>
      <trkpt lat="39.3332" lon="-8.71967">
        <ele>121.26</ele>
        <time>2019-05-14T09:24:20Z</time>
      </trkpt>
      <trkpt lat="39.33337" lon="-8.71972">
        <ele>123.67</ele>
        <time>2019-05-14T09:24:35Z</time>
      </trkpt>
      <trkpt lat="39.33354" lon="-8.71977">
        <ele>124.15</ele>
        <time>2019-05-14T09:24:51Z</time>
      </trkpt>
      <trkpt lat="39.33369" lon="-8.71984">
        <ele>123.67</ele>
        <time>2019-05-14T09:25:05Z</time>
      </trkpt>
      <trkpt lat="39.33387" lon="-8.71991">
        <ele>124.63</ele>
        <time>2019-05-14T09:25:20Z</time>
      </trkpt>
      <trkpt lat="39.33406" lon="-8.72004">
        <ele>124.15</ele>
        <time>2019-05-14T09:25:38Z</time>
      </trkpt>
      <trkpt lat="39.33423" lon="-8.72015">
        <ele>124.63</ele>
        <time>2019-05-14T09:25:54Z</time>
      </trkpt>
      <trkpt lat="39.3344" lon="-8.72023">
        <ele>125.59</ele>
        <time>2019-05-14T09:26:09Z</time>
      </trkpt>
      <trkpt lat="39.33458" lon="-8.72026">
        <ele>126.55</ele>
        <time>2019-05-14T09:26:24Z</time>
      </trkpt>
      <trkpt lat="39.33474" lon="-8.72027">
        <ele>126.55</ele>
        <time>2019-05-14T09:26:38Z</time>
      </trkpt>
      <trkpt lat="39.33488" lon="-8.72024">
        <ele>127.51</ele>
        <time>2019-05-14T09:26:54Z</time>
      </trkpt>
      <trkpt lat="39.33495" lon="-8.72022">
        <ele>127.51</ele>
        <time>2019-05-14T09:27:07Z</time>
      </trkpt>
      <trkpt lat="39.33507" lon="-8.72018">
        <ele>127.99</ele>
        <time>2019-05-14T09:27:25Z</time>
      </trkpt>
      <trkpt lat="39.33525" lon="-8.72015">
        <ele>129.43</ele>
        <time>2019-05-14T09:27:40Z</time>
      </trkpt>
      <trkpt lat="39.33538" lon="-8.72014">
        <ele>130.88</ele>
        <time>2019-05-14T09:27:54Z</time>
      </trkpt>
      <trkpt lat="39.33546" lon="-8.72009">
        <ele>130.88</ele>
        <time>2019-05-14T09:28:06Z</time>
      </trkpt>
      <trkpt lat="39.33565" lon="-8.72003">
        <ele>131.84</ele>
        <time>2019-05-14T09:28:23Z</time>
      </trkpt>
      <trkpt lat="39.33568" lon="-8.72">
        <ele>131.84</ele>
        <time>2019-05-14T09:28:37Z</time>
      </trkpt>
      <trkpt lat="39.33584" lon="-8.71991">
        <ele>132.8</ele>
        <time>2019-05-14T09:28:54Z</time>
      </trkpt>
      <trkpt lat="39.33602" lon="-8.71978">
        <ele>134.24</ele>
        <time>2019-05-14T09:29:11Z</time>
      </trkpt>
      <trkpt lat="39.33618" lon="-8.71969">
        <ele>133.76</ele>
        <time>2019-05-14T09:29:26Z</time>
      </trkpt>
      <trkpt lat="39.33635" lon="-8.71958">
        <ele>133.76</ele>
        <time>2019-05-14T09:29:42Z</time>
      </trkpt>
      <trkpt lat="39.33651" lon="-8.71947">
        <ele>133.76</ele>
        <time>2019-05-14T09:29:58Z</time>
      </trkpt>
      <trkpt lat="39.33669" lon="-8.71937">
        <ele>133.28</ele>
        <time>2019-05-14T09:30:14Z</time>
      </trkpt>
      <trkpt lat="39.33688" lon="-8.71928">
        <ele>133.28</ele>
        <time>2019-05-14T09:30:31Z</time>
      </trkpt>
      <trkpt lat="39.33705" lon="-8.71921">
        <ele>133.28</ele>
        <time>2019-05-14T09:30:46Z</time>
      </trkpt>
      <trkpt lat="39.33716" lon="-8.71915">
        <ele>133.28</ele>
        <time>2019-05-14T09:30:56Z</time>
      </trkpt>
      <trkpt lat="39.33731" lon="-8.71901">
        <ele>133.28</ele>
        <time>2019-05-14T09:31:12Z</time>
      </trkpt>
      <trkpt lat="39.33747" lon="-8.7189">
        <ele>133.76</ele>
        <time>2019-05-14T09:31:27Z</time>
      </trkpt>
      <trkpt lat="39.33761" lon="-8.71874">
        <ele>134.24</ele>
        <time>2019-05-14T09:31:42Z</time>
      </trkpt>
      <trkpt lat="39.33777" lon="-8.71857">
        <ele>135.2</ele>
        <time>2019-05-14T09:31:59Z</time>
      </trkpt>
      <trkpt lat="39.33793" lon="-8.71843">
        <ele>135.2</ele>
        <time>2019-05-14T09:32:15Z</time>
      </trkpt>
      <trkpt lat="39.33813" lon="-8.71834">
        <ele>135.2</ele>
        <time>2019-05-14T09:32:31Z</time>
      </trkpt>
      <trkpt lat="39.33831" lon="-8.71823">
        <ele>134.72</ele>
        <time>2019-05-14T09:32:48Z</time>
      </trkpt>
      <trkpt lat="39.33845" lon="-8.71815">
        <ele>134.72</ele>
        <time>2019-05-14T09:33:00Z</time>
      </trkpt>
      <trkpt lat="39.33865" lon="-8.71805">
        <ele>134.72</ele>
        <time>2019-05-14T09:33:18Z</time>
      </trkpt>
      <trkpt lat="39.33882" lon="-8.71794">
        <ele>135.2</ele>
        <time>2019-05-14T09:33:34Z</time>
      </trkpt>
      <trkpt lat="39.33902" lon="-8.71785">
        <ele>136.16</ele>
        <time>2019-05-14T09:33:52Z</time>
      </trkpt>
      <trkpt lat="39.33918" lon="-8.71775">
        <ele>136.16</ele>
        <time>2019-05-14T09:34:07Z</time>
      </trkpt>
      <trkpt lat="39.33932" lon="-8.71771">
        <ele>137.13</ele>
        <time>2019-05-14T09:34:23Z</time>
      </trkpt>
      <trkpt lat="39.33936" lon="-8.71766">
        <ele>137.13</ele>
        <time>2019-05-14T09:34:35Z</time>
      </trkpt>
      <trkpt lat="39.3394" lon="-8.71767">
        <ele>137.13</ele>
        <time>2019-05-14T09:34:49Z</time>
      </trkpt>
      <trkpt lat="39.33952" lon="-8.71762">
        <ele>137.61</ele>
        <time>2019-05-14T09:35:02Z</time>
      </trkpt>
      <trkpt lat="39.33967" lon="-8.71757">
        <ele>137.61</ele>
        <time>2019-05-14T09:35:16Z</time>
      </trkpt>
      <trkpt lat="39.33977" lon="-8.71752">
        <ele>137.13</ele>
        <time>2019-05-14T09:35:30Z</time>
      </trkpt>
      <trkpt lat="39.33996" lon="-8.71744">
        <ele>138.09</ele>
        <time>2019-05-14T09:35:46Z</time>
      </trkpt>
      <trkpt lat="39.34015" lon="-8.71737">
        <ele>138.09</ele>
        <time>2019-05-14T09:36:03Z</time>
      </trkpt>
      <trkpt lat="39.3402" lon="-8.71735">
        <ele>138.09</ele>
        <time>2019-05-14T09:36:17Z</time>
      </trkpt>
      <trkpt lat="39.34022" lon="-8.71733">
        <ele>138.57</ele>
        <time>2019-05-14T09:36:37Z</time>
      </trkpt>
      <trkpt lat="39.34026" lon="-8.71732">
        <ele>138.57</ele>
        <time>2019-05-14T09:36:57Z</time>
      </trkpt>
      <trkpt lat="39.34033" lon="-8.71732">
        <ele>138.09</ele>
        <time>2019-05-14T09:37:20Z</time>
      </trkpt>
      <trkpt lat="39.34038" lon="-8.71731">
        <ele>138.57</ele>
        <time>2019-05-14T09:37:24Z</time>
      </trkpt>
      <trkpt lat="39.34055" lon="-8.71728">
        <ele>139.05</ele>
        <time>2019-05-14T09:37:39Z</time>
      </trkpt>
      <trkpt lat="39.34074" lon="-8.71725">
        <ele>139.53</ele>
        <time>2019-05-14T09:37:54Z</time>
      </trkpt>
      <trkpt lat="39.34092" lon="-8.7172">
        <ele>140.01</ele>
        <time>2019-05-14T09:38:11Z</time>
      </trkpt>
      <trkpt lat="39.34097" lon="-8.7172">
        <ele>140.49</ele>
        <time>2019-05-14T09:38:32Z</time>
      </trkpt>
      <trkpt lat="39.3411" lon="-8.71722">
        <ele>140.49</ele>
        <time>2019-05-14T09:38:45Z</time>
      </trkpt>
      <trkpt lat="39.34128" lon="-8.71719">
        <ele>140.49</ele>
        <time>2019-05-14T09:39:01Z</time>
      </trkpt>
      <trkpt lat="39.34147" lon="-8.71716">
        <ele>140.97</ele>
        <time>2019-05-14T09:39:15Z</time>
      </trkpt>
      <trkpt lat="39.34165" lon="-8.71717">
        <ele>140.01</ele>
        <time>2019-05-14T09:39:31Z</time>
      </trkpt>
      <trkpt lat="39.34183" lon="-8.71714">
        <ele>140.49</ele>
        <time>2019-05-14T09:39:45Z</time>
      </trkpt>
      <trkpt lat="39.34199" lon="-8.71714">
        <ele>141.45</ele>
        <time>2019-05-14T09:39:58Z</time>
      </trkpt>
      <trkpt lat="39.34216" lon="-8.71714">
        <ele>141.45</ele>
        <time>2019-05-14T09:40:13Z</time>
      </trkpt>
      <trkpt lat="39.34237" lon="-8.71712">
        <ele>140.97</ele>
        <time>2019-05-14T09:40:30Z</time>
      </trkpt>
      <trkpt lat="39.34254" lon="-8.71714">
        <ele>140.97</ele>
        <time>2019-05-14T09:40:46Z</time>
      </trkpt>
      <trkpt lat="39.34251" lon="-8.71712">
        <ele>141.45</ele>
        <time>2019-05-14T09:41:01Z</time>
      </trkpt>
      <trkpt lat="39.34262" lon="-8.71713">
        <ele>140.49</ele>
        <time>2019-05-14T09:41:17Z</time>
      </trkpt>
      <trkpt lat="39.34273" lon="-8.71712">
        <ele>141.45</ele>
        <time>2019-05-14T09:41:27Z</time>
      </trkpt>
      <trkpt lat="39.34292" lon="-8.71716">
        <ele>140.97</ele>
        <time>2019-05-14T09:41:44Z</time>
      </trkpt>
      <trkpt lat="39.34298" lon="-8.71716">
        <ele>140.97</ele>
        <time>2019-05-14T09:41:59Z</time>
      </trkpt>
      <trkpt lat="39.34314" lon="-8.71719">
        <ele>140.97</ele>
        <time>2019-05-14T09:42:14Z</time>
      </trkpt>
      <trkpt lat="39.34335" lon="-8.71722">
        <ele>140.97</ele>
        <time>2019-05-14T09:42:32Z</time>
      </trkpt>
      <trkpt lat="39.34354" lon="-8.71727">
        <ele>140.49</ele>
        <time>2019-05-14T09:42:47Z</time>
      </trkpt>
      <trkpt lat="39.34367" lon="-8.71727">
        <ele>140.01</ele>
        <time>2019-05-14T09:42:58Z</time>
      </trkpt>
      <trkpt lat="39.34386" lon="-8.7173">
        <ele>141.93</ele>
        <time>2019-05-14T09:43:13Z</time>
      </trkpt>
      <trkpt lat="39.34405" lon="-8.71735">
        <ele>141.93</ele>
        <time>2019-05-14T09:43:29Z</time>
      </trkpt>
      <trkpt lat="39.34428" lon="-8.71738">
        <ele>141.93</ele>
        <time>2019-05-14T09:43:48Z</time>
      </trkpt>
      <trkpt lat="39.34447" lon="-8.71739">
        <ele>142.41</ele>
        <time>2019-05-14T09:44:04Z</time>
      </trkpt>
      <trkpt lat="39.34466" lon="-8.71736">
        <ele>142.89</ele>
        <time>2019-05-14T09:44:20Z</time>
      </trkpt>
      <trkpt lat="39.34484" lon="-8.71736">
        <ele>143.37</ele>
        <time>2019-05-14T09:44:35Z</time>
      </trkpt>
      <trkpt lat="39.34506" lon="-8.71734">
        <ele>143.37</ele>
        <time>2019-05-14T09:44:52Z</time>
      </trkpt>
      <trkpt lat="39.34526" lon="-8.71733">
        <ele>143.37</ele>
        <time>2019-05-14T09:45:08Z</time>
      </trkpt>
      <trkpt lat="39.34542" lon="-8.71735">
        <ele>143.85</ele>
        <time>2019-05-14T09:45:22Z</time>
      </trkpt>
      <trkpt lat="39.34551" lon="-8.71736">
        <ele>143.85</ele>
        <time>2019-05-14T09:45:37Z</time>
      </trkpt>
      <trkpt lat="39.34559" lon="-8.71738">
        <ele>144.34</ele>
        <time>2019-05-14T09:45:48Z</time>
      </trkpt>
      <trkpt lat="39.34572" lon="-8.71739">
        <ele>144.34</ele>
        <time>2019-05-14T09:46:01Z</time>
      </trkpt>
      <trkpt lat="39.34592" lon="-8.71742">
        <ele>144.82</ele>
        <time>2019-05-14T09:46:17Z</time>
      </trkpt>
      <trkpt lat="39.34613" lon="-8.71744">
        <ele>145.78</ele>
        <time>2019-05-14T09:46:34Z</time>
      </trkpt>
      <trkpt lat="39.34633" lon="-8.71747">
        <ele>145.78</ele>
        <time>2019-05-14T09:46:50Z</time>
      </trkpt>
      <trkpt lat="39.34657" lon="-8.71749">
        <ele>146.26</ele>
        <time>2019-05-14T09:47:09Z</time>
      </trkpt>
      <trkpt lat="39.34678" lon="-8.71752">
        <ele>146.74</ele>
        <time>2019-05-14T09:47:26Z</time>
      </trkpt>
      <trkpt lat="39.34697" lon="-8.71753">
        <ele>148.18</ele>
        <time>2019-05-14T09:47:41Z</time>
      </trkpt>
      <trkpt lat="39.34716" lon="-8.71754">
        <ele>148.18</ele>
        <time>2019-05-14T09:47:57Z</time>
      </trkpt>
      <trkpt lat="39.34734" lon="-8.71752">
        <ele>149.62</ele>
        <time>2019-05-14T09:48:12Z</time>
      </trkpt>
      <trkpt lat="39.34751" lon="-8.71744">
        <ele>149.62</ele>
        <time>2019-05-14T09:48:26Z</time>
      </trkpt>
      <trkpt lat="39.34775" lon="-8.71731">
        <ele>150.1</ele>
        <time>2019-05-14T09:48:47Z</time>
      </trkpt>
      <trkpt lat="39.34793" lon="-8.7172">
        <ele>150.58</ele>
        <time>2019-05-14T09:49:03Z</time>
      </trkpt>
      <trkpt lat="39.34811" lon="-8.71711">
        <ele>150.1</ele>
        <time>2019-05-14T09:49:19Z</time>
      </trkpt>
      <trkpt lat="39.34832" lon="-8.71701">
        <ele>149.62</ele>
        <time>2019-05-14T09:49:37Z</time>
      </trkpt>
      <trkpt lat="39.34841" lon="-8.717">
        <ele>150.1</ele>
        <time>2019-05-14T09:49:49Z</time>
      </trkpt>
      <trkpt lat="39.34852" lon="-8.71699">
        <ele>150.1</ele>
        <time>2019-05-14T09:50:00Z</time>
      </trkpt>
      <trkpt lat="39.34864" lon="-8.71685">
        <ele>150.1</ele>
        <time>2019-05-14T09:50:16Z</time>
      </trkpt>
      <trkpt lat="39.34868" lon="-8.71682">
        <ele>150.58</ele>
        <time>2019-05-14T09:50:30Z</time>
      </trkpt>
      <trkpt lat="39.3487" lon="-8.71678">
        <ele>150.1</ele>
        <time>2019-05-14T09:50:34Z</time>
      </trkpt>
      <trkpt lat="39.3488" lon="-8.71665">
        <ele>149.62</ele>
        <time>2019-05-14T09:50:47Z</time>
      </trkpt>
      <trkpt lat="39.34893" lon="-8.71649">
        <ele>149.14</ele>
        <time>2019-05-14T09:51:02Z</time>
      </trkpt>
      <trkpt lat="39.34906" lon="-8.71629">
        <ele>148.66</ele>
        <time>2019-05-14T09:51:20Z</time>
      </trkpt>
      <trkpt lat="39.34916" lon="-8.71616">
        <ele>148.18</ele>
        <time>2019-05-14T09:51:33Z</time>
      </trkpt>
      <trkpt lat="39.34928" lon="-8.71599">
        <ele>148.66</ele>
        <time>2019-05-14T09:51:48Z</time>
      </trkpt>
      <trkpt lat="39.3494" lon="-8.71577">
        <ele>147.7</ele>
        <time>2019-05-14T09:52:05Z</time>
      </trkpt>
      <trkpt lat="39.34942" lon="-8.71552">
        <ele>148.18</ele>
        <time>2019-05-14T09:52:22Z</time>
      </trkpt>
      <trkpt lat="39.34949" lon="-8.71526">
        <ele>146.74</ele>
        <time>2019-05-14T09:52:40Z</time>
      </trkpt>
      <trkpt lat="39.34958" lon="-8.71507">
        <ele>145.78</ele>
        <time>2019-05-14T09:52:54Z</time>
      </trkpt>
      <trkpt lat="39.3497" lon="-8.71486">
        <ele>144.82</ele>
        <time>2019-05-14T09:53:11Z</time>
      </trkpt>
      <trkpt lat="39.34983" lon="-8.71464">
        <ele>143.37</ele>
        <time>2019-05-14T09:53:29Z</time>
      </trkpt>
      <trkpt lat="39.34995" lon="-8.71442">
        <ele>140.49</ele>
        <time>2019-05-14T09:53:46Z</time>
      </trkpt>
      <trkpt lat="39.35003" lon="-8.71424">
        <ele>137.61</ele>
        <time>2019-05-14T09:54:01Z</time>
      </trkpt>
      <trkpt lat="39.35005" lon="-8.71418">
        <ele>136.64</ele>
        <time>2019-05-14T09:54:06Z</time>
      </trkpt>
      <trkpt lat="39.35008" lon="-8.7141">
        <ele>135.68</ele>
        <time>2019-05-14T09:54:12Z</time>
      </trkpt>
      <trkpt lat="39.35013" lon="-8.71396">
        <ele>133.28</ele>
        <time>2019-05-14T09:54:26Z</time>
      </trkpt>
      <trkpt lat="39.3502" lon="-8.71382">
        <ele>129.92</ele>
        <time>2019-05-14T09:54:38Z</time>
      </trkpt>
      <trkpt lat="39.35026" lon="-8.71368">
        <ele>127.03</ele>
        <time>2019-05-14T09:54:50Z</time>
      </trkpt>
      <trkpt lat="39.35029" lon="-8.71364">
        <ele>125.59</ele>
        <time>2019-05-14T09:54:54Z</time>
      </trkpt>
      <trkpt lat="39.35036" lon="-8.71349">
        <ele>124.15</ele>
        <time>2019-05-14T09:55:05Z</time>
      </trkpt>
      <trkpt lat="39.35038" lon="-8.71348">
        <ele>123.67</ele>
        <time>2019-05-14T09:55:07Z</time>
      </trkpt>
      <trkpt lat="39.35042" lon="-8.71338">
        <ele>122.22</ele>
        <time>2019-05-14T09:55:15Z</time>
      </trkpt>
      <trkpt lat="39.35041" lon="-8.71319">
        <ele>118.38</ele>
        <time>2019-05-14T09:55:28Z</time>
      </trkpt>
      <trkpt lat="39.35039" lon="-8.71307">
        <ele>117.42</ele>
        <time>2019-05-14T09:55:44Z</time>
      </trkpt>
      <trkpt lat="39.35031" lon="-8.71302">
        <ele>115.98</ele>
        <time>2019-05-14T09:55:55Z</time>
      </trkpt>
      <trkpt lat="39.35028" lon="-8.71296">
        <ele>115.5</ele>
        <time>2019-05-14T09:56:00Z</time>
      </trkpt>
      <trkpt lat="39.35016" lon="-8.71279">
        <ele>113.09</ele>
        <time>2019-05-14T09:56:15Z</time>
      </trkpt>
      <trkpt lat="39.35011" lon="-8.71267">
        <ele>113.57</ele>
        <time>2019-05-14T09:56:28Z</time>
      </trkpt>
      <trkpt lat="39.35012" lon="-8.7125">
        <ele>111.17</ele>
        <time>2019-05-14T09:56:41Z</time>
      </trkpt>
      <trkpt lat="39.35016" lon="-8.71243">
        <ele>109.73</ele>
        <time>2019-05-14T09:56:47Z</time>
      </trkpt>
      <trkpt lat="39.35024" lon="-8.71243">
        <ele>108.29</ele>
        <time>2019-05-14T09:56:55Z</time>
      </trkpt>
      <trkpt lat="39.35035" lon="-8.71241">
        <ele>107.32</ele>
        <time>2019-05-14T09:57:03Z</time>
      </trkpt>
      <trkpt lat="39.35048" lon="-8.71226">
        <ele>105.88</ele>
        <time>2019-05-14T09:57:19Z</time>
      </trkpt>
      <trkpt lat="39.35049" lon="-8.71224">
        <ele>105.88</ele>
        <time>2019-05-14T09:57:21Z</time>
      </trkpt>
      <trkpt lat="39.35052" lon="-8.71214">
        <ele>104.92</ele>
        <time>2019-05-14T09:57:27Z</time>
      </trkpt>
      <trkpt lat="39.35053" lon="-8.71211">
        <ele>105.4</ele>
        <time>2019-05-14T09:57:29Z</time>
      </trkpt>
      <trkpt lat="39.35063" lon="-8.71197">
        <ele>104.44</ele>
        <time>2019-05-14T09:57:40Z</time>
      </trkpt>
      <trkpt lat="39.35077" lon="-8.71179">
        <ele>104.92</ele>
        <time>2019-05-14T09:57:56Z</time>
      </trkpt>
      <trkpt lat="39.35088" lon="-8.7117">
        <ele>105.4</ele>
        <time>2019-05-14T09:58:07Z</time>
      </trkpt>
      <trkpt lat="39.35095" lon="-8.71165">
        <ele>105.88</ele>
        <time>2019-05-14T09:58:15Z</time>
      </trkpt>
      <trkpt lat="39.351" lon="-8.71162">
        <ele>106.36</ele>
        <time>2019-05-14T09:58:20Z</time>
      </trkpt>
      <trkpt lat="39.35115" lon="-8.71152">
        <ele>107.32</ele>
        <time>2019-05-14T09:58:35Z</time>
      </trkpt>
      <trkpt lat="39.35127" lon="-8.71142">
        <ele>109.25</ele>
        <time>2019-05-14T09:58:47Z</time>
      </trkpt>
      <trkpt lat="39.35134" lon="-8.71136">
        <ele>109.73</ele>
        <time>2019-05-14T09:58:56Z</time>
      </trkpt>
      <trkpt lat="39.35139" lon="-8.71127">
        <ele>110.69</ele>
        <time>2019-05-14T09:59:04Z</time>
      </trkpt>
      <trkpt lat="39.35143" lon="-8.71122">
        <ele>111.65</ele>
        <time>2019-05-14T09:59:09Z</time>
      </trkpt>
      <trkpt lat="39.35157" lon="-8.71113">
        <ele>113.09</ele>
        <time>2019-05-14T09:59:24Z</time>
      </trkpt>
      <trkpt lat="39.35171" lon="-8.71114">
        <ele>114.53</ele>
        <time>2019-05-14T09:59:39Z</time>
      </trkpt>
      <trkpt lat="39.35184" lon="-8.71119">
        <ele>114.53</ele>
        <time>2019-05-14T09:59:53Z</time>
      </trkpt>
      <trkpt lat="39.35201" lon="-8.71118">
        <ele>115.01</ele>
        <time>2019-05-14T10:00:08Z</time>
      </trkpt>
      <trkpt lat="39.35213" lon="-8.71118">
        <ele>115.5</ele>
        <time>2019-05-14T10:00:19Z</time>
      </trkpt>
      <trkpt lat="39.35228" lon="-8.71119">
        <ele>116.46</ele>
        <time>2019-05-14T10:00:32Z</time>
      </trkpt>
      <trkpt lat="39.3523" lon="-8.71121">
        <ele>117.42</ele>
        <time>2019-05-14T10:00:47Z</time>
      </trkpt>
      <trkpt lat="39.3523" lon="-8.71122">
        <ele>116.94</ele>
        <time>2019-05-14T10:01:00Z</time>
      </trkpt>
      <trkpt lat="39.35232" lon="-8.71122">
        <ele>116.94</ele>
        <time>2019-05-14T10:01:02Z</time>
      </trkpt>
      <trkpt lat="39.35234" lon="-8.71121">
        <ele>116.94</ele>
        <time>2019-05-14T10:01:04Z</time>
      </trkpt>
      <trkpt lat="39.3525" lon="-8.71122">
        <ele>117.9</ele>
        <time>2019-05-14T10:01:18Z</time>
      </trkpt>
      <trkpt lat="39.35266" lon="-8.71126">
        <ele>119.34</ele>
        <time>2019-05-14T10:01:33Z</time>
      </trkpt>
      <trkpt lat="39.35281" lon="-8.7113">
        <ele>121.26</ele>
        <time>2019-05-14T10:01:48Z</time>
      </trkpt>
      <trkpt lat="39.35288" lon="-8.71127">
        <ele>120.78</ele>
        <time>2019-05-14T10:01:56Z</time>
      </trkpt>
      <trkpt lat="39.3529" lon="-8.71109">
        <ele>122.22</ele>
        <time>2019-05-14T10:02:09Z</time>
      </trkpt>
      <trkpt lat="39.35288" lon="-8.71088">
        <ele>122.71</ele>
        <time>2019-05-14T10:02:24Z</time>
      </trkpt>
      <trkpt lat="39.35289" lon="-8.71067">
        <ele>123.67</ele>
        <time>2019-05-14T10:02:38Z</time>
      </trkpt>
      <trkpt lat="39.35288" lon="-8.71057">
        <ele>124.15</ele>
        <time>2019-05-14T10:02:46Z</time>
      </trkpt>
      <trkpt lat="39.35277" lon="-8.71046">
        <ele>123.67</ele>
        <time>2019-05-14T10:03:00Z</time>
      </trkpt>
      <trkpt lat="39.35274" lon="-8.71043">
        <ele>124.15</ele>
        <time>2019-05-14T10:03:13Z</time>
      </trkpt>
      <trkpt lat="39.35274" lon="-8.71043">
        <ele>124.15</ele>
        <time>2019-05-14T10:03:28Z</time>
      </trkpt>
      <trkpt lat="39.35274" lon="-8.71046">
        <ele>124.15</ele>
        <time>2019-05-14T10:03:51Z</time>
      </trkpt>
      <trkpt lat="39.35277" lon="-8.71046">
        <ele>123.67</ele>
        <time>2019-05-14T10:04:09Z</time>
      </trkpt>
      <trkpt lat="39.35261" lon="-8.7105">
        <ele>123.67</ele>
        <time>2019-05-14T10:04:37Z</time>
      </trkpt>
      <trkpt lat="39.35265" lon="-8.71049">
        <ele>123.67</ele>
        <time>2019-05-14T10:05:02Z</time>
      </trkpt>
      <trkpt lat="39.3527" lon="-8.71049">
        <ele>123.67</ele>
        <time>2019-05-14T10:05:28Z</time>
      </trkpt>
      <trkpt lat="39.35276" lon="-8.71046">
        <ele>123.67</ele>
        <time>2019-05-14T10:06:01Z</time>
      </trkpt>
      <trkpt lat="39.35278" lon="-8.71045">
        <ele>123.67</ele>
        <time>2019-05-14T10:06:33Z</time>
      </trkpt>
      <trkpt lat="39.35277" lon="-8.71049">
        <ele>123.67</ele>
        <time>2019-05-14T10:07:10Z</time>
      </trkpt>
      <trkpt lat="39.35276" lon="-8.71045">
        <ele>124.15</ele>
        <time>2019-05-14T10:07:40Z</time>
      </trkpt>
      <trkpt lat="39.35275" lon="-8.71051">
        <ele>123.67</ele>
        <time>2019-05-14T10:08:06Z</time>
      </trkpt>
      <trkpt lat="39.35271" lon="-8.71053">
        <ele>123.19</ele>
        <time>2019-05-14T10:08:41Z</time>
      </trkpt>
      <trkpt lat="39.3527" lon="-8.71054">
        <ele>123.67</ele>
        <time>2019-05-14T10:09:11Z</time>
      </trkpt>
      <trkpt lat="39.35265" lon="-8.71061">
        <ele>123.19</ele>
        <time>2019-05-14T10:09:44Z</time>
      </trkpt>
      <trkpt lat="39.35258" lon="-8.71066">
        <ele>122.71</ele>
        <time>2019-05-14T10:10:13Z</time>
      </trkpt>
      <trkpt lat="39.35257" lon="-8.71059">
        <ele>122.22</ele>
        <time>2019-05-14T10:10:44Z</time>
      </trkpt>
      <trkpt lat="39.35257" lon="-8.71057">
        <ele>122.22</ele>
        <time>2019-05-14T10:11:14Z</time>
      </trkpt>
      <trkpt lat="39.35269" lon="-8.7105">
        <ele>121.74</ele>
        <time>2019-05-14T10:11:57Z</time>
      </trkpt>
      <trkpt lat="39.35266" lon="-8.71053">
        <ele>121.74</ele>
        <time>2019-05-14T10:12:34Z</time>
      </trkpt>
      <trkpt lat="39.35262" lon="-8.71054">
        <ele>120.78</ele>
        <time>2019-05-14T10:13:05Z</time>
      </trkpt>
      <trkpt lat="39.35271" lon="-8.71044">
        <ele>121.74</ele>
        <time>2019-05-14T10:13:28Z</time>
      </trkpt>
      <trkpt lat="39.35275" lon="-8.71043">
        <ele>121.26</ele>
        <time>2019-05-14T10:13:53Z</time>
      </trkpt>
      <trkpt lat="39.35276" lon="-8.71042">
        <ele>121.74</ele>
        <time>2019-05-14T10:14:22Z</time>
      </trkpt>
      <trkpt lat="39.35274" lon="-8.71047">
        <ele>121.26</ele>
        <time>2019-05-14T10:14:49Z</time>
      </trkpt>
      <trkpt lat="39.35273" lon="-8.71045">
        <ele>121.26</ele>
        <time>2019-05-14T10:15:18Z</time>
      </trkpt>
      <trkpt lat="39.35272" lon="-8.71045">
        <ele>122.22</ele>
        <time>2019-05-14T10:15:42Z</time>
      </trkpt>
      <trkpt lat="39.35274" lon="-8.71045">
        <ele>122.71</ele>
        <time>2019-05-14T10:16:11Z</time>
      </trkpt>
      <trkpt lat="39.35275" lon="-8.71045">
        <ele>122.22</ele>
        <time>2019-05-14T10:16:31Z</time>
      </trkpt>
      <trkpt lat="39.35278" lon="-8.71042">
        <ele>122.71</ele>
        <time>2019-05-14T10:16:50Z</time>
      </trkpt>
      <trkpt lat="39.35276" lon="-8.71039">
        <ele>122.22</ele>
        <time>2019-05-14T10:17:09Z</time>
      </trkpt>
      <trkpt lat="39.35277" lon="-8.71044">
        <ele>123.19</ele>
        <time>2019-05-14T10:17:28Z</time>
      </trkpt>
      <trkpt lat="39.35279" lon="-8.71047">
        <ele>122.71</ele>
        <time>2019-05-14T10:17:31Z</time>
      </trkpt>
      <trkpt lat="39.35285" lon="-8.71057">
        <ele>122.71</ele>
        <time>2019-05-14T10:17:47Z</time>
      </trkpt>
      <trkpt lat="39.35286" lon="-8.71059">
        <ele>122.71</ele>
        <time>2019-05-14T10:17:49Z</time>
      </trkpt>
      <trkpt lat="39.35286" lon="-8.71066">
        <ele>122.71</ele>
        <time>2019-05-14T10:17:54Z</time>
      </trkpt>
      <trkpt lat="39.35287" lon="-8.71069">
        <ele>122.71</ele>
        <time>2019-05-14T10:17:57Z</time>
      </trkpt>
      <trkpt lat="39.35287" lon="-8.71076">
        <ele>122.22</ele>
        <time>2019-05-14T10:18:03Z</time>
      </trkpt>
      <trkpt lat="39.35286" lon="-8.71079">
        <ele>122.22</ele>
        <time>2019-05-14T10:18:06Z</time>
      </trkpt>
      <trkpt lat="39.3529" lon="-8.71099">
        <ele>120.3</ele>
        <time>2019-05-14T10:18:21Z</time>
      </trkpt>
      <trkpt lat="39.35289" lon="-8.71125">
        <ele>120.3</ele>
        <time>2019-05-14T10:18:36Z</time>
      </trkpt>
      <trkpt lat="39.35296" lon="-8.71138">
        <ele>120.3</ele>
        <time>2019-05-14T10:18:48Z</time>
      </trkpt>
      <trkpt lat="39.35297" lon="-8.71138">
        <ele>120.78</ele>
        <time>2019-05-14T10:18:49Z</time>
      </trkpt>
      <trkpt lat="39.35307" lon="-8.71138">
        <ele>121.74</ele>
        <time>2019-05-14T10:18:58Z</time>
      </trkpt>
      <trkpt lat="39.35323" lon="-8.71141">
        <ele>122.71</ele>
        <time>2019-05-14T10:19:12Z</time>
      </trkpt>
      <trkpt lat="39.35326" lon="-8.7114">
        <ele>122.22</ele>
        <time>2019-05-14T10:19:15Z</time>
      </trkpt>
      <trkpt lat="39.35339" lon="-8.71129">
        <ele>123.19</ele>
        <time>2019-05-14T10:19:27Z</time>
      </trkpt>
      <trkpt lat="39.35341" lon="-8.71126">
        <ele>123.67</ele>
        <time>2019-05-14T10:19:30Z</time>
      </trkpt>
      <trkpt lat="39.35345" lon="-8.71122">
        <ele>124.15</ele>
        <time>2019-05-14T10:19:35Z</time>
      </trkpt>
      <trkpt lat="39.35349" lon="-8.71121">
        <ele>123.67</ele>
        <time>2019-05-14T10:19:39Z</time>
      </trkpt>
      <trkpt lat="39.35365" lon="-8.71129">
        <ele>123.19</ele>
        <time>2019-05-14T10:19:54Z</time>
      </trkpt>
      <trkpt lat="39.35367" lon="-8.7113">
        <ele>123.67</ele>
        <time>2019-05-14T10:19:56Z</time>
      </trkpt>
      <trkpt lat="39.35381" lon="-8.71135">
        <ele>123.19</ele>
        <time>2019-05-14T10:20:08Z</time>
      </trkpt>
      <trkpt lat="39.3539" lon="-8.71137">
        <ele>122.22</ele>
        <time>2019-05-14T10:20:16Z</time>
      </trkpt>
      <trkpt lat="39.35401" lon="-8.71143">
        <ele>121.26</ele>
        <time>2019-05-14T10:20:26Z</time>
      </trkpt>
      <trkpt lat="39.35408" lon="-8.71148">
        <ele>120.3</ele>
        <time>2019-05-14T10:20:37Z</time>
      </trkpt>
      <trkpt lat="39.35411" lon="-8.71149">
        <ele>119.82</ele>
        <time>2019-05-14T10:20:40Z</time>
      </trkpt>
      <trkpt lat="39.35426" lon="-8.71155">
        <ele>118.86</ele>
        <time>2019-05-14T10:20:53Z</time>
      </trkpt>
      <trkpt lat="39.3543" lon="-8.71157">
        <ele>118.86</ele>
        <time>2019-05-14T10:20:57Z</time>
      </trkpt>
      <trkpt lat="39.35447" lon="-8.71163">
        <ele>119.82</ele>
        <time>2019-05-14T10:21:13Z</time>
      </trkpt>
      <trkpt lat="39.35449" lon="-8.71165">
        <ele>120.3</ele>
        <time>2019-05-14T10:21:15Z</time>
      </trkpt>
      <trkpt lat="39.35455" lon="-8.7117">
        <ele>120.3</ele>
        <time>2019-05-14T10:21:21Z</time>
      </trkpt>
      <trkpt lat="39.35469" lon="-8.71177">
        <ele>122.22</ele>
        <time>2019-05-14T10:21:35Z</time>
      </trkpt>
      <trkpt lat="39.35471" lon="-8.71177">
        <ele>122.22</ele>
        <time>2019-05-14T10:21:37Z</time>
      </trkpt>
      <trkpt lat="39.35482" lon="-8.71181">
        <ele>123.19</ele>
        <time>2019-05-14T10:21:47Z</time>
      </trkpt>
      <trkpt lat="39.35492" lon="-8.71183">
        <ele>123.19</ele>
        <time>2019-05-14T10:21:56Z</time>
      </trkpt>
      <trkpt lat="39.35502" lon="-8.71183">
        <ele>123.19</ele>
        <time>2019-05-14T10:22:09Z</time>
      </trkpt>
      <trkpt lat="39.35519" lon="-8.71181">
        <ele>123.67</ele>
        <time>2019-05-14T10:22:24Z</time>
      </trkpt>
      <trkpt lat="39.35534" lon="-8.71178">
        <ele>124.15</ele>
        <time>2019-05-14T10:22:38Z</time>
      </trkpt>
      <trkpt lat="39.35548" lon="-8.71175">
        <ele>125.59</ele>
        <time>2019-05-14T10:22:53Z</time>
      </trkpt>
      <trkpt lat="39.35566" lon="-8.71175">
        <ele>127.03</ele>
        <time>2019-05-14T10:23:09Z</time>
      </trkpt>
      <trkpt lat="39.35583" lon="-8.71174">
        <ele>127.03</ele>
        <time>2019-05-14T10:23:24Z</time>
      </trkpt>
      <trkpt lat="39.35593" lon="-8.71173">
        <ele>128.47</ele>
        <time>2019-05-14T10:23:34Z</time>
      </trkpt>
      <trkpt lat="39.35599" lon="-8.71172">
        <ele>128.95</ele>
        <time>2019-05-14T10:23:39Z</time>
      </trkpt>
      <trkpt lat="39.35615" lon="-8.71174">
        <ele>129.92</ele>
        <time>2019-05-14T10:23:55Z</time>
      </trkpt>
      <trkpt lat="39.35629" lon="-8.7118">
        <ele>130.88</ele>
        <time>2019-05-14T10:24:09Z</time>
      </trkpt>
      <trkpt lat="39.35641" lon="-8.71186">
        <ele>131.84</ele>
        <time>2019-05-14T10:24:23Z</time>
      </trkpt>
      <trkpt lat="39.35654" lon="-8.71192">
        <ele>133.76</ele>
        <time>2019-05-14T10:24:37Z</time>
      </trkpt>
      <trkpt lat="39.35663" lon="-8.71196">
        <ele>134.72</ele>
        <time>2019-05-14T10:24:50Z</time>
      </trkpt>
      <trkpt lat="39.35678" lon="-8.71203">
        <ele>136.64</ele>
        <time>2019-05-14T10:25:07Z</time>
      </trkpt>
      <trkpt lat="39.35692" lon="-8.7121">
        <ele>137.13</ele>
        <time>2019-05-14T10:25:20Z</time>
      </trkpt>
      <trkpt lat="39.35708" lon="-8.71219">
        <ele>137.13</ele>
        <time>2019-05-14T10:25:35Z</time>
      </trkpt>
      <trkpt lat="39.35721" lon="-8.71228">
        <ele>135.2</ele>
        <time>2019-05-14T10:25:48Z</time>
      </trkpt>
      <trkpt lat="39.3573" lon="-8.71232">
        <ele>134.72</ele>
        <time>2019-05-14T10:25:56Z</time>
      </trkpt>
      <trkpt lat="39.35749" lon="-8.71239">
        <ele>133.76</ele>
        <time>2019-05-14T10:26:11Z</time>
      </trkpt>
      <trkpt lat="39.35768" lon="-8.71247">
        <ele>132.8</ele>
        <time>2019-05-14T10:26:27Z</time>
      </trkpt>
      <trkpt lat="39.35785" lon="-8.7125">
        <ele>131.84</ele>
        <time>2019-05-14T10:26:41Z</time>
      </trkpt>
      <trkpt lat="39.35806" lon="-8.71252">
        <ele>131.36</ele>
        <time>2019-05-14T10:26:58Z</time>
      </trkpt>
      <trkpt lat="39.35825" lon="-8.7125">
        <ele>131.84</ele>
        <time>2019-05-14T10:27:13Z</time>
      </trkpt>
      <trkpt lat="39.35841" lon="-8.71252">
        <ele>133.28</ele>
        <time>2019-05-14T10:27:28Z</time>
      </trkpt>
      <trkpt lat="39.35849" lon="-8.71253">
        <ele>133.76</ele>
        <time>2019-05-14T10:27:35Z</time>
      </trkpt>
      <trkpt lat="39.35868" lon="-8.71253">
        <ele>134.72</ele>
        <time>2019-05-14T10:27:51Z</time>
      </trkpt>
      <trkpt lat="39.35884" lon="-8.71255">
        <ele>135.68</ele>
        <time>2019-05-14T10:28:06Z</time>
      </trkpt>
      <trkpt lat="39.35902" lon="-8.71257">
        <ele>137.61</ele>
        <time>2019-05-14T10:28:23Z</time>
      </trkpt>
      <trkpt lat="39.35912" lon="-8.71258">
        <ele>138.57</ele>
        <time>2019-05-14T10:28:43Z</time>
      </trkpt>
      <trkpt lat="39.35928" lon="-8.71255">
        <ele>138.57</ele>
        <time>2019-05-14T10:28:57Z</time>
      </trkpt>
      <trkpt lat="39.35943" lon="-8.71258">
        <ele>138.09</ele>
        <time>2019-05-14T10:29:11Z</time>
      </trkpt>
      <trkpt lat="39.35956" lon="-8.71267">
        <ele>136.64</ele>
        <time>2019-05-14T10:29:23Z</time>
      </trkpt>
      <trkpt lat="39.35973" lon="-8.71276">
        <ele>136.64</ele>
        <time>2019-05-14T10:29:38Z</time>
      </trkpt>
      <trkpt lat="39.35987" lon="-8.71281">
        <ele>136.16</ele>
        <time>2019-05-14T10:29:50Z</time>
      </trkpt>
      <trkpt lat="39.35989" lon="-8.71282">
        <ele>136.64</ele>
        <time>2019-05-14T10:29:52Z</time>
      </trkpt>
      <trkpt lat="39.36004" lon="-8.71289">
        <ele>137.61</ele>
        <time>2019-05-14T10:30:05Z</time>
      </trkpt>
      <trkpt lat="39.36008" lon="-8.71292">
        <ele>138.09</ele>
        <time>2019-05-14T10:30:09Z</time>
      </trkpt>
      <trkpt lat="39.36014" lon="-8.71295">
        <ele>138.09</ele>
        <time>2019-05-14T10:30:14Z</time>
      </trkpt>
      <trkpt lat="39.36027" lon="-8.71302">
        <ele>139.05</ele>
        <time>2019-05-14T10:30:27Z</time>
      </trkpt>
      <trkpt lat="39.36039" lon="-8.71308">
        <ele>139.05</ele>
        <time>2019-05-14T10:30:38Z</time>
      </trkpt>
      <trkpt lat="39.36053" lon="-8.71318">
        <ele>138.57</ele>
        <time>2019-05-14T10:30:52Z</time>
      </trkpt>
      <trkpt lat="39.36063" lon="-8.71329">
        <ele>137.61</ele>
        <time>2019-05-14T10:31:04Z</time>
      </trkpt>
      <trkpt lat="39.36071" lon="-8.71341">
        <ele>136.16</ele>
        <time>2019-05-14T10:31:15Z</time>
      </trkpt>
      <trkpt lat="39.36086" lon="-8.71351">
        <ele>134.72</ele>
        <time>2019-05-14T10:31:28Z</time>
      </trkpt>
      <trkpt lat="39.36103" lon="-8.71357">
        <ele>133.28</ele>
        <time>2019-05-14T10:31:42Z</time>
      </trkpt>
      <trkpt lat="39.36104" lon="-8.71357">
        <ele>132.8</ele>
        <time>2019-05-14T10:31:43Z</time>
      </trkpt>
      <trkpt lat="39.36119" lon="-8.71362">
        <ele>130.88</ele>
        <time>2019-05-14T10:31:56Z</time>
      </trkpt>
      <trkpt lat="39.36128" lon="-8.71363">
        <ele>130.88</ele>
        <time>2019-05-14T10:32:07Z</time>
      </trkpt>
      <trkpt lat="39.36126" lon="-8.71364">
        <ele>130.88</ele>
        <time>2019-05-14T10:32:25Z</time>
      </trkpt>
      <trkpt lat="39.36126" lon="-8.71362">
        <ele>130.4</ele>
        <time>2019-05-14T10:32:37Z</time>
      </trkpt>
      <trkpt lat="39.36128" lon="-8.71368">
        <ele>130.4</ele>
        <time>2019-05-14T10:32:59Z</time>
      </trkpt>
      <trkpt lat="39.3613" lon="-8.71367">
        <ele>129.92</ele>
        <time>2019-05-14T10:33:16Z</time>
      </trkpt>
      <trkpt lat="39.36146" lon="-8.71368">
        <ele>129.92</ele>
        <time>2019-05-14T10:33:30Z</time>
      </trkpt>
      <trkpt lat="39.36159" lon="-8.71371">
        <ele>129.92</ele>
        <time>2019-05-14T10:33:45Z</time>
      </trkpt>
      <trkpt lat="39.36164" lon="-8.71373">
        <ele>129.92</ele>
        <time>2019-05-14T10:33:50Z</time>
      </trkpt>
      <trkpt lat="39.36173" lon="-8.71374">
        <ele>130.88</ele>
        <time>2019-05-14T10:33:59Z</time>
      </trkpt>
      <trkpt lat="39.36177" lon="-8.71375">
        <ele>131.36</ele>
        <time>2019-05-14T10:34:03Z</time>
      </trkpt>
      <trkpt lat="39.36193" lon="-8.71379">
        <ele>131.36</ele>
        <time>2019-05-14T10:34:17Z</time>
      </trkpt>
      <trkpt lat="39.36203" lon="-8.71384">
        <ele>131.84</ele>
        <time>2019-05-14T10:34:29Z</time>
      </trkpt>
      <trkpt lat="39.36203" lon="-8.71385">
        <ele>131.84</ele>
        <time>2019-05-14T10:34:30Z</time>
      </trkpt>
      <trkpt lat="39.36209" lon="-8.71389">
        <ele>131.84</ele>
        <time>2019-05-14T10:34:41Z</time>
      </trkpt>
      <trkpt lat="39.36212" lon="-8.71391">
        <ele>131.36</ele>
        <time>2019-05-14T10:34:44Z</time>
      </trkpt>
      <trkpt lat="39.36226" lon="-8.71399">
        <ele>131.36</ele>
        <time>2019-05-14T10:34:58Z</time>
      </trkpt>
      <trkpt lat="39.3623" lon="-8.71402">
        <ele>131.36</ele>
        <time>2019-05-14T10:35:02Z</time>
      </trkpt>
      <trkpt lat="39.36235" lon="-8.71407">
        <ele>131.36</ele>
        <time>2019-05-14T10:35:13Z</time>
      </trkpt>
      <trkpt lat="39.36238" lon="-8.71408">
        <ele>131.84</ele>
        <time>2019-05-14T10:35:17Z</time>
      </trkpt>
      <trkpt lat="39.36252" lon="-8.71413">
        <ele>130.88</ele>
        <time>2019-05-14T10:35:30Z</time>
      </trkpt>
      <trkpt lat="39.36264" lon="-8.71416">
        <ele>131.36</ele>
        <time>2019-05-14T10:35:40Z</time>
      </trkpt>
      <trkpt lat="39.36285" lon="-8.71418">
        <ele>131.36</ele>
        <time>2019-05-14T10:35:57Z</time>
      </trkpt>
      <trkpt lat="39.36301" lon="-8.71419">
        <ele>132.8</ele>
        <time>2019-05-14T10:36:11Z</time>
      </trkpt>
      <trkpt lat="39.36309" lon="-8.71419">
        <ele>133.28</ele>
        <time>2019-05-14T10:36:18Z</time>
      </trkpt>
      <trkpt lat="39.36324" lon="-8.71422">
        <ele>134.24</ele>
        <time>2019-05-14T10:36:33Z</time>
      </trkpt>
      <trkpt lat="39.36339" lon="-8.71421">
        <ele>135.2</ele>
        <time>2019-05-14T10:36:46Z</time>
      </trkpt>
      <trkpt lat="39.3635" lon="-8.71421">
        <ele>136.16</ele>
        <time>2019-05-14T10:36:58Z</time>
      </trkpt>
      <trkpt lat="39.36368" lon="-8.7142">
        <ele>137.61</ele>
        <time>2019-05-14T10:37:13Z</time>
      </trkpt>
      <trkpt lat="39.36386" lon="-8.71424">
        <ele>137.61</ele>
        <time>2019-05-14T10:37:28Z</time>
      </trkpt>
      <trkpt lat="39.3639" lon="-8.71429">
        <ele>137.61</ele>
        <time>2019-05-14T10:37:42Z</time>
      </trkpt>
      <trkpt lat="39.36403" lon="-8.7143">
        <ele>137.61</ele>
        <time>2019-05-14T10:38:03Z</time>
      </trkpt>
      <trkpt lat="39.36419" lon="-8.71435">
        <ele>137.13</ele>
        <time>2019-05-14T10:38:17Z</time>
      </trkpt>
      <trkpt lat="39.36434" lon="-8.7144">
        <ele>137.61</ele>
        <time>2019-05-14T10:38:30Z</time>
      </trkpt>
      <trkpt lat="39.3645" lon="-8.71445">
        <ele>137.61</ele>
        <time>2019-05-14T10:38:45Z</time>
      </trkpt>
      <trkpt lat="39.36472" lon="-8.71451">
        <ele>138.09</ele>
        <time>2019-05-14T10:39:03Z</time>
      </trkpt>
      <trkpt lat="39.36489" lon="-8.71455">
        <ele>138.09</ele>
        <time>2019-05-14T10:39:18Z</time>
      </trkpt>
      <trkpt lat="39.36504" lon="-8.71461">
        <ele>138.57</ele>
        <time>2019-05-14T10:39:32Z</time>
      </trkpt>
      <trkpt lat="39.36518" lon="-8.7147">
        <ele>138.57</ele>
        <time>2019-05-14T10:39:46Z</time>
      </trkpt>
      <trkpt lat="39.3652" lon="-8.71472">
        <ele>138.57</ele>
        <time>2019-05-14T10:39:48Z</time>
      </trkpt>
      <trkpt lat="39.36534" lon="-8.71482">
        <ele>138.57</ele>
        <time>2019-05-14T10:40:02Z</time>
      </trkpt>
      <trkpt lat="39.36544" lon="-8.71494">
        <ele>139.05</ele>
        <time>2019-05-14T10:40:13Z</time>
      </trkpt>
      <trkpt lat="39.36548" lon="-8.715">
        <ele>138.57</ele>
        <time>2019-05-14T10:40:19Z</time>
      </trkpt>
      <trkpt lat="39.36552" lon="-8.71506">
        <ele>138.57</ele>
        <time>2019-05-14T10:40:24Z</time>
      </trkpt>
      <trkpt lat="39.36564" lon="-8.71522">
        <ele>138.57</ele>
        <time>2019-05-14T10:40:38Z</time>
      </trkpt>
      <trkpt lat="39.36579" lon="-8.7154">
        <ele>138.57</ele>
        <time>2019-05-14T10:40:56Z</time>
      </trkpt>
      <trkpt lat="39.36585" lon="-8.71547">
        <ele>138.09</ele>
        <time>2019-05-14T10:41:02Z</time>
      </trkpt>
      <trkpt lat="39.36592" lon="-8.71556">
        <ele>137.61</ele>
        <time>2019-05-14T10:41:10Z</time>
      </trkpt>
      <trkpt lat="39.36603" lon="-8.71565">
        <ele>138.09</ele>
        <time>2019-05-14T10:41:24Z</time>
      </trkpt>
      <trkpt lat="39.36605" lon="-8.71568">
        <ele>137.61</ele>
        <time>2019-05-14T10:41:45Z</time>
      </trkpt>
      <trkpt lat="39.36612" lon="-8.71577">
        <ele>137.13</ele>
        <time>2019-05-14T10:41:54Z</time>
      </trkpt>
      <trkpt lat="39.36614" lon="-8.71579">
        <ele>137.61</ele>
        <time>2019-05-14T10:41:56Z</time>
      </trkpt>
      <trkpt lat="39.36617" lon="-8.71584">
        <ele>137.61</ele>
        <time>2019-05-14T10:42:01Z</time>
      </trkpt>
      <trkpt lat="39.36623" lon="-8.71591">
        <ele>137.61</ele>
        <time>2019-05-14T10:42:08Z</time>
      </trkpt>
      <trkpt lat="39.36626" lon="-8.71593">
        <ele>137.61</ele>
        <time>2019-05-14T10:42:11Z</time>
      </trkpt>
      <trkpt lat="39.36631" lon="-8.71598">
        <ele>138.09</ele>
        <time>2019-05-14T10:42:16Z</time>
      </trkpt>
      <trkpt lat="39.36645" lon="-8.7161">
        <ele>138.09</ele>
        <time>2019-05-14T10:42:31Z</time>
      </trkpt>
      <trkpt lat="39.36646" lon="-8.71612">
        <ele>138.09</ele>
        <time>2019-05-14T10:42:48Z</time>
      </trkpt>
      <trkpt lat="39.36649" lon="-8.7161">
        <ele>137.61</ele>
        <time>2019-05-14T10:43:11Z</time>
      </trkpt>
      <trkpt lat="39.36648" lon="-8.71611">
        <ele>137.61</ele>
        <time>2019-05-14T10:43:26Z</time>
      </trkpt>
      <trkpt lat="39.36648" lon="-8.71612">
        <ele>138.09</ele>
        <time>2019-05-14T10:43:51Z</time>
      </trkpt>
      <trkpt lat="39.36657" lon="-8.71622">
        <ele>137.13</ele>
        <time>2019-05-14T10:44:04Z</time>
      </trkpt>
      <trkpt lat="39.3667" lon="-8.71631">
        <ele>136.16</ele>
        <time>2019-05-14T10:44:18Z</time>
      </trkpt>
      <trkpt lat="39.36684" lon="-8.71638">
        <ele>136.64</ele>
        <time>2019-05-14T10:44:30Z</time>
      </trkpt>
      <trkpt lat="39.3669" lon="-8.71643">
        <ele>135.2</ele>
        <time>2019-05-14T10:44:43Z</time>
      </trkpt>
      <trkpt lat="39.36691" lon="-8.71643">
        <ele>135.68</ele>
        <time>2019-05-14T10:45:12Z</time>
      </trkpt>
      <trkpt lat="39.36701" lon="-8.71644">
        <ele>135.2</ele>
        <time>2019-05-14T10:45:30Z</time>
      </trkpt>
      <trkpt lat="39.36716" lon="-8.71648">
        <ele>134.24</ele>
        <time>2019-05-14T10:45:43Z</time>
      </trkpt>
      <trkpt lat="39.3673" lon="-8.71652">
        <ele>133.76</ele>
        <time>2019-05-14T10:45:55Z</time>
      </trkpt>
      <trkpt lat="39.36731" lon="-8.71652">
        <ele>133.28</ele>
        <time>2019-05-14T10:45:57Z</time>
      </trkpt>
      <trkpt lat="39.36744" lon="-8.71656">
        <ele>131.84</ele>
        <time>2019-05-14T10:46:08Z</time>
      </trkpt>
      <trkpt lat="39.36761" lon="-8.71656">
        <ele>129.43</ele>
        <time>2019-05-14T10:46:22Z</time>
      </trkpt>
      <trkpt lat="39.36779" lon="-8.7166">
        <ele>128.47</ele>
        <time>2019-05-14T10:46:36Z</time>
      </trkpt>
      <trkpt lat="39.36794" lon="-8.71667">
        <ele>127.03</ele>
        <time>2019-05-14T10:46:49Z</time>
      </trkpt>
      <trkpt lat="39.36805" lon="-8.71671">
        <ele>126.07</ele>
        <time>2019-05-14T10:47:01Z</time>
      </trkpt>
      <trkpt lat="39.36819" lon="-8.71674">
        <ele>125.59</ele>
        <time>2019-05-14T10:47:14Z</time>
      </trkpt>
      <trkpt lat="39.36835" lon="-8.71677">
        <ele>123.67</ele>
        <time>2019-05-14T10:47:27Z</time>
      </trkpt>
      <trkpt lat="39.36853" lon="-8.71679">
        <ele>123.67</ele>
        <time>2019-05-14T10:47:42Z</time>
      </trkpt>
      <trkpt lat="39.36873" lon="-8.71678">
        <ele>122.22</ele>
        <time>2019-05-14T10:47:58Z</time>
      </trkpt>
      <trkpt lat="39.36891" lon="-8.71677">
        <ele>122.71</ele>
        <time>2019-05-14T10:48:14Z</time>
      </trkpt>
      <trkpt lat="39.36912" lon="-8.71676">
        <ele>123.67</ele>
        <time>2019-05-14T10:48:30Z</time>
      </trkpt>
      <trkpt lat="39.36929" lon="-8.71677">
        <ele>123.67</ele>
        <time>2019-05-14T10:48:45Z</time>
      </trkpt>
      <trkpt lat="39.36947" lon="-8.71677">
        <ele>124.63</ele>
        <time>2019-05-14T10:49:00Z</time>
      </trkpt>
      <trkpt lat="39.36961" lon="-8.7168">
        <ele>126.07</ele>
        <time>2019-05-14T10:49:13Z</time>
      </trkpt>
      <trkpt lat="39.36976" lon="-8.71683">
        <ele>127.99</ele>
        <time>2019-05-14T10:49:28Z</time>
      </trkpt>
      <trkpt lat="39.36989" lon="-8.71688">
        <ele>129.43</ele>
        <time>2019-05-14T10:49:42Z</time>
      </trkpt>
      <trkpt lat="39.37002" lon="-8.71692">
        <ele>131.36</ele>
        <time>2019-05-14T10:49:56Z</time>
      </trkpt>
      <trkpt lat="39.37018" lon="-8.71694">
        <ele>132.8</ele>
        <time>2019-05-14T10:50:11Z</time>
      </trkpt>
      <trkpt lat="39.37024" lon="-8.71694">
        <ele>133.76</ele>
        <time>2019-05-14T10:50:23Z</time>
      </trkpt>
      <trkpt lat="39.37036" lon="-8.71693">
        <ele>133.28</ele>
        <time>2019-05-14T10:50:36Z</time>
      </trkpt>
      <trkpt lat="39.3706" lon="-8.71684">
        <ele>133.28</ele>
        <time>2019-05-14T10:50:57Z</time>
      </trkpt>
      <trkpt lat="39.37063" lon="-8.71682">
        <ele>132.8</ele>
        <time>2019-05-14T10:51:00Z</time>
      </trkpt>
      <trkpt lat="39.37085" lon="-8.71671">
        <ele>131.84</ele>
        <time>2019-05-14T10:51:19Z</time>
      </trkpt>
      <trkpt lat="39.37104" lon="-8.7166">
        <ele>131.84</ele>
        <time>2019-05-14T10:51:35Z</time>
      </trkpt>
      <trkpt lat="39.37118" lon="-8.71642">
        <ele>132.8</ele>
        <time>2019-05-14T10:51:52Z</time>
      </trkpt>
      <trkpt lat="39.37124" lon="-8.71636">
        <ele>133.28</ele>
        <time>2019-05-14T10:51:59Z</time>
      </trkpt>
      <trkpt lat="39.37127" lon="-8.71629">
        <ele>133.76</ele>
        <time>2019-05-14T10:52:04Z</time>
      </trkpt>
      <trkpt lat="39.37138" lon="-8.7161">
        <ele>134.24</ele>
        <time>2019-05-14T10:52:20Z</time>
      </trkpt>
      <trkpt lat="39.37149" lon="-8.71598">
        <ele>133.76</ele>
        <time>2019-05-14T10:52:34Z</time>
      </trkpt>
      <trkpt lat="39.37157" lon="-8.716">
        <ele>133.28</ele>
        <time>2019-05-14T10:52:47Z</time>
      </trkpt>
      <trkpt lat="39.37173" lon="-8.71604">
        <ele>132.32</ele>
        <time>2019-05-14T10:53:03Z</time>
      </trkpt>
      <trkpt lat="39.37185" lon="-8.71604">
        <ele>131.84</ele>
        <time>2019-05-14T10:53:14Z</time>
      </trkpt>
      <trkpt lat="39.37202" lon="-8.716">
        <ele>129.43</ele>
        <time>2019-05-14T10:53:28Z</time>
      </trkpt>
      <trkpt lat="39.37217" lon="-8.71597">
        <ele>128.47</ele>
        <time>2019-05-14T10:53:41Z</time>
      </trkpt>
      <trkpt lat="39.37234" lon="-8.71591">
        <ele>127.03</ele>
        <time>2019-05-14T10:53:55Z</time>
      </trkpt>
      <trkpt lat="39.37252" lon="-8.71581">
        <ele>125.11</ele>
        <time>2019-05-14T10:54:10Z</time>
      </trkpt>
      <trkpt lat="39.37269" lon="-8.71571">
        <ele>123.67</ele>
        <time>2019-05-14T10:54:25Z</time>
      </trkpt>
      <trkpt lat="39.37283" lon="-8.71562">
        <ele>123.67</ele>
        <time>2019-05-14T10:54:38Z</time>
      </trkpt>
      <trkpt lat="39.37288" lon="-8.71557">
        <ele>123.67</ele>
        <time>2019-05-14T10:54:43Z</time>
      </trkpt>
      <trkpt lat="39.37289" lon="-8.71555">
        <ele>123.19</ele>
        <time>2019-05-14T10:54:45Z</time>
      </trkpt>
      <trkpt lat="39.37295" lon="-8.71549">
        <ele>123.19</ele>
        <time>2019-05-14T10:54:51Z</time>
      </trkpt>
      <trkpt lat="39.3731" lon="-8.71532">
        <ele>122.71</ele>
        <time>2019-05-14T10:55:07Z</time>
      </trkpt>
      <trkpt lat="39.37318" lon="-8.71518">
        <ele>122.71</ele>
        <time>2019-05-14T10:55:24Z</time>
      </trkpt>
      <trkpt lat="39.37327" lon="-8.71502">
        <ele>123.19</ele>
        <time>2019-05-14T10:55:37Z</time>
      </trkpt>
      <trkpt lat="39.37328" lon="-8.715">
        <ele>123.67</ele>
        <time>2019-05-14T10:55:39Z</time>
      </trkpt>
      <trkpt lat="39.37338" lon="-8.71481">
        <ele>124.15</ele>
        <time>2019-05-14T10:55:55Z</time>
      </trkpt>
      <trkpt lat="39.37344" lon="-8.7147">
        <ele>124.15</ele>
        <time>2019-05-14T10:56:07Z</time>
      </trkpt>
      <trkpt lat="39.3735" lon="-8.71463">
        <ele>124.15</ele>
        <time>2019-05-14T10:56:15Z</time>
      </trkpt>
      <trkpt lat="39.37356" lon="-8.71455">
        <ele>124.63</ele>
        <time>2019-05-14T10:56:23Z</time>
      </trkpt>
      <trkpt lat="39.37369" lon="-8.71444">
        <ele>124.63</ele>
        <time>2019-05-14T10:56:37Z</time>
      </trkpt>
      <trkpt lat="39.37379" lon="-8.71441">
        <ele>124.63</ele>
        <time>2019-05-14T10:56:48Z</time>
      </trkpt>
      <trkpt lat="39.37385" lon="-8.71434">
        <ele>125.59</ele>
        <time>2019-05-14T10:56:56Z</time>
      </trkpt>
      <trkpt lat="39.37392" lon="-8.71426">
        <ele>126.07</ele>
        <time>2019-05-14T10:57:09Z</time>
      </trkpt>
      <trkpt lat="39.3739" lon="-8.7142">
        <ele>125.59</ele>
        <time>2019-05-14T10:57:34Z</time>
      </trkpt>
      <trkpt lat="39.37391" lon="-8.71423">
        <ele>126.07</ele>
        <time>2019-05-14T10:57:57Z</time>
      </trkpt>
      <trkpt lat="39.37393" lon="-8.71421">
        <ele>125.59</ele>
        <time>2019-05-14T10:58:07Z</time>
      </trkpt>
      <trkpt lat="39.37412" lon="-8.71414">
        <ele>126.07</ele>
        <time>2019-05-14T10:58:21Z</time>
      </trkpt>
      <trkpt lat="39.37429" lon="-8.71409">
        <ele>125.11</ele>
        <time>2019-05-14T10:58:36Z</time>
      </trkpt>
      <trkpt lat="39.3744" lon="-8.714">
        <ele>124.63</ele>
        <time>2019-05-14T10:58:47Z</time>
      </trkpt>
      <trkpt lat="39.37442" lon="-8.71397">
        <ele>124.63</ele>
        <time>2019-05-14T10:58:50Z</time>
      </trkpt>
      <trkpt lat="39.37459" lon="-8.71372">
        <ele>123.67</ele>
        <time>2019-05-14T10:59:07Z</time>
      </trkpt>
      <trkpt lat="39.3747" lon="-8.7136">
        <ele>123.67</ele>
        <time>2019-05-14T10:59:20Z</time>
      </trkpt>
      <trkpt lat="39.37471" lon="-8.71361">
        <ele>124.15</ele>
        <time>2019-05-14T10:59:24Z</time>
      </trkpt>
      <trkpt lat="39.37473" lon="-8.71362">
        <ele>124.15</ele>
        <time>2019-05-14T10:59:26Z</time>
      </trkpt>
      <trkpt lat="39.37484" lon="-8.71369">
        <ele>122.71</ele>
        <time>2019-05-14T10:59:41Z</time>
      </trkpt>
      <trkpt lat="39.37497" lon="-8.71378">
        <ele>122.71</ele>
        <time>2019-05-14T10:59:55Z</time>
      </trkpt>
      <trkpt lat="39.37498" lon="-8.71378">
        <ele>121.74</ele>
        <time>2019-05-14T10:59:56Z</time>
      </trkpt>
      <trkpt lat="39.37514" lon="-8.71375">
        <ele>120.78</ele>
        <time>2019-05-14T11:00:11Z</time>
      </trkpt>
      <trkpt lat="39.37534" lon="-8.71368">
        <ele>119.34</ele>
        <time>2019-05-14T11:00:27Z</time>
      </trkpt>
      <trkpt lat="39.37556" lon="-8.71359">
        <ele>118.86</ele>
        <time>2019-05-14T11:00:44Z</time>
      </trkpt>
      <trkpt lat="39.37575" lon="-8.71353">
        <ele>118.86</ele>
        <time>2019-05-14T11:01:00Z</time>
      </trkpt>
      <trkpt lat="39.37586" lon="-8.71352">
        <ele>119.34</ele>
        <time>2019-05-14T11:01:10Z</time>
      </trkpt>
      <trkpt lat="39.37591" lon="-8.71353">
        <ele>119.34</ele>
        <time>2019-05-14T11:01:14Z</time>
      </trkpt>
      <trkpt lat="39.37594" lon="-8.71354">
        <ele>119.34</ele>
        <time>2019-05-14T11:01:17Z</time>
      </trkpt>
      <trkpt lat="39.37596" lon="-8.71352">
        <ele>119.34</ele>
        <time>2019-05-14T11:01:19Z</time>
      </trkpt>
      <trkpt lat="39.37604" lon="-8.71351">
        <ele>119.82</ele>
        <time>2019-05-14T11:01:25Z</time>
      </trkpt>
      <trkpt lat="39.37624" lon="-8.71355">
        <ele>120.78</ele>
        <time>2019-05-14T11:01:42Z</time>
      </trkpt>
      <trkpt lat="39.37635" lon="-8.71353">
        <ele>120.78</ele>
        <time>2019-05-14T11:01:51Z</time>
      </trkpt>
      <trkpt lat="39.37639" lon="-8.71348">
        <ele>121.26</ele>
        <time>2019-05-14T11:01:56Z</time>
      </trkpt>
      <trkpt lat="39.37642" lon="-8.71336">
        <ele>121.74</ele>
        <time>2019-05-14T11:02:05Z</time>
      </trkpt>
      <trkpt lat="39.37647" lon="-8.71311">
        <ele>123.19</ele>
        <time>2019-05-14T11:02:22Z</time>
      </trkpt>
      <trkpt lat="39.37657" lon="-8.71293">
        <ele>124.15</ele>
        <time>2019-05-14T11:02:38Z</time>
      </trkpt>
      <trkpt lat="39.37672" lon="-8.7128">
        <ele>124.63</ele>
        <time>2019-05-14T11:02:53Z</time>
      </trkpt>
      <trkpt lat="39.37687" lon="-8.71267">
        <ele>126.07</ele>
        <time>2019-05-14T11:03:08Z</time>
      </trkpt>
      <trkpt lat="39.37691" lon="-8.7126">
        <ele>126.07</ele>
        <time>2019-05-14T11:03:14Z</time>
      </trkpt>
      <trkpt lat="39.37711" lon="-8.71246">
        <ele>126.55</ele>
        <time>2019-05-14T11:03:32Z</time>
      </trkpt>
      <trkpt lat="39.37729" lon="-8.71235">
        <ele>127.51</ele>
        <time>2019-05-14T11:03:49Z</time>
      </trkpt>
      <trkpt lat="39.37738" lon="-8.7123">
        <ele>127.51</ele>
        <time>2019-05-14T11:04:04Z</time>
      </trkpt>
      <trkpt lat="39.37755" lon="-8.71219">
        <ele>128.47</ele>
        <time>2019-05-14T11:04:21Z</time>
      </trkpt>
      <trkpt lat="39.37771" lon="-8.7121">
        <ele>127.99</ele>
        <time>2019-05-14T11:04:35Z</time>
      </trkpt>
      <trkpt lat="39.37783" lon="-8.71201">
        <ele>128.47</ele>
        <time>2019-05-14T11:04:48Z</time>
      </trkpt>
      <trkpt lat="39.3779" lon="-8.71197">
        <ele>128.47</ele>
        <time>2019-05-14T11:04:55Z</time>
      </trkpt>
      <trkpt lat="39.37792" lon="-8.71196">
        <ele>128.47</ele>
        <time>2019-05-14T11:04:57Z</time>
      </trkpt>
      <trkpt lat="39.37797" lon="-8.71194">
        <ele>127.99</ele>
        <time>2019-05-14T11:05:01Z</time>
      </trkpt>
      <trkpt lat="39.37819" lon="-8.71183">
        <ele>127.99</ele>
        <time>2019-05-14T11:05:19Z</time>
      </trkpt>
      <trkpt lat="39.37824" lon="-8.71179">
        <ele>128.47</ele>
        <time>2019-05-14T11:05:33Z</time>
      </trkpt>
      <trkpt lat="39.37837" lon="-8.71172">
        <ele>128.47</ele>
        <time>2019-05-14T11:05:46Z</time>
      </trkpt>
      <trkpt lat="39.37855" lon="-8.71163">
        <ele>127.99</ele>
        <time>2019-05-14T11:06:01Z</time>
      </trkpt>
      <trkpt lat="39.37875" lon="-8.71153">
        <ele>128.47</ele>
        <time>2019-05-14T11:06:18Z</time>
      </trkpt>
      <trkpt lat="39.37897" lon="-8.71139">
        <ele>128.95</ele>
        <time>2019-05-14T11:06:37Z</time>
      </trkpt>
      <trkpt lat="39.37917" lon="-8.71127">
        <ele>128.95</ele>
        <time>2019-05-14T11:06:54Z</time>
      </trkpt>
      <trkpt lat="39.37934" lon="-8.71121">
        <ele>130.4</ele>
        <time>2019-05-14T11:07:09Z</time>
      </trkpt>
      <trkpt lat="39.37952" lon="-8.71112">
        <ele>130.88</ele>
        <time>2019-05-14T11:07:24Z</time>
      </trkpt>
      <trkpt lat="39.37965" lon="-8.71097">
        <ele>131.84</ele>
        <time>2019-05-14T11:07:39Z</time>
      </trkpt>
      <trkpt lat="39.37976" lon="-8.71078">
        <ele>131.84</ele>
        <time>2019-05-14T11:07:54Z</time>
      </trkpt>
      <trkpt lat="39.37989" lon="-8.71063">
        <ele>131.84</ele>
        <time>2019-05-14T11:08:08Z</time>
      </trkpt>
      <trkpt lat="39.38007" lon="-8.71046">
        <ele>131.84</ele>
        <time>2019-05-14T11:08:25Z</time>
      </trkpt>
      <trkpt lat="39.38024" lon="-8.71029">
        <ele>132.32</ele>
        <time>2019-05-14T11:08:42Z</time>
      </trkpt>
      <trkpt lat="39.38031" lon="-8.71023">
        <ele>132.8</ele>
        <time>2019-05-14T11:08:52Z</time>
      </trkpt>
      <trkpt lat="39.3805" lon="-8.71006">
        <ele>133.76</ele>
        <time>2019-05-14T11:09:11Z</time>
      </trkpt>
      <trkpt lat="39.38054" lon="-8.71005">
        <ele>132.8</ele>
        <time>2019-05-14T11:09:14Z</time>
      </trkpt>
      <trkpt lat="39.38068" lon="-8.70986">
        <ele>134.24</ele>
        <time>2019-05-14T11:09:31Z</time>
      </trkpt>
      <trkpt lat="39.3808" lon="-8.7097">
        <ele>134.72</ele>
        <time>2019-05-14T11:09:44Z</time>
      </trkpt>
      <trkpt lat="39.38092" lon="-8.70958">
        <ele>135.2</ele>
        <time>2019-05-14T11:09:58Z</time>
      </trkpt>
      <trkpt lat="39.38105" lon="-8.70943">
        <ele>136.16</ele>
        <time>2019-05-14T11:10:13Z</time>
      </trkpt>
      <trkpt lat="39.38121" lon="-8.7094">
        <ele>136.16</ele>
        <time>2019-05-14T11:10:28Z</time>
      </trkpt>
      <trkpt lat="39.38138" lon="-8.70943">
        <ele>133.76</ele>
        <time>2019-05-14T11:10:43Z</time>
      </trkpt>
      <trkpt lat="39.38145" lon="-8.70954">
        <ele>132.32</ele>
        <time>2019-05-14T11:10:52Z</time>
      </trkpt>
      <trkpt lat="39.38148" lon="-8.70956">
        <ele>131.84</ele>
        <time>2019-05-14T11:10:55Z</time>
      </trkpt>
      <trkpt lat="39.38151" lon="-8.70962">
        <ele>129.92</ele>
        <time>2019-05-14T11:11:00Z</time>
      </trkpt>
      <trkpt lat="39.38154" lon="-8.70966">
        <ele>130.4</ele>
        <time>2019-05-14T11:11:03Z</time>
      </trkpt>
      <trkpt lat="39.38158" lon="-8.70971">
        <ele>128.95</ele>
        <time>2019-05-14T11:11:08Z</time>
      </trkpt>
      <trkpt lat="39.38173" lon="-8.70981">
        <ele>126.07</ele>
        <time>2019-05-14T11:11:24Z</time>
      </trkpt>
      <trkpt lat="39.3818" lon="-8.70985">
        <ele>124.15</ele>
        <time>2019-05-14T11:11:36Z</time>
      </trkpt>
      <trkpt lat="39.38188" lon="-8.70984">
        <ele>123.67</ele>
        <time>2019-05-14T11:12:08Z</time>
      </trkpt>
      <trkpt lat="39.38201" lon="-8.70981">
        <ele>121.26</ele>
        <time>2019-05-14T11:12:23Z</time>
      </trkpt>
      <trkpt lat="39.38208" lon="-8.70979">
        <ele>119.82</ele>
        <time>2019-05-14T11:12:31Z</time>
      </trkpt>
      <trkpt lat="39.38211" lon="-8.70976">
        <ele>118.38</ele>
        <time>2019-05-14T11:12:35Z</time>
      </trkpt>
      <trkpt lat="39.38228" lon="-8.70979">
        <ele>115.5</ele>
        <time>2019-05-14T11:12:51Z</time>
      </trkpt>
      <trkpt lat="39.38236" lon="-8.70987">
        <ele>114.05</ele>
        <time>2019-05-14T11:13:00Z</time>
      </trkpt>
      <trkpt lat="39.38242" lon="-8.70995">
        <ele>112.61</ele>
        <time>2019-05-14T11:13:06Z</time>
      </trkpt>
      <trkpt lat="39.3825" lon="-8.71">
        <ele>111.65</ele>
        <time>2019-05-14T11:13:14Z</time>
      </trkpt>
      <trkpt lat="39.38254" lon="-8.71004">
        <ele>111.17</ele>
        <time>2019-05-14T11:13:18Z</time>
      </trkpt>
      <trkpt lat="39.38268" lon="-8.71013">
        <ele>109.25</ele>
        <time>2019-05-14T11:13:31Z</time>
      </trkpt>
      <trkpt lat="39.38274" lon="-8.71015">
        <ele>107.32</ele>
        <time>2019-05-14T11:13:36Z</time>
      </trkpt>
      <trkpt lat="39.38276" lon="-8.71018">
        <ele>106.84</ele>
        <time>2019-05-14T11:13:39Z</time>
      </trkpt>
      <trkpt lat="39.38288" lon="-8.71022">
        <ele>103.96</ele>
        <time>2019-05-14T11:13:51Z</time>
      </trkpt>
      <trkpt lat="39.38299" lon="-8.71021">
        <ele>103</ele>
        <time>2019-05-14T11:14:01Z</time>
      </trkpt>
      <trkpt lat="39.38313" lon="-8.71016">
        <ele>102.04</ele>
        <time>2019-05-14T11:14:13Z</time>
      </trkpt>
      <trkpt lat="39.38326" lon="-8.7103">
        <ele>100.6</ele>
        <time>2019-05-14T11:14:27Z</time>
      </trkpt>
      <trkpt lat="39.38327" lon="-8.71032">
        <ele>100.11</ele>
        <time>2019-05-14T11:14:28Z</time>
      </trkpt>
      <trkpt lat="39.38336" lon="-8.71056">
        <ele>98.67</ele>
        <time>2019-05-14T11:14:43Z</time>
      </trkpt>
      <trkpt lat="39.38343" lon="-8.71078">
        <ele>95.79</ele>
        <time>2019-05-14T11:14:58Z</time>
      </trkpt>
      <trkpt lat="39.38351" lon="-8.71098">
        <ele>92.9</ele>
        <time>2019-05-14T11:15:12Z</time>
      </trkpt>
      <trkpt lat="39.38352" lon="-8.71102">
        <ele>92.42</ele>
        <time>2019-05-14T11:15:15Z</time>
      </trkpt>
      <trkpt lat="39.38355" lon="-8.7111">
        <ele>91.46</ele>
        <time>2019-05-14T11:15:20Z</time>
      </trkpt>
      <trkpt lat="39.38357" lon="-8.71116">
        <ele>90.5</ele>
        <time>2019-05-14T11:15:24Z</time>
      </trkpt>
      <trkpt lat="39.38363" lon="-8.71132">
        <ele>88.1</ele>
        <time>2019-05-14T11:15:37Z</time>
      </trkpt>
      <trkpt lat="39.38373" lon="-8.71152">
        <ele>86.18</ele>
        <time>2019-05-14T11:15:52Z</time>
      </trkpt>
      <trkpt lat="39.38377" lon="-8.71154">
        <ele>86.66</ele>
        <time>2019-05-14T11:15:55Z</time>
      </trkpt>
      <trkpt lat="39.38399" lon="-8.71163">
        <ele>85.21</ele>
        <time>2019-05-14T11:16:12Z</time>
      </trkpt>
      <trkpt lat="39.384" lon="-8.71163">
        <ele>85.69</ele>
        <time>2019-05-14T11:16:13Z</time>
      </trkpt>
      <trkpt lat="39.38417" lon="-8.71167">
        <ele>85.21</ele>
        <time>2019-05-14T11:16:25Z</time>
      </trkpt>
      <trkpt lat="39.38432" lon="-8.71171">
        <ele>84.73</ele>
        <time>2019-05-14T11:16:37Z</time>
      </trkpt>
      <trkpt lat="39.38434" lon="-8.71171">
        <ele>85.21</ele>
        <time>2019-05-14T11:16:39Z</time>
      </trkpt>
      <trkpt lat="39.3845" lon="-8.71171">
        <ele>85.69</ele>
        <time>2019-05-14T11:16:52Z</time>
      </trkpt>
      <trkpt lat="39.38466" lon="-8.71168">
        <ele>86.18</ele>
        <time>2019-05-14T11:17:05Z</time>
      </trkpt>
      <trkpt lat="39.3848" lon="-8.71171">
        <ele>86.18</ele>
        <time>2019-05-14T11:17:17Z</time>
      </trkpt>
      <trkpt lat="39.38498" lon="-8.71181">
        <ele>82.81</ele>
        <time>2019-05-14T11:17:33Z</time>
      </trkpt>
      <trkpt lat="39.38511" lon="-8.71185">
        <ele>81.85</ele>
        <time>2019-05-14T11:17:44Z</time>
      </trkpt>
      <trkpt lat="39.38528" lon="-8.7119">
        <ele>80.89</ele>
        <time>2019-05-14T11:17:58Z</time>
      </trkpt>
      <trkpt lat="39.38545" lon="-8.71197">
        <ele>78.97</ele>
        <time>2019-05-14T11:18:13Z</time>
      </trkpt>
      <trkpt lat="39.38566" lon="-8.712">
        <ele>77.04</ele>
        <time>2019-05-14T11:18:29Z</time>
      </trkpt>
      <trkpt lat="39.38584" lon="-8.71194">
        <ele>74.16</ele>
        <time>2019-05-14T11:18:44Z</time>
      </trkpt>
      <trkpt lat="39.38601" lon="-8.71191">
        <ele>74.16</ele>
        <time>2019-05-14T11:18:56Z</time>
      </trkpt>
      <trkpt lat="39.38617" lon="-8.71192">
        <ele>73.68</ele>
        <time>2019-05-14T11:19:09Z</time>
      </trkpt>
      <trkpt lat="39.38635" lon="-8.71196">
        <ele>72.72</ele>
        <time>2019-05-14T11:19:24Z</time>
      </trkpt>
      <trkpt lat="39.38654" lon="-8.71192">
        <ele>73.2</ele>
        <time>2019-05-14T11:19:39Z</time>
      </trkpt>
      <trkpt lat="39.38668" lon="-8.71188">
        <ele>73.2</ele>
        <time>2019-05-14T11:19:50Z</time>
      </trkpt>
      <trkpt lat="39.3867" lon="-8.71187">
        <ele>73.2</ele>
        <time>2019-05-14T11:19:52Z</time>
      </trkpt>
      <trkpt lat="39.38687" lon="-8.71183">
        <ele>73.2</ele>
        <time>2019-05-14T11:20:05Z</time>
      </trkpt>
      <trkpt lat="39.38687" lon="-8.71182">
        <ele>74.16</ele>
        <time>2019-05-14T11:20:22Z</time>
      </trkpt>
      <trkpt lat="39.38685" lon="-8.71183">
        <ele>73.68</ele>
        <time>2019-05-14T11:20:38Z</time>
      </trkpt>
      <trkpt lat="39.38689" lon="-8.71186">
        <ele>73.2</ele>
        <time>2019-05-14T11:21:04Z</time>
      </trkpt>
      <trkpt lat="39.38686" lon="-8.71185">
        <ele>73.2</ele>
        <time>2019-05-14T11:21:22Z</time>
      </trkpt>
      <trkpt lat="39.38687" lon="-8.71187">
        <ele>73.68</ele>
        <time>2019-05-14T11:21:39Z</time>
      </trkpt>
      <trkpt lat="39.38699" lon="-8.71176">
        <ele>72.72</ele>
        <time>2019-05-14T11:21:51Z</time>
      </trkpt>
      <trkpt lat="39.38715" lon="-8.71163">
        <ele>73.2</ele>
        <time>2019-05-14T11:22:05Z</time>
      </trkpt>
      <trkpt lat="39.38716" lon="-8.71162">
        <ele>73.2</ele>
        <time>2019-05-14T11:22:06Z</time>
      </trkpt>
      <trkpt lat="39.38729" lon="-8.71157">
        <ele>73.2</ele>
        <time>2019-05-14T11:22:19Z</time>
      </trkpt>
      <trkpt lat="39.38739" lon="-8.71149">
        <ele>73.2</ele>
        <time>2019-05-14T11:22:34Z</time>
      </trkpt>
      <trkpt lat="39.38751" lon="-8.7114">
        <ele>73.2</ele>
        <time>2019-05-14T11:22:45Z</time>
      </trkpt>
      <trkpt lat="39.38767" lon="-8.71128">
        <ele>71.76</ele>
        <time>2019-05-14T11:23:01Z</time>
      </trkpt>
      <trkpt lat="39.38784" lon="-8.71117">
        <ele>71.76</ele>
        <time>2019-05-14T11:23:15Z</time>
      </trkpt>
      <trkpt lat="39.38788" lon="-8.71113">
        <ele>71.76</ele>
        <time>2019-05-14T11:23:19Z</time>
      </trkpt>
      <trkpt lat="39.38796" lon="-8.71104">
        <ele>70.79</ele>
        <time>2019-05-14T11:23:28Z</time>
      </trkpt>
      <trkpt lat="39.38806" lon="-8.71086">
        <ele>70.31</ele>
        <time>2019-05-14T11:23:41Z</time>
      </trkpt>
      <trkpt lat="39.38808" lon="-8.71084">
        <ele>69.83</ele>
        <time>2019-05-14T11:23:43Z</time>
      </trkpt>
      <trkpt lat="39.38813" lon="-8.71075">
        <ele>68.87</ele>
        <time>2019-05-14T11:23:50Z</time>
      </trkpt>
      <trkpt lat="39.38815" lon="-8.71071">
        <ele>68.87</ele>
        <time>2019-05-14T11:23:53Z</time>
      </trkpt>
      <trkpt lat="39.38816" lon="-8.71068">
        <ele>68.87</ele>
        <time>2019-05-14T11:23:55Z</time>
      </trkpt>
      <trkpt lat="39.3882" lon="-8.7106">
        <ele>68.87</ele>
        <time>2019-05-14T11:24:01Z</time>
      </trkpt>
      <trkpt lat="39.38823" lon="-8.71058">
        <ele>68.87</ele>
        <time>2019-05-14T11:24:03Z</time>
      </trkpt>
      <trkpt lat="39.38835" lon="-8.71036">
        <ele>67.91</ele>
        <time>2019-05-14T11:24:20Z</time>
      </trkpt>
      <trkpt lat="39.38848" lon="-8.7102">
        <ele>67.43</ele>
        <time>2019-05-14T11:24:34Z</time>
      </trkpt>
      <trkpt lat="39.38859" lon="-8.71009">
        <ele>65.99</ele>
        <time>2019-05-14T11:24:46Z</time>
      </trkpt>
      <trkpt lat="39.38871" lon="-8.70992">
        <ele>64.07</ele>
        <time>2019-05-14T11:25:02Z</time>
      </trkpt>
      <trkpt lat="39.38886" lon="-8.70975">
        <ele>63.58</ele>
        <time>2019-05-14T11:25:17Z</time>
      </trkpt>
      <trkpt lat="39.38893" lon="-8.70967">
        <ele>64.07</ele>
        <time>2019-05-14T11:25:25Z</time>
      </trkpt>
      <trkpt lat="39.38901" lon="-8.7096">
        <ele>63.1</ele>
        <time>2019-05-14T11:25:36Z</time>
      </trkpt>
      <trkpt lat="39.38915" lon="-8.70957">
        <ele>62.62</ele>
        <time>2019-05-14T11:25:49Z</time>
      </trkpt>
      <trkpt lat="39.3893" lon="-8.70969">
        <ele>62.14</ele>
        <time>2019-05-14T11:26:03Z</time>
      </trkpt>
      <trkpt lat="39.38944" lon="-8.70982">
        <ele>61.66</ele>
        <time>2019-05-14T11:26:18Z</time>
      </trkpt>
      <trkpt lat="39.38957" lon="-8.70994">
        <ele>61.18</ele>
        <time>2019-05-14T11:26:31Z</time>
      </trkpt>
      <trkpt lat="39.38969" lon="-8.71005">
        <ele>60.7</ele>
        <time>2019-05-14T11:26:44Z</time>
      </trkpt>
      <trkpt lat="39.3897" lon="-8.71006">
        <ele>60.7</ele>
        <time>2019-05-14T11:26:45Z</time>
      </trkpt>
      <trkpt lat="39.38991" lon="-8.71016">
        <ele>60.7</ele>
        <time>2019-05-14T11:27:01Z</time>
      </trkpt>
      <trkpt lat="39.38995" lon="-8.71018">
        <ele>60.7</ele>
        <time>2019-05-14T11:27:05Z</time>
      </trkpt>
      <trkpt lat="39.39012" lon="-8.71023">
        <ele>60.22</ele>
        <time>2019-05-14T11:27:19Z</time>
      </trkpt>
      <trkpt lat="39.39025" lon="-8.71024">
        <ele>60.7</ele>
        <time>2019-05-14T11:27:30Z</time>
      </trkpt>
      <trkpt lat="39.39039" lon="-8.71024">
        <ele>61.18</ele>
        <time>2019-05-14T11:27:42Z</time>
      </trkpt>
      <trkpt lat="39.39043" lon="-8.71024">
        <ele>61.18</ele>
        <time>2019-05-14T11:27:45Z</time>
      </trkpt>
      <trkpt lat="39.39065" lon="-8.71023">
        <ele>61.18</ele>
        <time>2019-05-14T11:28:02Z</time>
      </trkpt>
      <trkpt lat="39.3907" lon="-8.71022">
        <ele>61.18</ele>
        <time>2019-05-14T11:28:06Z</time>
      </trkpt>
      <trkpt lat="39.39085" lon="-8.71027">
        <ele>62.14</ele>
        <time>2019-05-14T11:28:20Z</time>
      </trkpt>
      <trkpt lat="39.39099" lon="-8.71037">
        <ele>63.58</ele>
        <time>2019-05-14T11:28:33Z</time>
      </trkpt>
      <trkpt lat="39.39107" lon="-8.71051">
        <ele>65.51</ele>
        <time>2019-05-14T11:28:47Z</time>
      </trkpt>
      <trkpt lat="39.39115" lon="-8.71064">
        <ele>67.43</ele>
        <time>2019-05-14T11:29:00Z</time>
      </trkpt>
      <trkpt lat="39.39116" lon="-8.71064">
        <ele>66.95</ele>
        <time>2019-05-14T11:29:06Z</time>
      </trkpt>
      <trkpt lat="39.39129" lon="-8.71077">
        <ele>68.39</ele>
        <time>2019-05-14T11:29:22Z</time>
      </trkpt>
      <trkpt lat="39.39141" lon="-8.71081">
        <ele>68.87</ele>
        <time>2019-05-14T11:29:35Z</time>
      </trkpt>
      <trkpt lat="39.39146" lon="-8.71084">
        <ele>69.35</ele>
        <time>2019-05-14T11:29:40Z</time>
      </trkpt>
      <trkpt lat="39.3916" lon="-8.71091">
        <ele>70.31</ele>
        <time>2019-05-14T11:29:54Z</time>
      </trkpt>
      <trkpt lat="39.39177" lon="-8.71095">
        <ele>70.79</ele>
        <time>2019-05-14T11:30:09Z</time>
      </trkpt>
      <trkpt lat="39.39189" lon="-8.71098">
        <ele>71.27</ele>
        <time>2019-05-14T11:30:20Z</time>
      </trkpt>
      <trkpt lat="39.39214" lon="-8.71099">
        <ele>71.27</ele>
        <time>2019-05-14T11:30:39Z</time>
      </trkpt>
      <trkpt lat="39.3923" lon="-8.71099">
        <ele>71.27</ele>
        <time>2019-05-14T11:30:54Z</time>
      </trkpt>
      <trkpt lat="39.39232" lon="-8.71099">
        <ele>70.79</ele>
        <time>2019-05-14T11:30:56Z</time>
      </trkpt>
      <trkpt lat="39.39236" lon="-8.71101">
        <ele>70.79</ele>
        <time>2019-05-14T11:31:07Z</time>
      </trkpt>
      <trkpt lat="39.39239" lon="-8.71101">
        <ele>70.79</ele>
        <time>2019-05-14T11:31:33Z</time>
      </trkpt>
      <trkpt lat="39.39244" lon="-8.71097">
        <ele>70.79</ele>
        <time>2019-05-14T11:31:40Z</time>
      </trkpt>
      <trkpt lat="39.39262" lon="-8.71085">
        <ele>71.76</ele>
        <time>2019-05-14T11:31:57Z</time>
      </trkpt>
      <trkpt lat="39.3927" lon="-8.71071">
        <ele>71.76</ele>
        <time>2019-05-14T11:32:10Z</time>
      </trkpt>
      <trkpt lat="39.39275" lon="-8.71061">
        <ele>73.2</ele>
        <time>2019-05-14T11:32:20Z</time>
      </trkpt>
      <trkpt lat="39.39285" lon="-8.71046">
        <ele>72.72</ele>
        <time>2019-05-14T11:32:32Z</time>
      </trkpt>
      <trkpt lat="39.39295" lon="-8.7103">
        <ele>72.24</ele>
        <time>2019-05-14T11:32:46Z</time>
      </trkpt>
      <trkpt lat="39.39296" lon="-8.71029">
        <ele>71.27</ele>
        <time>2019-05-14T11:32:47Z</time>
      </trkpt>
      <trkpt lat="39.39308" lon="-8.71013">
        <ele>70.79</ele>
        <time>2019-05-14T11:33:03Z</time>
      </trkpt>
      <trkpt lat="39.3932" lon="-8.70998">
        <ele>70.31</ele>
        <time>2019-05-14T11:33:16Z</time>
      </trkpt>
      <trkpt lat="39.39332" lon="-8.70985">
        <ele>69.35</ele>
        <time>2019-05-14T11:33:27Z</time>
      </trkpt>
      <trkpt lat="39.39335" lon="-8.70976">
        <ele>68.39</ele>
        <time>2019-05-14T11:33:33Z</time>
      </trkpt>
      <trkpt lat="39.39341" lon="-8.70954">
        <ele>67.91</ele>
        <time>2019-05-14T11:33:46Z</time>
      </trkpt>
      <trkpt lat="39.39347" lon="-8.70929">
        <ele>66.47</ele>
        <time>2019-05-14T11:34:02Z</time>
      </trkpt>
      <trkpt lat="39.3935" lon="-8.70924">
        <ele>66.95</ele>
        <time>2019-05-14T11:34:10Z</time>
      </trkpt>
      <trkpt lat="39.39352" lon="-8.70914">
        <ele>66.47</ele>
        <time>2019-05-14T11:34:18Z</time>
      </trkpt>
      <trkpt lat="39.39365" lon="-8.70895">
        <ele>65.51</ele>
        <time>2019-05-14T11:34:34Z</time>
      </trkpt>
      <trkpt lat="39.39378" lon="-8.7088">
        <ele>65.99</ele>
        <time>2019-05-14T11:34:47Z</time>
      </trkpt>
      <trkpt lat="39.39388" lon="-8.7086">
        <ele>65.99</ele>
        <time>2019-05-14T11:35:04Z</time>
      </trkpt>
      <trkpt lat="39.39391" lon="-8.70858">
        <ele>65.99</ele>
        <time>2019-05-14T11:35:07Z</time>
      </trkpt>
      <trkpt lat="39.39403" lon="-8.7084">
        <ele>65.99</ele>
        <time>2019-05-14T11:35:23Z</time>
      </trkpt>
      <trkpt lat="39.39414" lon="-8.70823">
        <ele>66.47</ele>
        <time>2019-05-14T11:35:36Z</time>
      </trkpt>
      <trkpt lat="39.39428" lon="-8.70808">
        <ele>66.95</ele>
        <time>2019-05-14T11:35:50Z</time>
      </trkpt>
      <trkpt lat="39.39443" lon="-8.70794">
        <ele>67.43</ele>
        <time>2019-05-14T11:36:05Z</time>
      </trkpt>
      <trkpt lat="39.39454" lon="-8.70788">
        <ele>67.43</ele>
        <time>2019-05-14T11:36:17Z</time>
      </trkpt>
      <trkpt lat="39.39459" lon="-8.70786">
        <ele>66.95</ele>
        <time>2019-05-14T11:36:23Z</time>
      </trkpt>
      <trkpt lat="39.39474" lon="-8.70782">
        <ele>67.43</ele>
        <time>2019-05-14T11:36:37Z</time>
      </trkpt>
      <trkpt lat="39.39491" lon="-8.70774">
        <ele>66.47</ele>
        <time>2019-05-14T11:36:51Z</time>
      </trkpt>
      <trkpt lat="39.39507" lon="-8.70765">
        <ele>66.95</ele>
        <time>2019-05-14T11:37:05Z</time>
      </trkpt>
      <trkpt lat="39.3952" lon="-8.70758">
        <ele>66.95</ele>
        <time>2019-05-14T11:37:17Z</time>
      </trkpt>
      <trkpt lat="39.39532" lon="-8.70748">
        <ele>66.47</ele>
        <time>2019-05-14T11:37:29Z</time>
      </trkpt>
      <trkpt lat="39.39533" lon="-8.70747">
        <ele>66.95</ele>
        <time>2019-05-14T11:37:31Z</time>
      </trkpt>
      <trkpt lat="39.39539" lon="-8.70742">
        <ele>66.47</ele>
        <time>2019-05-14T11:37:36Z</time>
      </trkpt>
      <trkpt lat="39.39548" lon="-8.70736">
        <ele>65.99</ele>
        <time>2019-05-14T11:37:44Z</time>
      </trkpt>
      <trkpt lat="39.39563" lon="-8.70725">
        <ele>65.03</ele>
        <time>2019-05-14T11:37:58Z</time>
      </trkpt>
      <trkpt lat="39.39569" lon="-8.70721">
        <ele>65.51</ele>
        <time>2019-05-14T11:38:03Z</time>
      </trkpt>
      <trkpt lat="39.39586" lon="-8.70714">
        <ele>65.99</ele>
        <time>2019-05-14T11:38:17Z</time>
      </trkpt>
      <trkpt lat="39.39597" lon="-8.70703">
        <ele>65.99</ele>
        <time>2019-05-14T11:38:30Z</time>
      </trkpt>
      <trkpt lat="39.3961" lon="-8.70688">
        <ele>65.51</ele>
        <time>2019-05-14T11:38:43Z</time>
      </trkpt>
      <trkpt lat="39.39617" lon="-8.70678">
        <ele>65.03</ele>
        <time>2019-05-14T11:38:51Z</time>
      </trkpt>
      <trkpt lat="39.39627" lon="-8.70662">
        <ele>64.55</ele>
        <time>2019-05-14T11:39:05Z</time>
      </trkpt>
      <trkpt lat="39.39631" lon="-8.70654">
        <ele>65.03</ele>
        <time>2019-05-14T11:39:12Z</time>
      </trkpt>
      <trkpt lat="39.39635" lon="-8.70646">
        <ele>64.55</ele>
        <time>2019-05-14T11:39:18Z</time>
      </trkpt>
      <trkpt lat="39.3965" lon="-8.70631">
        <ele>64.55</ele>
        <time>2019-05-14T11:39:31Z</time>
      </trkpt>
      <trkpt lat="39.39653" lon="-8.70625">
        <ele>64.55</ele>
        <time>2019-05-14T11:39:35Z</time>
      </trkpt>
      <trkpt lat="39.39666" lon="-8.70607">
        <ele>64.07</ele>
        <time>2019-05-14T11:39:51Z</time>
      </trkpt>
      <trkpt lat="39.39677" lon="-8.70594">
        <ele>64.55</ele>
        <time>2019-05-14T11:40:05Z</time>
      </trkpt>
      <trkpt lat="39.3969" lon="-8.70584">
        <ele>64.55</ele>
        <time>2019-05-14T11:40:19Z</time>
      </trkpt>
      <trkpt lat="39.39695" lon="-8.70583">
        <ele>64.55</ele>
        <time>2019-05-14T11:40:40Z</time>
      </trkpt>
      <trkpt lat="39.39699" lon="-8.7058">
        <ele>63.58</ele>
        <time>2019-05-14T11:41:00Z</time>
      </trkpt>
      <trkpt lat="39.39699" lon="-8.70579">
        <ele>64.07</ele>
        <time>2019-05-14T11:41:23Z</time>
      </trkpt>
      <trkpt lat="39.397" lon="-8.70579">
        <ele>64.07</ele>
        <time>2019-05-14T11:41:53Z</time>
      </trkpt>
      <trkpt lat="39.39702" lon="-8.70577">
        <ele>64.07</ele>
        <time>2019-05-14T11:42:18Z</time>
      </trkpt>
      <trkpt lat="39.39709" lon="-8.70573">
        <ele>63.58</ele>
        <time>2019-05-14T11:42:26Z</time>
      </trkpt>
      <trkpt lat="39.39711" lon="-8.70571">
        <ele>63.58</ele>
        <time>2019-05-14T11:42:40Z</time>
      </trkpt>
      <trkpt lat="39.39708" lon="-8.70576">
        <ele>64.07</ele>
        <time>2019-05-14T11:43:03Z</time>
      </trkpt>
      <trkpt lat="39.3971" lon="-8.70577">
        <ele>64.07</ele>
        <time>2019-05-14T11:43:16Z</time>
      </trkpt>
      <trkpt lat="39.3971" lon="-8.70581">
        <ele>64.07</ele>
        <time>2019-05-14T11:43:33Z</time>
      </trkpt>
      <trkpt lat="39.39713" lon="-8.70582">
        <ele>64.55</ele>
        <time>2019-05-14T11:43:48Z</time>
      </trkpt>
      <trkpt lat="39.39712" lon="-8.70577">
        <ele>64.55</ele>
        <time>2019-05-14T11:43:56Z</time>
      </trkpt>
      <trkpt lat="39.39713" lon="-8.70566">
        <ele>64.07</ele>
        <time>2019-05-14T11:44:08Z</time>
      </trkpt>
      <trkpt lat="39.39716" lon="-8.7055">
        <ele>64.07</ele>
        <time>2019-05-14T11:44:31Z</time>
      </trkpt>
      <trkpt lat="39.39712" lon="-8.70545">
        <ele>64.55</ele>
        <time>2019-05-14T11:44:55Z</time>
      </trkpt>
      <trkpt lat="39.39717" lon="-8.70552">
        <ele>63.1</ele>
        <time>2019-05-14T11:45:20Z</time>
      </trkpt>
      <trkpt lat="39.39717" lon="-8.70558">
        <ele>63.58</ele>
        <time>2019-05-14T11:45:31Z</time>
      </trkpt>
      <trkpt lat="39.39734" lon="-8.70556">
        <ele>67.43</ele>
        <time>2019-05-14T12:21:15Z</time>
      </trkpt>
      <trkpt lat="39.39718" lon="-8.70563">
        <ele>66.95</ele>
        <time>2019-05-14T12:21:41Z</time>
      </trkpt>
      <trkpt lat="39.39715" lon="-8.70562">
        <ele>67.43</ele>
        <time>2019-05-14T12:22:04Z</time>
      </trkpt>
      <trkpt lat="39.39715" lon="-8.70561">
        <ele>71.27</ele>
        <time>2019-05-14T12:22:20Z</time>
      </trkpt>
      <trkpt lat="39.39715" lon="-8.70561">
        <ele>67.43</ele>
        <time>2019-05-14T12:22:21Z</time>
      </trkpt>
      <trkpt lat="39.39715" lon="-8.70555">
        <ele>67.43</ele>
        <time>2019-05-14T12:22:44Z</time>
      </trkpt>
      <trkpt lat="39.39717" lon="-8.70567">
        <ele>67.91</ele>
        <time>2019-05-14T12:23:08Z</time>
      </trkpt>
      <trkpt lat="39.39713" lon="-8.70577">
        <ele>66.95</ele>
        <time>2019-05-14T12:23:24Z</time>
      </trkpt>
      <trkpt lat="39.39718" lon="-8.70571">
        <ele>66.47</ele>
        <time>2019-05-14T12:23:33Z</time>
      </trkpt>
      <trkpt lat="39.39729" lon="-8.70563">
        <ele>65.03</ele>
        <time>2019-05-14T12:23:44Z</time>
      </trkpt>
      <trkpt lat="39.39731" lon="-8.70561">
        <ele>65.03</ele>
        <time>2019-05-14T12:23:46Z</time>
      </trkpt>
      <trkpt lat="39.3974" lon="-8.70558">
        <ele>64.55</ele>
        <time>2019-05-14T12:23:55Z</time>
      </trkpt>
      <trkpt lat="39.39743" lon="-8.70556">
        <ele>64.07</ele>
        <time>2019-05-14T12:23:58Z</time>
      </trkpt>
      <trkpt lat="39.39752" lon="-8.70549">
        <ele>63.58</ele>
        <time>2019-05-14T12:24:05Z</time>
      </trkpt>
      <trkpt lat="39.39765" lon="-8.70539">
        <ele>62.62</ele>
        <time>2019-05-14T12:24:19Z</time>
      </trkpt>
      <trkpt lat="39.39776" lon="-8.70529">
        <ele>61.66</ele>
        <time>2019-05-14T12:24:33Z</time>
      </trkpt>
      <trkpt lat="39.39791" lon="-8.70523">
        <ele>60.22</ele>
        <time>2019-05-14T12:24:47Z</time>
      </trkpt>
      <trkpt lat="39.39802" lon="-8.7052">
        <ele>59.74</ele>
        <time>2019-05-14T12:25:07Z</time>
      </trkpt>
      <trkpt lat="39.39803" lon="-8.70519">
        <ele>59.74</ele>
        <time>2019-05-14T12:25:08Z</time>
      </trkpt>
      <trkpt lat="39.39807" lon="-8.70517">
        <ele>58.78</ele>
        <time>2019-05-14T12:25:12Z</time>
      </trkpt>
      <trkpt lat="39.39822" lon="-8.70507">
        <ele>57.82</ele>
        <time>2019-05-14T12:25:27Z</time>
      </trkpt>
      <trkpt lat="39.39842" lon="-8.70499">
        <ele>57.34</ele>
        <time>2019-05-14T12:25:45Z</time>
      </trkpt>
      <trkpt lat="39.39848" lon="-8.70495">
        <ele>56.86</ele>
        <time>2019-05-14T12:25:51Z</time>
      </trkpt>
      <trkpt lat="39.39858" lon="-8.70491">
        <ele>57.34</ele>
        <time>2019-05-14T12:26:05Z</time>
      </trkpt>
      <trkpt lat="39.39878" lon="-8.70482">
        <ele>56.86</ele>
        <time>2019-05-14T12:26:23Z</time>
      </trkpt>
      <trkpt lat="39.39893" lon="-8.70474">
        <ele>56.86</ele>
        <time>2019-05-14T12:26:38Z</time>
      </trkpt>
      <trkpt lat="39.39901" lon="-8.70469">
        <ele>57.82</ele>
        <time>2019-05-14T12:26:50Z</time>
      </trkpt>
      <trkpt lat="39.39901" lon="-8.70471">
        <ele>57.82</ele>
        <time>2019-05-14T12:26:58Z</time>
      </trkpt>
      <trkpt lat="39.39903" lon="-8.7047">
        <ele>57.34</ele>
        <time>2019-05-14T12:27:00Z</time>
      </trkpt>
      <trkpt lat="39.39917" lon="-8.70463">
        <ele>58.3</ele>
        <time>2019-05-14T12:27:15Z</time>
      </trkpt>
      <trkpt lat="39.39931" lon="-8.70454">
        <ele>59.74</ele>
        <time>2019-05-14T12:27:30Z</time>
      </trkpt>
      <trkpt lat="39.39944" lon="-8.70446">
        <ele>61.66</ele>
        <time>2019-05-14T12:27:44Z</time>
      </trkpt>
      <trkpt lat="39.39946" lon="-8.70445">
        <ele>61.66</ele>
        <time>2019-05-14T12:27:46Z</time>
      </trkpt>
      <trkpt lat="39.39956" lon="-8.70433">
        <ele>63.58</ele>
        <time>2019-05-14T12:28:02Z</time>
      </trkpt>
      <trkpt lat="39.39959" lon="-8.7043">
        <ele>65.03</ele>
        <time>2019-05-14T12:28:07Z</time>
      </trkpt>
      <trkpt lat="39.39965" lon="-8.7042">
        <ele>65.99</ele>
        <time>2019-05-14T12:28:20Z</time>
      </trkpt>
      <trkpt lat="39.39966" lon="-8.70419">
        <ele>66.95</ele>
        <time>2019-05-14T12:28:22Z</time>
      </trkpt>
      <trkpt lat="39.39974" lon="-8.70408">
        <ele>67.43</ele>
        <time>2019-05-14T12:28:38Z</time>
      </trkpt>
      <trkpt lat="39.39976" lon="-8.70406">
        <ele>67.91</ele>
        <time>2019-05-14T12:28:49Z</time>
      </trkpt>
      <trkpt lat="39.39982" lon="-8.70395">
        <ele>68.87</ele>
        <time>2019-05-14T12:29:03Z</time>
      </trkpt>
      <trkpt lat="39.39989" lon="-8.70397">
        <ele>70.31</ele>
        <time>2019-05-14T12:29:16Z</time>
      </trkpt>
      <trkpt lat="39.39989" lon="-8.70399">
        <ele>70.79</ele>
        <time>2019-05-14T12:29:18Z</time>
      </trkpt>
      <trkpt lat="39.39994" lon="-8.70413">
        <ele>70.79</ele>
        <time>2019-05-14T12:29:32Z</time>
      </trkpt>
      <trkpt lat="39.39996" lon="-8.70429">
        <ele>73.68</ele>
        <time>2019-05-14T12:29:45Z</time>
      </trkpt>
      <trkpt lat="39.40002" lon="-8.70441">
        <ele>74.64</ele>
        <time>2019-05-14T12:29:59Z</time>
      </trkpt>
      <trkpt lat="39.40011" lon="-8.7045">
        <ele>76.56</ele>
        <time>2019-05-14T12:30:14Z</time>
      </trkpt>
      <trkpt lat="39.40019" lon="-8.70462">
        <ele>77.52</ele>
        <time>2019-05-14T12:30:29Z</time>
      </trkpt>
      <trkpt lat="39.40023" lon="-8.70469">
        <ele>78</ele>
        <time>2019-05-14T12:30:41Z</time>
      </trkpt>
      <trkpt lat="39.40028" lon="-8.70476">
        <ele>78.48</ele>
        <time>2019-05-14T12:30:58Z</time>
      </trkpt>
      <trkpt lat="39.4003" lon="-8.70478">
        <ele>79.45</ele>
        <time>2019-05-14T12:31:01Z</time>
      </trkpt>
      <trkpt lat="39.40037" lon="-8.70483">
        <ele>80.41</ele>
        <time>2019-05-14T12:31:11Z</time>
      </trkpt>
      <trkpt lat="39.40052" lon="-8.70492">
        <ele>79.93</ele>
        <time>2019-05-14T12:31:28Z</time>
      </trkpt>
      <trkpt lat="39.4006" lon="-8.70483">
        <ele>80.41</ele>
        <time>2019-05-14T12:31:43Z</time>
      </trkpt>
      <trkpt lat="39.4006" lon="-8.7047">
        <ele>79.45</ele>
        <time>2019-05-14T12:31:59Z</time>
      </trkpt>
      <trkpt lat="39.40065" lon="-8.70473">
        <ele>79.93</ele>
        <time>2019-05-14T12:32:21Z</time>
      </trkpt>
      <trkpt lat="39.40059" lon="-8.70484">
        <ele>80.41</ele>
        <time>2019-05-14T12:32:37Z</time>
      </trkpt>
      <trkpt lat="39.40058" lon="-8.70479">
        <ele>79.45</ele>
        <time>2019-05-14T12:32:54Z</time>
      </trkpt>
      <trkpt lat="39.40057" lon="-8.70471">
        <ele>79.45</ele>
        <time>2019-05-14T12:33:09Z</time>
      </trkpt>
      <trkpt lat="39.40057" lon="-8.7047">
        <ele>79.93</ele>
        <time>2019-05-14T12:33:22Z</time>
      </trkpt>
      <trkpt lat="39.40049" lon="-8.70461">
        <ele>79.45</ele>
        <time>2019-05-14T12:33:44Z</time>
      </trkpt>
      <trkpt lat="39.40036" lon="-8.7045">
        <ele>78.48</ele>
        <time>2019-05-14T12:34:04Z</time>
      </trkpt>
      <trkpt lat="39.40052" lon="-8.70465">
        <ele>78</ele>
        <time>2019-05-14T12:34:27Z</time>
      </trkpt>
      <trkpt lat="39.40054" lon="-8.70467">
        <ele>78.48</ele>
        <time>2019-05-14T12:34:52Z</time>
      </trkpt>
      <trkpt lat="39.40058" lon="-8.70467">
        <ele>77.52</ele>
        <time>2019-05-14T12:35:17Z</time>
      </trkpt>
      <trkpt lat="39.40061" lon="-8.70467">
        <ele>78</ele>
        <time>2019-05-14T12:35:45Z</time>
      </trkpt>
      <trkpt lat="39.40064" lon="-8.70465">
        <ele>78</ele>
        <time>2019-05-14T12:36:13Z</time>
      </trkpt>
      <trkpt lat="39.40064" lon="-8.70465">
        <ele>77.52</ele>
        <time>2019-05-14T12:36:43Z</time>
      </trkpt>
      <trkpt lat="39.40066" lon="-8.70468">
        <ele>77.52</ele>
        <time>2019-05-14T12:37:07Z</time>
      </trkpt>
      <trkpt lat="39.40069" lon="-8.70476">
        <ele>78</ele>
        <time>2019-05-14T12:37:33Z</time>
      </trkpt>
      <trkpt lat="39.4007" lon="-8.70479">
        <ele>78</ele>
        <time>2019-05-14T12:37:59Z</time>
      </trkpt>
      <trkpt lat="39.40069" lon="-8.70468">
        <ele>78</ele>
        <time>2019-05-14T12:38:21Z</time>
      </trkpt>
      <trkpt lat="39.40063" lon="-8.70471">
        <ele>78</ele>
        <time>2019-05-14T12:38:48Z</time>
      </trkpt>
      <trkpt lat="39.40065" lon="-8.70466">
        <ele>78.97</ele>
        <time>2019-05-14T12:39:20Z</time>
      </trkpt>
      <trkpt lat="39.40061" lon="-8.7046">
        <ele>78.97</ele>
        <time>2019-05-14T12:39:50Z</time>
      </trkpt>
      <trkpt lat="39.40063" lon="-8.70465">
        <ele>79.45</ele>
        <time>2019-05-14T12:40:23Z</time>
      </trkpt>
      <trkpt lat="39.40053" lon="-8.70462">
        <ele>79.93</ele>
        <time>2019-05-14T12:40:55Z</time>
      </trkpt>
      <trkpt lat="39.40058" lon="-8.70466">
        <ele>80.41</ele>
        <time>2019-05-14T12:41:31Z</time>
      </trkpt>
      <trkpt lat="39.40068" lon="-8.7047">
        <ele>80.41</ele>
        <time>2019-05-14T12:42:08Z</time>
      </trkpt>
      <trkpt lat="39.40063" lon="-8.70472">
        <ele>80.89</ele>
        <time>2019-05-14T12:42:44Z</time>
      </trkpt>
      <trkpt lat="39.40063" lon="-8.7047">
        <ele>80.89</ele>
        <time>2019-05-14T12:43:19Z</time>
      </trkpt>
      <trkpt lat="39.40066" lon="-8.70472">
        <ele>81.37</ele>
        <time>2019-05-14T12:43:53Z</time>
      </trkpt>
      <trkpt lat="39.40062" lon="-8.70476">
        <ele>81.37</ele>
        <time>2019-05-14T12:44:25Z</time>
      </trkpt>
      <trkpt lat="39.40056" lon="-8.7048">
        <ele>80.89</ele>
        <time>2019-05-14T12:44:51Z</time>
      </trkpt>
      <trkpt lat="39.40056" lon="-8.7047">
        <ele>80.89</ele>
        <time>2019-05-14T12:45:24Z</time>
      </trkpt>
      <trkpt lat="39.4006" lon="-8.70474">
        <ele>80.41</ele>
        <time>2019-05-14T12:45:59Z</time>
      </trkpt>
      <trkpt lat="39.40061" lon="-8.70473">
        <ele>80.89</ele>
        <time>2019-05-14T12:46:18Z</time>
      </trkpt>
      <trkpt lat="39.40062" lon="-8.7048">
        <ele>80.89</ele>
        <time>2019-05-14T12:46:40Z</time>
      </trkpt>
      <trkpt lat="39.40058" lon="-8.70472">
        <ele>80.41</ele>
        <time>2019-05-14T12:47:03Z</time>
      </trkpt>
      <trkpt lat="39.40062" lon="-8.7047">
        <ele>80.41</ele>
        <time>2019-05-14T12:47:31Z</time>
      </trkpt>
      <trkpt lat="39.40054" lon="-8.7047">
        <ele>80.89</ele>
        <time>2019-05-14T12:47:56Z</time>
      </trkpt>
      <trkpt lat="39.40067" lon="-8.7047">
        <ele>79.45</ele>
        <time>2019-05-14T12:48:24Z</time>
      </trkpt>
      <trkpt lat="39.40066" lon="-8.70474">
        <ele>79.45</ele>
        <time>2019-05-14T12:48:50Z</time>
      </trkpt>
      <trkpt lat="39.40071" lon="-8.70472">
        <ele>79.45</ele>
        <time>2019-05-14T12:49:13Z</time>
      </trkpt>
      <trkpt lat="39.40064" lon="-8.70471">
        <ele>78.97</ele>
        <time>2019-05-14T12:49:36Z</time>
      </trkpt>
      <trkpt lat="39.40063" lon="-8.70466">
        <ele>79.45</ele>
        <time>2019-05-14T12:49:56Z</time>
      </trkpt>
      <trkpt lat="39.40062" lon="-8.70464">
        <ele>78.97</ele>
        <time>2019-05-14T12:50:26Z</time>
      </trkpt>
      <trkpt lat="39.40061" lon="-8.7047">
        <ele>78.48</ele>
        <time>2019-05-14T12:50:54Z</time>
      </trkpt>
      <trkpt lat="39.40058" lon="-8.70469">
        <ele>78.48</ele>
        <time>2019-05-14T12:51:14Z</time>
      </trkpt>
      <trkpt lat="39.40056" lon="-8.70466">
        <ele>81.85</ele>
        <time>2019-05-14T12:51:33Z</time>
      </trkpt>
      <trkpt lat="39.40058" lon="-8.70468">
        <ele>81.37</ele>
        <time>2019-05-14T12:51:46Z</time>
      </trkpt>
      <trkpt lat="39.4006" lon="-8.70467">
        <ele>81.85</ele>
        <time>2019-05-14T12:52:02Z</time>
      </trkpt>
      <trkpt lat="39.40063" lon="-8.70467">
        <ele>80.41</ele>
        <time>2019-05-14T12:52:19Z</time>
      </trkpt>
      <trkpt lat="39.40064" lon="-8.70463">
        <ele>81.85</ele>
        <time>2019-05-14T12:52:58Z</time>
      </trkpt>
      <trkpt lat="39.40064" lon="-8.70463">
        <ele>80.89</ele>
        <time>2019-05-14T12:53:33Z</time>
      </trkpt>
      <trkpt lat="39.40065" lon="-8.70465">
        <ele>81.37</ele>
        <time>2019-05-14T12:54:17Z</time>
      </trkpt>
      <trkpt lat="39.40067" lon="-8.70467">
        <ele>81.85</ele>
        <time>2019-05-14T12:54:56Z</time>
      </trkpt>
      <trkpt lat="39.40068" lon="-8.70465">
        <ele>81.85</ele>
        <time>2019-05-14T12:55:41Z</time>
      </trkpt>
      <trkpt lat="39.40066" lon="-8.70464">
        <ele>82.33</ele>
        <time>2019-05-14T12:56:16Z</time>
      </trkpt>
      <trkpt lat="39.40066" lon="-8.70463">
        <ele>82.33</ele>
        <time>2019-05-14T12:56:50Z</time>
      </trkpt>
      <trkpt lat="39.40063" lon="-8.70463">
        <ele>83.29</ele>
        <time>2019-05-14T12:57:29Z</time>
      </trkpt>
    </trkseg>
  </trk>
</gpx>